[[{"header":{"parameterUnit":"m.s-1","parameterCategory":1,"la1":30.6,"la2":28.766,"lo1":-90.7593,"lo2":-88.6598,"dy":0.0162,"dx":0.0183,"nx":116,"ny":114,"refTime":"2023-10-09T18:00:00:Z","depth":0,"parameterNumber":2,"parameterNumberName":"U-component_of_WINDS"},"data":[0.0,0.0,0.0,0.0,0.0,0.0,0.0,0.0,0.0,0.0,0.0,0.0,0.0,0.0,0.0,0.0,0.0,0.0,0.0,0.0,0.0,0.0,0.0,0.0,0.0,0.0,0.0,0.0,0.0,0.0,0.0,0.0,0.0,0.0,0.0,0.0,0.0,0.0,0.0,0.0,0.0,0.0,0.0,0.0,0.0,0.0,0.0,0.0,0.0,0.0,0.0,0.0,0.0,0.0,0.0,0.0,0.0,0.0,0.0,0.0,0.0,0.0,0.0,0.0,0.0,0.0,0.0,0.0,0.0,0.0,0.0,0.0,0.0,0.0,0.0,0.0,0.0,0.0,0.0,0.0,0.0,0.0,0.0,0.0,0.0,0.0,0.0,0.0,0.0,0.0,0.0,0.0,0.0,0.0,0.0,0.0,0.0,0.0,0.0,0.0,0.0,0.0,0.0,0.0,0.0,0.0,0.0,0.0,0.0,0.0,0.0,0.0,0.0,0.0,0.0,0.0,0.0,0.0,0.0,0.0,0.0,0.0,0.0,0.0,0.0,0.0,0.0,0.0,0.0,0.0,0.0,0.0,0.0,0.0,0.0,0.0,0.0,0.0,0.0,0.0,0.0,0.0,0.0,0.0,0.0,0.0,0.0,0.0,0.0,0.0,0.0,0.0,0.0,0.0,0.0,0.0,0.0,0.0,0.0,0.0,0.0,0.0,0.0,0.0,0.0,0.0,0.0,0.0,0.0,0.0,0.0,0.0,0.0,0.0,0.0,0.0,0.0,0.0,0.0,0.0,0.0,0.0,0.0,0.0,0.0,0.0,0.0,0.0,0.0,0.0,0.0,0.0,0.0,0.0,0.0,0.0,0.0,0.0,0.0,0.0,0.0,0.0,0.0,0.0,0.0,0.0,0.0,0.0,0.0,0.0,0.0,0.0,0.0,0.0,0.0,0.0,0.0,0.0,0.0,0.0,0.0,0.0,0.0,0.0,0.0,0.0,0.0,0.0,0.0,0.0,0.0,0.0,0.0,0.0,0.0,0.0,0.0,0.0,0.0,0.0,0.0,0.0,0.0,0.0,0.0,0.0,0.0,0.0,0.0,0.0,0.0,0.0,0.0,0.0,0.0,0.0,0.0,0.0,0.0,0.0,0.0,0.0,0.0,0.0,0.0,0.0,0.0,0.0,0.0,0.0,0.0,0.0,0.0,0.0,0.0,0.0,0.0,0.0,0.0,0.0,0.0,0.0,0.0,0.0,0.0,0.0,0.0,0.0,0.0,0.0,0.0,0.0,0.0,0.0,0.0,0.0,0.0,0.0,0.0,0.0,0.0,0.0,0.0,0.0,0.0,0.0,0.0,0.0,0.0,0.0,0.0,0.0,0.0,0.0,0.0,0.0,0.0,0.0,0.0,0.0,0.0,0.0,0.0,0.0,0.0,0.0,0.0,0.0,0.0,0.0,0.0,0.0,0.0,0.0,0.0,0.0,0.0,0.0,0.0,0.0,0.0,0.0,0.0,0.0,0.0,0.0,0.0,0.0,0.0,0.0,0.0,0.0,0.0,0.0,0.0,0.0,0.0,0.0,0.0,0.0,0.0,0.0,0.0,0.0,0.0,0.0,0.0,0.0,0.0,0.0,0.0,0.0,0.0,0.0,0.0,0.0,0.0,0.0,0.0,0.0,0.0,0.0,0.0,0.0,0.0,0.0,0.0,0.0,0.0,0.0,0.0,0.0,0.0,0.0,0.0,0.0,0.0,0.0,0.0,0.0,0.0,0.0,0.0,0.0,0.0,0.0,0.0,0.0,0.0,0.0,0.0,0.0,0.0,0.0,0.0,0.0,0.0,0.0,0.0,0.0,0.0,0.0,0.0,0.0,0.0,0.0,0.0,0.0,0.0,0.0,0.0,0.0,0.0,0.0,0.0,0.0,0.0,0.0,0.0,0.0,0.0,0.0,0.0,0.0,0.0,0.0,0.0,0.0,0.0,0.0,0.0,0.0,0.0,0.0,0.0,0.0,0.0,0.0,0.0,0.0,0.0,0.0,0.0,0.0,0.0,0.0,0.0,0.0,0.0,0.0,0.0,0.0,0.0,0.0,0.0,0.0,0.0,0.0,0.0,0.0,0.0,0.0,0.0,0.0,0.0,0.0,0.0,0.0,0.0,0.0,0.0,0.0,0.0,0.0,0.0,0.0,0.0,0.0,0.0,0.0,0.0,0.0,0.0,0.0,0.0,0.0,0.0,0.0,0.0,0.0,0.0,0.0,0.0,0.0,0.0,0.0,0.0,0.0,0.0,0.0,0.0,0.0,0.0,0.0,0.0,0.0,0.0,0.0,0.0,0.0,0.0,0.0,0.0,0.0,0.0,0.0,0.0,0.0,0.0,0.0,0.0,0.0,0.0,0.0,0.0,0.0,0.0,0.0,0.0,0.0,0.0,0.0,0.0,0.0,0.0,0.0,0.0,0.0,0.0,0.0,0.0,0.0,0.0,0.0,0.0,0.0,0.0,0.0,0.0,0.0,0.0,0.0,0.0,0.0,0.0,0.0,0.0,0.0,0.0,0.0,0.0,0.0,0.0,0.0,0.0,0.0,0.0,0.0,0.0,0.0,0.0,0.0,0.0,0.0,0.0,0.0,0.0,0.0,0.0,0.0,0.0,0.0,0.0,0.0,0.0,0.0,0.0,0.0,0.0,0.0,0.0,0.0,0.0,0.0,0.0,0.0,0.0,0.0,0.0,0.0,0.0,0.0,0.0,0.0,0.0,0.0,0.0,0.0,0.0,0.0,0.0,0.0,0.0,0.0,0.0,0.0,0.0,0.0,0.0,0.0,0.0,0.0,0.0,0.0,0.0,0.0,0.0,0.0,0.0,0.0,0.0,0.0,0.0,0.0,0.0,0.0,0.0,0.0,0.0,0.0,0.0,0.0,0.0,0.0,0.0,0.0,0.0,0.0,0.0,0.0,0.0,0.0,0.0,0.0,0.0,0.0,0.0,0.0,0.0,0.0,0.0,0.0,0.0,0.0,0.0,0.0,0.0,0.0,0.0,0.0,0.0,0.0,0.0,0.0,0.0,0.0,0.0,0.0,0.0,0.0,0.0,0.0,0.0,0.0,0.0,0.0,0.0,0.0,0.0,0.0,0.0,0.0,0.0,0.0,0.0,0.0,0.0,0.0,0.0,0.0,0.0,0.0,0.0,0.0,0.0,0.0,0.0,0.0,0.0,0.0,0.0,0.0,0.0,0.0,0.0,0.0,0.0,0.0,0.0,0.0,0.0,0.0,0.0,0.0,0.0,0.0,0.0,0.0,0.0,0.0,0.0,0.0,0.0,0.0,0.0,0.0,0.0,0.0,0.0,0.0,0.0,0.0,0.0,0.0,0.0,0.0,0.0,0.0,0.0,0.0,0.0,0.0,0.0,0.0,0.0,0.0,0.0,0.0,0.0,0.0,0.0,0.0,0.0,0.0,0.0,0.0,0.0,0.0,0.0,0.0,0.0,0.0,0.0,0.0,0.0,0.0,0.0,0.0,0.0,0.0,0.0,0.0,0.0,0.0,0.0,0.0,0.0,0.0,0.0,0.0,0.0,0.0,0.0,0.0,0.0,0.0,0.0,0.0,0.0,0.0,0.0,0.0,0.0,0.0,0.0,0.0,0.0,0.0,0.0,0.0,0.0,0.0,0.0,0.0,0.0,0.0,0.0,0.0,0.0,0.0,0.0,0.0,0.0,0.0,0.0,0.0,0.0,0.0,0.0,0.0,0.0,0.0,0.0,0.0,0.0,0.0,0.0,0.0,0.0,0.0,0.0,0.0,0.0,0.0,0.0,0.0,0.0,0.0,0.0,0.0,0.0,0.0,0.0,0.0,0.0,0.0,0.0,0.0,0.0,0.0,0.0,0.0,0.0,0.0,0.0,0.0,0.0,0.0,0.0,0.0,0.0,0.0,0.0,0.0,0.0,0.0,0.0,0.0,0.0,0.0,0.0,0.0,0.0,0.0,0.0,0.0,0.0,0.0,0.0,0.0,0.0,0.0,0.0,0.0,0.0,0.0,0.0,0.0,0.0,0.0,0.0,0.0,0.0,0.0,0.0,0.0,0.0,0.0,0.0,0.0,0.0,0.0,0.0,0.0,0.0,0.0,0.0,0.0,0.0,0.0,0.0,0.0,0.0,0.0,0.0,0.0,0.0,0.0,0.0,0.0,0.0,0.0,0.0,0.0,0.0,0.0,0.0,0.0,0.0,0.0,0.0,0.0,0.0,0.0,0.0,0.0,0.0,0.0,0.0,0.0,0.0,0.0,0.0,0.0,0.0,0.0,0.0,0.0,0.0,0.0,0.0,0.0,0.0,0.0,0.0,0.0,0.0,0.0,0.0,0.0,0.0,0.0,0.0,0.0,0.0,0.0,0.0,0.0,0.0,0.0,0.0,0.0,0.0,0.0,0.0,0.0,0.0,0.0,0.0,0.0,0.0,0.0,0.0,0.0,0.0,0.0,0.0,0.0,0.0,0.0,0.0,0.0,0.0,0.0,0.0,0.0,0.0,0.0,0.0,0.0,0.0,0.0,0.0,0.0,0.0,0.0,0.0,0.0,0.0,0.0,0.0,0.0,0.0,0.0,0.0,0.0,0.0,0.0,0.0,0.0,0.0,0.0,0.0,0.0,0.0,0.0,0.0,0.0,0.0,0.0,0.0,0.0,0.0,0.0,0.0,0.0,0.0,0.0,0.0,0.0,0.0,0.0,0.0,0.0,0.0,0.0,0.0,0.0,0.0,0.0,0.0,0.0,0.0,0.0,0.0,0.0,0.0,0.0,0.0,0.0,0.0,0.0,0.0,0.0,0.0,0.0,0.0,0.0,0.0,0.0,0.0,0.0,0.0,0.0,0.0,0.0,0.0,0.0,0.0,0.0,0.0,0.0,0.0,0.0,0.0,0.0,0.0,0.0,0.0,0.0,0.0,0.0,0.0,0.0,0.0,0.0,0.0,0.0,0.0,0.0,0.0,0.0,0.0,0.0,0.0,0.0,0.0,0.0,0.0,0.0,0.0,0.0,0.0,0.0,0.0,0.0,0.0,0.0,0.0,0.0,0.0,0.0,0.0,0.0,0.0,0.0,0.0,0.0,0.0,0.0,0.0,0.0,0.0,0.0,0.0,0.0,0.0,0.0,0.0,0.0,0.0,0.0,0.0,0.0,0.0,0.0,0.0,0.0,0.0,0.0,0.0,0.0,0.0,0.0,0.0,0.0,0.0,0.0,0.0,0.0,0.0,0.0,0.0,0.0,0.0,0.0,0.0,0.0,0.0,0.0,0.0,0.0,0.0,0.0,0.0,0.0,0.0,0.0,0.0,0.0,0.0,0.0,0.0,0.0,0.0,0.0,0.0,0.0,0.0,0.0,0.0,0.0,0.0,0.0,0.0,0.0,0.0,0.0,0.0,0.0,0.0,0.0,0.0,0.0,0.0,0.0,0.0,0.0,0.0,0.0,0.0,0.0,0.0,0.0,0.0,0.0,0.0,0.0,0.0,0.0,0.0,0.0,0.0,0.0,0.0,0.0,0.0,0.0,0.0,0.0,0.0,0.0,0.0,0.0,0.0,0.0,0.0,0.0,0.0,0.0,0.0,0.0,0.0,0.0,0.0,0.0,0.0,0.0,0.0,0.0,0.0,0.0,0.0,0.0,0.0,0.0,0.0,0.0,0.0,0.0,0.0,0.0,0.0,0.0,0.0,0.0,0.0,0.0,0.0,0.0,0.0,0.0,0.0,0.0,0.0,0.0,0.0,0.0,0.0,0.0,0.0,0.0,0.0,0.0,0.0,0.0,0.0,0.0,0.0,0.0,0.0,0.0,0.0,0.0,0.0,0.0,0.0,0.0,0.0,0.0,0.0,0.0,0.0,0.0,0.0,0.0,0.0,0.0,0.0,0.0,0.0,0.0,0.0,0.0,0.0,0.0,0.0,0.0,0.0,0.0,0.0,0.0,0.0,0.0,0.0,0.0,0.0,0.0,0.0,0.0,0.0,0.0,0.0,0.0,0.0,0.0,0.0,0.0,0.0,0.0,0.0,0.0,0.0,0.0,0.0,0.0,0.0,0.0,0.0,0.0,-2.798,-2.798,0.0,0.0,0.0,0.0,0.0,0.0,0.0,0.0,0.0,0.0,0.0,0.0,0.0,0.0,0.0,0.0,0.0,0.0,0.0,0.0,0.0,0.0,0.0,0.0,0.0,0.0,0.0,0.0,0.0,0.0,0.0,0.0,0.0,0.0,0.0,0.0,0.0,-0.9818,-0.9192,-0.9327,-1.0231,-1.0424,-1.0802,-1.1373,0.0,0.0,0.0,0.0,0.0,0.0,0.0,0.0,0.0,0.0,0.0,0.0,0.0,0.0,0.0,0.0,0.0,0.0,0.0,0.0,0.0,0.0,0.0,0.0,0.0,0.0,0.0,0.0,0.0,0.0,0.0,0.0,0.0,0.0,0.0,0.0,0.0,0.0,0.0,0.0,0.0,0.0,0.0,0.0,0.0,0.0,0.0,0.0,0.0,0.0,0.0,0.0,0.0,0.0,0.0,0.0,0.0,0.0,0.0,0.0,0.0,0.0,0.0,0.0,0.0,0.0,0.0,0.0,0.0,0.0,-2.8411,-2.8411,0.0,0.0,0.0,0.0,0.0,0.0,0.0,0.0,0.0,0.0,0.0,0.0,0.0,0.0,0.0,0.0,0.0,0.0,0.0,0.0,0.0,0.0,0.0,-0.7521,-0.7717,-0.8296,-0.8425,-0.8678,0.0,0.0,0.0,0.0,0.0,0.0,-0.9134,-0.8037,-0.7987,-0.9121,-0.8587,-0.8583,-0.9113,-0.9237,-0.9796,-1.0759,-1.1015,0.0,0.0,0.0,0.0,0.0,0.0,0.0,0.0,0.0,0.0,0.0,0.0,0.0,0.0,0.0,0.0,0.0,0.0,0.0,0.0,0.0,0.0,0.0,0.0,0.0,0.0,0.0,0.0,0.0,0.0,0.0,0.0,0.0,0.0,0.0,0.0,0.0,0.0,0.0,0.0,0.0,0.0,0.0,0.0,0.0,0.0,0.0,0.0,0.0,0.0,0.0,0.0,0.0,0.0,0.0,0.0,0.0,0.0,0.0,0.0,0.0,0.0,0.0,-2.847,-2.8532,-2.8532,-2.8704,-2.8765,-2.875,-2.8642,-2.8519,-2.8411,-2.8411,0.0,0.0,0.0,0.0,0.0,0.0,0.0,0.0,0.0,0.0,0.0,0.0,0.0,0.0,0.0,0.0,0.0,0.0,0.0,-0.7521,-0.7521,-0.7521,-0.7521,-0.7652,-0.8166,-0.8296,-0.7782,0.0,0.0,0.0,0.0,0.0,-0.7782,-0.7396,-0.7612,-0.8322,-0.8722,-0.8703,-0.8323,-0.8829,-0.9157,-0.93,-1.0206,-1.0759,-1.1093,0.0,0.0,0.0,0.0,0.0,0.0,0.0,0.0,0.0,0.0,0.0,0.0,0.0,0.0,0.0,0.0,0.0,0.0,0.0,0.0,0.0,0.0,0.0,0.0,0.0,0.0,0.0,0.0,0.0,0.0,0.0,0.0,0.0,0.0,0.0,0.0,0.0,0.0,0.0,0.0,0.0,-1.749,-1.805,0.0,0.0,0.0,0.0,0.0,0.0,0.0,0.0,0.0,0.0,0.0,0.0,0.0,-2.6954,-2.8146,-2.8107,-2.8103,-2.8235,-2.8832,-2.9108,-2.9123,-2.9838,-3.0166,-3.012,-2.9535,0.0,-2.8411,-2.8411,0.0,0.0,0.0,0.0,0.0,0.0,0.0,0.0,0.0,0.0,0.0,0.0,0.0,0.0,0.0,0.0,0.0,0.0,0.0,0.0,0.0,-0.7521,-0.7521,-0.7521,-0.7782,-0.7782,-0.7521,-0.7782,0.0,0.0,0.0,-0.7579,-0.7636,-0.7444,-0.7468,-0.7655,-0.8003,-0.7965,-0.7616,-0.8006,-0.8125,-0.8199,-0.9081,-1.0022,-1.0936,-1.1485,0.0,0.0,0.0,0.0,0.0,0.0,0.0,0.0,0.0,0.0,0.0,0.0,0.0,0.0,0.0,0.0,0.0,0.0,0.0,0.0,0.0,0.0,0.0,0.0,0.0,0.0,0.0,0.0,0.0,0.0,0.0,0.0,0.0,0.0,0.0,0.0,0.0,0.0,0.0,-1.7278,-1.7379,-1.7634,-1.8452,-1.9202,0.0,0.0,0.0,0.0,0.0,0.0,0.0,0.0,0.0,-2.6745,-2.7049,-2.7543,-2.8318,-2.8915,-2.9266,-2.9317,-2.9725,-2.9863,-2.9879,-3.0237,-3.0428,-3.036,-3.0104,-2.9812,-2.9489,-2.8719,-2.8411,-2.8442,0.0,0.0,0.0,0.0,-2.962,-2.9754,0.0,0.0,0.0,0.0,0.0,0.0,0.0,0.0,0.0,0.0,0.0,0.0,-0.7521,-0.7521,-0.7521,-0.7521,-0.7521,-0.7521,-0.7521,-0.7521,-0.7521,-0.7521,-0.7574,-0.7617,-0.7777,-0.7683,-0.7526,-0.7301,-0.7495,-0.7439,-0.7293,-0.7423,-0.7484,-0.7557,-0.8169,-0.9194,-1.0443,-1.093,-1.1451,-1.1998,0.0,0.0,0.0,0.0,0.0,0.0,0.0,0.0,0.0,0.0,0.0,0.0,0.0,0.0,0.0,0.0,0.0,0.0,0.0,0.0,0.0,0.0,0.0,0.0,0.0,0.0,0.0,0.0,0.0,0.0,0.0,0.0,0.0,0.0,0.0,0.0,0.0,-1.7387,-1.7464,-1.7464,-1.8437,-1.9254,0.0,0.0,0.0,0.0,0.0,0.0,-2.4436,-2.4941,-2.572,-2.678,-2.7494,-2.8115,-2.8453,-2.9509,-2.9978,-2.991,-3.0319,-3.0516,-3.0584,-3.0738,-3.0814,-3.0867,-3.0911,-3.0819,-3.0582,-2.9396,-2.8919,-2.8965,-2.9473,-2.9673,-2.977,-3.0243,-3.0428,-3.0531,0.0,0.0,0.0,0.0,0.0,0.0,0.0,0.0,0.0,0.0,0.0,-0.7521,-0.7521,-0.7521,-0.7521,-0.7521,-0.7521,-0.7521,-0.7521,-0.7521,-0.7521,-0.7521,-0.7655,-0.7768,-0.7782,-0.796,-0.7863,-0.7499,-0.7694,-0.771,-0.7472,-0.748,-0.7484,-0.7484,-0.7723,-0.8394,-0.9417,-1.0232,-1.0613,-1.0689,-1.0677,0.0,0.0,0.0,0.0,0.0,0.0,0.0,0.0,0.0,0.0,0.0,0.0,0.0,0.0,0.0,0.0,0.0,0.0,0.0,0.0,0.0,0.0,0.0,0.0,0.0,0.0,0.0,0.0,0.0,0.0,0.0,0.0,0.0,0.0,0.0,0.0,0.0,0.0,-1.7966,-1.8868,0.0,0.0,0.0,0.0,-2.2234,-2.4027,-2.5149,-2.5356,-2.5923,-2.6806,-2.8157,-2.7993,-2.8254,-2.8939,-2.9426,-2.9441,-2.9053,-3.0218,-3.0824,-3.0964,-3.1723,-3.2053,-3.2139,-3.2261,-3.192,-3.1289,-3.0612,-3.032,-3.032,-3.0366,-3.0418,-3.0521,-3.0449,-3.0583,-3.0787,0.0,0.0,0.0,0.0,0.0,0.0,0.0,0.0,-0.7521,-0.7521,-0.7521,-0.7521,-0.7521,-0.7521,-0.7521,-0.7521,-0.7521,-0.7521,-0.7521,-0.7588,-0.753,-0.7126,-0.7656,-0.7972,-0.7964,-0.8092,-0.8001,-0.7702,-0.777,-0.7723,-0.7484,-0.7484,-0.7484,-0.7484,-0.7561,-0.7868,-0.8403,-0.9448,-1.0295,-1.0881,-1.0707,-1.0724,0.0,0.0,0.0,0.0,0.0,0.0,0.0,0.0,0.0,0.0,0.0,0.0,0.0,0.0,0.0,0.0,0.0,0.0,0.0,0.0,0.0,0.0,0.0,0.0,0.0,0.0,0.0,0.0,0.0,0.0,0.0,0.0,0.0,0.0,0.0,0.0,0.0,-1.8403,-1.9056,0.0,-2.0356,-2.1636,-2.2761,-2.3603,-2.4623,-2.5328,-2.5641,-2.5989,-2.6622,-2.7541,-2.7914,-2.8637,-2.9729,-3.083,-3.1243,-3.1001,-3.214,-3.2661,-3.26,-3.2871,-3.3245,-3.3679,-3.3759,-3.3357,-3.2675,-3.2444,-3.1582,-3.0458,-3.0889,-3.1096,-3.1142,-3.1536,-3.1744,-3.1851,0.0,0.0,0.0,0.0,0.0,0.0,0.0,0.0,-0.7521,-0.7521,-0.7521,-0.7521,-0.7521,-0.7521,-0.7521,-0.7521,-0.7521,-0.7555,-0.7626,-0.7702,-0.7537,-0.7047,-0.7367,-0.7633,-0.768,-0.7575,-0.7326,-0.7176,-0.7019,-0.7019,-0.7096,-0.7096,-0.7249,-0.7484,-0.7484,-0.7642,-0.7953,-0.8775,-0.9528,-1.0196,-1.0029,-1.0115,-1.0283,0.0,0.0,0.0,0.0,0.0,0.0,0.0,0.0,0.0,0.0,0.0,0.0,0.0,0.0,0.0,0.0,0.0,0.0,0.0,0.0,0.0,0.0,0.0,0.0,0.0,0.0,0.0,0.0,0.0,0.0,0.0,0.0,0.0,0.0,-1.8165,-1.86,-1.8895,-1.9377,-2.0025,-2.1012,-2.2043,-2.3178,-2.4343,-2.5162,-2.5712,-2.5972,-2.6307,-2.6835,-2.7492,-2.8339,-2.9299,-3.0367,-3.1826,-3.2481,-3.248,-3.3423,-3.3785,-3.3649,-3.3785,-3.404,-3.4358,-3.4552,-3.4275,-3.3767,-3.3767,-3.2982,-3.1782,-3.1736,-3.172,-3.1782,-3.2007,-3.2104,-3.212,0.0,0.0,0.0,0.0,0.0,0.0,-0.7396,-0.7456,-0.7456,-0.7521,-0.7456,-0.7456,-0.7521,-0.7521,-0.7521,-0.7521,-0.7521,-0.7617,-0.7763,-0.7787,-0.7605,-0.7237,-0.6764,-0.6708,-0.6861,-0.6398,-0.6083,-0.5922,-0.5461,-0.5619,-0.6163,-0.6163,-0.663,-0.7484,-0.7484,-0.7714,-0.8102,-0.8102,-0.8255,-0.8403,-0.8627,-0.916,-0.9793,0.0,0.0,0.0,0.0,0.0,0.0,0.0,0.0,0.0,0.0,0.0,0.0,0.0,0.0,0.0,0.0,0.0,0.0,0.0,0.0,0.0,0.0,0.0,0.0,0.0,0.0,0.0,0.0,0.0,0.0,0.0,0.0,0.0,-1.7319,-1.8523,-1.9367,-1.9462,-1.9813,-2.0479,-2.1352,-2.2374,-2.3365,-2.4239,-2.556,-2.6347,-2.6326,-2.7033,-2.7718,-2.8229,-2.9403,-3.0257,-3.0779,-3.2198,-3.3022,-3.324,-3.3819,-3.4046,-3.4046,-3.4424,-3.4408,-3.4121,-3.4649,-3.4722,-3.4506,-3.4506,-3.4491,-3.4337,-3.2967,-3.2428,-3.2373,-3.1724,-3.148,-3.1422,0.0,0.0,0.0,0.0,0.0,0.0,-0.6872,-0.6937,-0.7064,-0.7456,-0.7129,-0.7068,-0.7456,-0.7521,-0.7521,-0.7521,-0.7521,-0.7617,-0.7763,-0.7919,-0.787,-0.7613,-0.6471,-0.621,-0.6861,-0.6163,-0.5774,-0.5922,-0.5386,-0.5467,-0.6163,-0.6163,-0.663,-0.7484,-0.7642,-0.7799,-0.788,-0.8178,-0.8327,-0.8403,-0.8627,-0.8856,-0.8974,0.0,0.0,0.0,0.0,0.0,0.0,0.0,0.0,0.0,0.0,0.0,0.0,0.0,0.0,0.0,0.0,0.0,0.0,0.0,0.0,0.0,0.0,0.0,0.0,0.0,0.0,0.0,0.0,0.0,0.0,0.0,-1.7101,-1.7678,-1.8207,-1.8554,-1.9222,-2.038,-2.0577,-2.0984,-2.1799,-2.3089,-2.403,-2.4389,-2.6065,-2.7165,-2.7413,-2.8226,-2.8919,-2.9336,-2.9957,-3.0593,-3.1185,-3.2594,-3.3647,-3.4349,-3.5322,-3.5722,-3.5553,-3.5845,-3.5922,-3.5815,-3.5938,-3.5722,-3.5214,-3.5214,-3.4922,-3.4383,-3.3475,-3.3121,-3.3003,-3.189,-3.1233,-3.0852,0.0,0.0,0.0,0.0,0.0,0.0,-0.6346,-0.6346,-0.6544,-0.7064,-0.6872,-0.6937,-0.7456,-0.7521,-0.7521,-0.7521,-0.7607,-0.7683,-0.7891,-0.7744,-0.7554,-0.7391,-0.6096,-0.5559,-0.6096,-0.547,-0.5157,-0.5309,-0.4768,-0.4849,-0.5467,-0.5467,-0.5931,-0.6707,-0.7096,-0.7407,-0.7718,-0.8174,-0.8475,-0.8551,-0.8627,-0.8703,-0.868,-0.8481,-0.8481,-0.8679,-0.846,-0.8501,-0.8683,-0.8818,0.0,0.0,0.0,0.0,0.0,0.0,0.0,0.0,0.0,0.0,0.0,0.0,0.0,0.0,0.0,0.0,0.0,0.0,0.0,0.0,0.0,0.0,0.0,0.0,-1.7086,-1.7687,-1.8253,-1.8837,-1.9613,-2.0784,-2.1035,-2.1559,-2.2592,-2.3565,-2.4541,-2.562,-2.7033,-2.804,-2.8617,-2.9305,-2.9752,-2.995,-3.0427,-3.1158,-3.2099,-3.283,-3.3966,-3.5516,-3.5488,-3.5657,-3.6054,-3.58,-3.5958,-3.6289,-3.6289,-3.6137,-3.5907,-3.5568,-3.52,-3.4759,0.0,0.0,0.0,0.0,-3.0962,-3.0182,0.0,0.0,0.0,0.0,0.0,0.0,-0.5756,-0.5888,-0.6086,-0.6609,-0.6675,-0.6806,-0.7456,-0.7456,-0.7456,-0.7521,-0.7636,-0.7829,-0.7962,-0.7248,-0.6758,-0.6758,-0.5625,-0.5018,-0.5018,-0.4621,-0.4384,-0.4384,-0.3997,-0.3995,-0.4462,-0.4462,-0.4927,-0.5699,-0.6237,-0.6857,-0.7561,-0.8093,-0.8475,-0.8703,-0.8703,-0.8703,-0.868,-0.8505,-0.8288,-0.8056,-0.7946,-0.7731,-0.7591,-0.7922,0.0,0.0,0.0,0.0,0.0,0.0,0.0,0.0,0.0,0.0,0.0,0.0,0.0,0.0,0.0,0.0,0.0,0.0,0.0,0.0,0.0,0.0,0.0,0.0,-1.7107,-1.7382,-1.794,-1.9158,-2.0154,-2.0869,-2.1374,-2.2136,-2.3324,-2.3875,-2.4989,-2.6909,-2.7882,-2.8795,-2.9597,-3.021,0.0,0.0,0.0,-3.1763,-3.3059,-3.3016,-3.4027,-3.6085,-3.4714,-3.4647,-3.5767,-3.4942,-3.5008,-3.5831,-3.5831,-3.5958,-3.6211,-3.5544,-3.527,-3.5005,-3.3835,-3.3698,-3.3954,-3.2159,-3.0658,-2.9533,0.0,0.0,0.0,0.0,0.0,0.0,-0.5219,-0.562,-0.6086,-0.6609,-0.6346,-0.6412,-0.7391,-0.7134,-0.7003,-0.7456,-0.7559,-0.7479,-0.7207,-0.6485,-0.5989,-0.5989,-0.5345,-0.5018,-0.5018,-0.4621,-0.4384,-0.4384,-0.3997,-0.4151,-0.4849,-0.4849,-0.5312,-0.6086,-0.6402,-0.6942,-0.748,-0.7783,-0.8241,-0.8703,-0.8703,-0.8703,-0.8699,-0.8661,-0.8406,-0.8146,-0.8388,-0.819,-0.7987,-0.8317,-0.8571,-0.8823,-0.8952,-0.9215,0.0,0.0,0.0,0.0,0.0,0.0,0.0,0.0,0.0,0.0,0.0,0.0,0.0,0.0,0.0,0.0,0.0,0.0,0.0,-1.7332,-1.7245,-1.7382,-1.794,-1.8943,-2.0002,-2.0849,-2.156,-2.2252,-2.3036,-2.4495,-2.5406,-2.5444,-2.7476,-2.8703,-2.8575,-3.0158,-3.1043,-3.0856,-3.1575,-3.2064,-3.2409,-3.2904,-3.3297,-3.3659,-3.4041,0.0,-3.4476,-3.4394,-3.4447,-3.4647,-3.4647,-3.4662,-3.4714,-3.4581,-3.4177,-3.3628,-3.3405,-3.2731,-3.1882,-3.1508,-3.0582,-2.9522,0.0,0.0,0.0,0.0,0.0,0.0,-0.4957,-0.509,-0.5488,-0.6079,-0.602,-0.6218,-0.7134,-0.6872,-0.6937,-0.7456,-0.7357,-0.7234,-0.7155,-0.6335,-0.58,-0.58,-0.5254,-0.5018,-0.5018,-0.4779,-0.4701,-0.4701,-0.4467,-0.4465,-0.4693,-0.4693,-0.4927,-0.5312,-0.5777,-0.6398,-0.7249,-0.7629,-0.8165,-0.8703,-0.8703,-0.8703,-0.8689,-0.859,-0.8354,-0.8136,-0.8379,-0.8265,-0.8052,-0.8571,-0.8894,-0.9017,-0.9215,-0.935,-0.9548,0.0,0.0,0.0,0.0,0.0,0.0,0.0,0.0,0.0,0.0,0.0,0.0,0.0,0.0,-1.6114,-1.7028,0.0,-1.7254,-1.7314,-1.7373,-1.7655,-1.8103,-1.8734,-1.9486,-2.0502,-2.1553,-2.2507,-2.3202,-2.4539,-2.5612,-2.6181,-2.7779,-2.8861,-2.9137,-3.0516,-3.1176,-3.1097,-3.173,-3.2241,-3.2704,-3.2632,-3.2903,-3.3644,-3.3157,-3.3381,-3.407,-3.3478,-3.3547,-3.4192,-3.4124,-3.4109,-3.4245,-3.3891,-3.3367,-3.2662,-3.2779,-3.2333,-3.1764,-3.1774,-3.1211,-3.0405,0.0,0.0,0.0,0.0,0.0,0.0,0.0,-0.4894,-0.5219,-0.5749,-0.6083,-0.6482,-0.7143,-0.6942,-0.7003,-0.7456,-0.7082,-0.6902,-0.718,-0.614,-0.558,-0.5683,-0.522,-0.4993,-0.5018,-0.5018,-0.5018,-0.5018,-0.5018,-0.4859,-0.454,-0.454,-0.454,-0.4543,-0.5002,-0.5777,-0.671,-0.7399,-0.7936,-0.8551,-0.8623,-0.8751,-0.8694,-0.8489,-0.8303,-0.8197,-0.8391,-0.8368,-0.8306,-0.8888,-0.9087,-0.9151,-0.9285,-0.935,-0.935,-0.9414,-0.9687,0.0,0.0,0.0,0.0,0.0,0.0,0.0,0.0,-1.2711,-1.3608,-1.4474,-1.5188,-1.5974,-1.6881,-1.7314,-1.7461,-1.7382,-1.7579,-1.787,-1.8331,-1.8663,-1.9161,-1.9998,-2.1523,-2.2692,-2.3372,-2.4505,-2.5773,-2.715,-2.8086,-2.8959,-2.9626,-3.0633,-3.1158,-3.0996,-3.1643,-3.23,-3.303,-3.23,-3.2632,-3.3837,-3.2431,-3.2431,-3.3659,-3.2605,-3.2747,-3.3742,-3.352,-3.3659,-3.3851,-3.3227,-3.2704,-3.2182,-3.2182,-3.2182,-3.2187,-3.2291,-3.1833,-3.1289,0.0,0.0,0.0,0.0,0.0,0.0,0.0,0.0,-0.6478,-0.6539,-0.7125,-0.7712,-0.8252,-0.7596,-0.7265,-0.7461,-0.6564,-0.6254,-0.6734,-0.5405,-0.4912,-0.5391,-0.5012,-0.4906,-0.5015,-0.5018,-0.5018,-0.5018,-0.5018,-0.494,-0.4937,-0.4937,-0.4937,-0.4937,-0.5015,-0.5401,-0.6015,-0.6707,-0.7322,-0.7936,-0.847,-0.874,-0.8841,-0.8628,-0.8533,-0.8619,-0.9015,-0.9041,-0.8952,-0.935,-0.942,-0.935,-0.8818,-0.8759,-0.8765,-0.8102,-0.8641,-0.9432,-0.9723,-1.059,-1.1283,-1.0901,-1.1345,-1.1937,0.0,-1.2498,-1.2959,-1.3753,-1.4625,-1.5551,-1.6464,-1.7107,-1.7608,-1.7872,-1.7784,-1.787,-1.8331,-1.8879,-1.936,-1.9674,-2.1445,-2.2649,-2.2767,-2.4801,-2.6235,-2.6446,-2.7903,-2.8743,-2.8657,-3.0241,-3.0921,-3.0406,-3.1556,-3.2241,-3.2314,-3.2255,-3.2241,-3.2444,-3.2241,-3.2241,-3.2386,-3.2241,-3.2241,-3.2386,-3.2386,-3.2372,-3.2444,-3.2386,-3.2241,-3.2182,-3.2182,-3.2182,-3.2169,-3.2232,-3.1806,-3.1287,0.0,0.0,0.0,0.0,0.0,0.0,0.0,0.0,0.0,-0.7064,-0.7451,-0.7842,-0.8182,-0.8057,-0.7852,-0.7647,-0.719,-0.6933,-0.7003,-0.6169,-0.5603,-0.532,-0.5313,-0.5153,-0.4909,-0.498,-0.5018,-0.5018,-0.5018,-0.5018,-0.5018,-0.5018,-0.5018,-0.5018,-0.5018,-0.5326,-0.5941,-0.617,-0.671,-0.7322,-0.8161,-0.8491,-0.8432,-0.9014,-0.913,-0.9048,-0.9075,-0.9043,0.0,-0.9414,-0.9484,-0.9478,-0.928,-0.9022,-0.877,-0.8689,-0.8788,-0.9047,-0.9505,-1.007,-1.0574,-1.0845,-1.1169,-1.164,-1.2352,-1.2886,-1.3528,-1.4609,-1.5321,-1.6105,-1.7088,-1.7442,-1.7657,-1.7784,-1.7862,-1.8104,-1.8792,-1.9107,-1.9467,-2.0005,-2.1273,-2.236,-2.282,-2.4284,-2.5599,-2.6598,-2.7621,-2.8252,-2.8486,-2.9574,-3.0024,-2.9793,-3.1009,-3.1629,-3.1629,-3.2023,-3.2182,-3.2182,-3.2109,-3.2109,-3.2182,-3.1963,-3.189,-3.2036,-3.2182,-3.2182,-3.2182,-3.2182,-3.2182,-3.2182,-3.2182,-3.2182,-3.2182,-3.2182,-3.2019,-3.1802,0.0,0.0,0.0,0.0,0.0,0.0,0.0,0.0,0.0,0.0,-0.7972,-0.8236,-0.8242,-0.8506,-0.8441,-0.7972,-0.7772,-0.7647,-0.7596,-0.6998,-0.6483,-0.6054,-0.5851,-0.5568,-0.5202,-0.507,-0.4982,-0.5018,-0.5018,-0.5018,-0.5018,-0.5018,-0.5018,-0.5018,-0.5093,-0.5323,-0.5786,-0.6018,-0.6405,-0.6861,-0.7719,-0.8031,-0.7984,-0.8915,-0.9242,-0.9075,-0.915,-0.9151,-0.9151,-0.9215,-0.9414,-0.9484,-0.9087,-0.8829,-0.8635,-0.849,-0.8506,-0.8679,-0.9077,-0.9522,-1.0045,-1.0651,-1.1031,-1.1484,-1.2452,-1.3324,-1.4106,-1.4966,-1.5886,-1.6655,-1.7354,-1.7638,-1.7784,-1.7784,-1.793,-1.8311,-1.917,-1.9287,-1.9609,-2.0314,-2.1242,-2.2134,-2.2957,-2.3932,-2.5205,-2.6812,-2.7428,-2.7945,-2.8474,-2.904,-2.9419,-2.9419,-3.0393,-3.0996,-3.122,-3.1703,-3.2023,-3.2182,-3.2036,-3.2036,-3.2182,-3.189,-3.1817,-3.1963,-3.2109,-3.2182,-3.2182,-3.2182,-3.2182,-3.2182,-3.2182,-3.2182,-3.2182,-3.2182,-3.2182,-3.2182,0.0,0.0,0.0,0.0,0.0,0.0,0.0,0.0,0.0,0.0,0.0,0.0,0.0,-0.8952,-0.8829,-0.8511,-0.7977,-0.7907,-0.8447,-0.7461,-0.7149,-0.7822,-0.668,-0.6075,-0.6084,-0.5426,-0.5045,-0.5018,-0.5018,-0.5018,-0.5018,-0.5018,-0.5018,-0.5018,-0.5168,-0.5321,-0.5398,-0.6251,-0.6563,-0.6626,-0.7139,-0.7398,-0.7562,-0.8123,-0.8445,-0.863,-0.9285,-0.9484,-0.9414,-0.8753,-0.9081,-0.9408,-0.7456,-0.7456,-0.7972,-0.6671,-0.7205,-0.8221,-0.808,-0.8958,-0.9965,-1.019,-1.0801,-1.1632,-1.2673,-1.3615,-1.4266,-1.4346,-1.5675,-1.6862,-1.6932,-1.751,-1.8008,-1.8008,-1.8008,-1.8311,-1.917,-1.9287,-1.9609,-2.0469,-2.1318,-2.2134,-2.2957,-2.4123,-2.5471,-2.6812,-2.7428,-2.7945,-2.8474,-2.904,-2.9419,-2.9419,-3.0012,-3.062,-3.122,-3.122,-3.1542,-3.2182,-3.2182,-3.2182,-3.2182,-3.2182,-3.2182,-3.2182,-3.2182,-3.2182,-3.2182,-3.2182,-3.2182,-3.2182,-3.2182,-3.2182,-3.2182,-3.2182,-3.2182,-3.2182,0.0,0.0,0.0,0.0,0.0,0.0,0.0,0.0,0.0,0.0,0.0,0.0,0.0,0.0,0.0,0.0,-0.9022,-0.8888,-0.8829,-0.8495,-0.8138,-0.7815,-0.7005,-0.6444,-0.6072,-0.5555,-0.5301,-0.5275,-0.5363,-0.5404,-0.5404,-0.5404,-0.5404,-0.5404,-0.5482,-0.5479,-0.5479,-0.5789,-0.5889,-0.5872,-0.6708,-0.6881,-0.6826,-0.765,-0.7898,-0.7907,0.0,-0.9017,-0.9028,-0.8765,-0.863,-0.8506,-0.7912,-0.7722,-0.7536,-0.6613,-0.6873,-0.7446,-0.7513,-0.8019,-0.8775,-1.0115,-1.0565,-1.1242,-1.2746,-1.3695,-1.4482,-1.5108,-1.6097,-1.7079,-1.751,-1.7794,-1.8008,-1.8008,-1.8008,-1.8203,-1.8779,-1.9102,-1.9502,-2.0068,-2.0688,-2.1538,-2.2883,-2.4123,-2.5471,-2.6812,-2.7428,-2.7945,-2.8474,-2.8657,-2.8816,-2.8816,-2.9419,-2.9793,-3.0012,-3.0771,-3.1307,-3.1542,-3.2023,-3.2182,-3.2182,-3.2182,-3.2182,-3.2182,-3.2182,-3.2182,-3.2182,-3.2182,-3.2182,-3.2182,-3.2182,-3.2182,-3.2182,-3.2182,-3.2182,-3.2182,0.0,0.0,0.0,0.0,0.0,0.0,0.0,0.0,0.0,0.0,0.0,0.0,0.0,0.0,0.0,0.0,0.0,-0.9414,-0.9215,-0.9151,-0.8952,-0.8361,-0.7841,-0.7377,-0.7038,-0.6328,-0.5972,-0.5954,-0.5745,-0.5637,-0.5637,-0.5637,-0.561,-0.5564,-0.5637,-0.5613,-0.5569,-0.5642,-0.5588,-0.5574,-0.6172,-0.6313,-0.6127,-0.7,-0.7233,0.0,-0.8027,-0.8296,-0.8247,-0.8436,-0.8306,-0.7982,-0.7582,-0.733,-0.7016,-0.6683,-0.6809,-0.7162,-0.7304,-0.7877,-0.8703,-1.0265,-1.0783,-1.1459,-1.2966,-1.3912,-1.4617,-1.5534,-1.6376,-1.7148,-1.7862,-1.8008,-1.8008,-1.8008,-1.8008,-1.8154,-1.8504,-1.9014,-1.9443,-1.9863,-2.0817,-2.1832,-2.2883,-2.4602,-2.5993,-2.6836,-2.7428,-2.7945,-2.8474,-2.851,-2.851,-2.851,-2.8895,-2.9263,-2.9716,-3.0469,-3.1084,-3.1542,-3.2009,-3.2182,-3.2182,-3.2182,-3.2182,-3.2182,-3.2182,-3.2182,-3.2182,-3.2182,-3.2182,-3.2182,-3.2182,-3.2182,-3.2182,-3.2182,-3.2023,-3.1863,0.0,0.0,0.0,0.0,0.0,0.0,0.0,0.0,0.0,0.0,0.0,0.0,0.0,0.0,0.0,0.0,0.0,0.0,-0.9484,-0.9484,-0.9484,-0.9484,-0.9119,-0.8879,-0.8829,-0.7607,-0.6982,-0.7003,-0.6093,-0.5715,-0.5715,-0.5637,-0.5567,-0.5442,-0.566,-0.5664,-0.5541,-0.5745,-0.581,-0.5789,-0.5647,-0.5586,-0.5631,-0.6136,-0.647,-0.6736,-0.7447,-0.7451,-0.7199,-0.7772,-0.8032,-0.7907,-0.6605,-0.6284,-0.6486,-0.6745,-0.7005,-0.7291,-0.7446,-0.8377,-0.9583,-1.0559,-1.1452,-1.2278,-1.3266,-1.4049,-1.4744,-1.5525,-1.6306,-1.7079,-1.7872,-1.8008,-1.8008,-1.8008,-1.8008,-1.8144,-1.8555,-1.8994,-1.9434,-1.9909,-2.169,-2.2957,-2.3021,-2.5373,-2.686,-2.6935,-2.744,-2.7981,-2.8486,-2.851,-2.851,-2.851,-2.851,-2.904,-3.0165,-3.0254,-3.0934,-3.2169,-3.2169,-3.2182,-3.2182,-3.2182,-3.2182,-3.2182,-3.2182,-3.2182,-3.2182,-3.2182,-3.2182,-3.2182,-3.2169,-3.2169,-3.2169,-3.2096,-3.1703,-3.1145,0.0,0.0,0.0,0.0,0.0,0.0,0.0,0.0,0.0,0.0,0.0,0.0,0.0,0.0,0.0,0.0,0.0,0.0,-0.9484,-0.9484,-0.9484,-0.9484,-0.9119,-0.8867,-0.8858,-0.8337,-0.8111,-0.8092,-0.7339,-0.7022,-0.7022,-0.6412,-0.6086,-0.6046,-0.6123,-0.6103,-0.6063,-0.602,-0.5905,-0.5789,-0.5647,-0.5521,-0.5483,-0.5697,-0.5745,-0.5939,-0.7512,-0.7321,-0.6474,-0.7195,-0.7134,-0.6806,-0.6482,-0.635,-0.6486,-0.6815,-0.6983,-0.7203,-0.7624,-0.8491,-0.9611,-1.0754,-1.1626,-1.2445,-1.3273,-1.3637,-1.4129,-1.5463,-1.5886,-1.6376,-1.7725,-1.8008,-1.8008,-1.8008,-1.8008,-1.8047,-1.8154,-1.8818,-1.9535,-2.0277,-2.1428,-2.2574,-2.3672,-2.5136,-2.6218,-2.686,-2.7789,-2.8366,-2.8498,-2.851,-2.851,-2.851,-2.851,-2.8669,-2.8961,-2.9871,-3.0696,-3.1468,-3.1936,-3.2182,-3.2182,-3.2182,-3.2182,-3.2182,-3.2182,-3.2182,-3.2182,-3.2182,-3.2182,-3.2169,-3.1629,-3.1468,-3.1381,-3.0934,-3.0709,-3.0469,0.0,0.0,0.0,0.0,0.0,0.0,0.0,0.0,0.0,0.0,0.0,0.0,0.0,0.0,0.0,0.0,0.0,0.0,0.0,-0.9484,-0.9484,-0.9484,-0.9389,-0.9372,-0.9542,-0.9143,-0.9018,-0.9119,-0.8415,-0.7863,-0.7484,-0.7026,-0.6605,-0.6159,-0.6159,-0.6088,-0.5959,-0.5874,-0.5749,0.0,0.0,-0.5568,-0.5488,-0.5686,-0.5943,-0.6326,-0.7377,-0.7386,-0.6937,-0.7335,-0.7007,-0.642,-0.642,-0.642,-0.6486,-0.6815,-0.7216,-0.7751,-0.8308,-0.9373,-1.0629,-1.1415,-1.2224,-1.2973,-1.3419,-1.3492,-1.392,-1.5392,-1.5675,-1.6167,-1.7725,-1.8008,-1.8008,-1.8008,-1.8008,-1.8008,-1.8008,-1.9023,-1.9991,-2.0481,-2.1859,-2.3246,-2.4345,-2.5501,-2.6476,-2.7184,-2.8041,-2.851,-2.851,-2.851,-2.851,-2.851,-2.851,-2.8736,-2.9263,-2.9947,-3.0784,-3.1629,-3.1703,-3.1936,-3.2182,-3.2182,-3.2182,-3.2182,-3.2182,-3.2009,-3.1776,-3.1776,-3.1629,-3.132,-3.0934,-3.0771,-3.0771,-3.0393,-3.0088,-2.9871,0.0,0.0,0.0,0.0,0.0,0.0,0.0,0.0,0.0,0.0,0.0,0.0,0.0,0.0,0.0,0.0,0.0,0.0,0.0,0.0,-0.9484,-0.9484,-0.973,-0.9976,-1.0272,-0.9845,-0.9799,-1.0024,-0.9216,-0.847,-0.7633,-0.7561,-0.6931,-0.603,-0.603,-0.5878,-0.5686,-0.5669,-0.5579,-0.5522,-0.5627,-0.5617,-0.5683,0.0,-0.6465,-0.7107,-0.7517,-0.7857,-0.8127,-0.7722,-0.7068,-0.6416,-0.6412,-0.6408,-0.6474,-0.7003,-0.7787,-0.8591,-0.9275,-1.0554,-1.1877,-1.2218,-1.29,-1.3499,-1.363,-1.3637,-1.4057,-1.5534,-1.5886,-1.6306,-1.7725,-1.8008,-1.8008,-1.8008,-1.8008,-1.8008,-1.8144,-1.9493,-2.0542,-2.0755,-2.2789,-2.4315,-2.4969,-2.6214,-2.7152,-2.7681,-2.821,-2.851,-2.851,-2.851,-2.851,-2.851,-2.851,-2.904,-3.0024,-3.0165,-3.0784,-3.195,-3.1468,-3.1542,-3.2182,-3.2182,-3.2182,-3.2182,-3.2096,-3.1703,-3.122,-3.1071,-3.0771,-3.0317,-3.0241,-3.0177,-3.0165,-3.0101,-2.9716,-2.9263,0.0,0.0,0.0,0.0,0.0,0.0,0.0,0.0,0.0,0.0,-0.9484,-0.9484,0.0,0.0,0.0,0.0,0.0,0.0,0.0,0.0,0.0,-0.9484,-0.973,-0.9892,-0.994,-1.0331,-1.0527,-1.0574,-0.9969,-0.9311,-0.8475,-0.7787,-0.6931,-0.603,-0.6172,-0.6148,-0.6047,-0.5989,-0.5986,-0.5949,-0.5877,-0.5822,-0.5954,-0.6662,0.0,0.0,-0.9085,-1.0032,-0.9771,-0.7445,-0.6551,-0.64,-0.6375,-0.6424,-0.6681,-0.8205,-0.8975,-0.9384,-0.9971,-1.0823,-1.1686,-1.2164,-1.29,-1.363,-1.4258,-1.4394,-1.4816,-1.6376,-1.6724,-1.6941,-1.7862,-1.8008,-1.8008,-1.8008,-1.8008,-1.8202,-1.8721,-1.9761,-2.0966,-2.2149,-2.3359,-2.4533,-2.5815,-2.6524,-2.7152,-2.7681,-2.821,-2.851,-2.851,-2.851,-2.851,-2.851,-2.851,-2.859,-2.8816,-2.9341,-2.9947,-3.0633,-3.1009,-3.1542,-3.2182,-3.2182,-3.2182,-3.2169,-3.1616,-3.1307,-3.1145,-3.062,-3.0393,-3.0241,-2.9716,-2.9574,-2.9496,-2.8961,-2.8736,-2.8657,0.0,0.0,0.0,0.0,0.0,0.0,0.0,-0.9484,-0.9484,-0.9484,-0.9484,-0.9484,-0.9484,-0.9484,-0.9484,0.0,0.0,0.0,0.0,0.0,0.0,-0.9484,-0.9604,-0.973,-0.9868,-1.0119,-1.0447,-1.0719,0.0,-0.9793,-0.8846,-0.8355,-0.7439,-0.6325,-0.6309,-0.6259,-0.6113,-0.6106,-0.6089,-0.6004,-0.6051,-0.628,-0.6601,-0.719,0.0,0.0,-0.9893,-1.0591,-1.0379,-0.9046,-0.8613,-0.8317,-0.6858,-0.7395,-0.8759,-0.9771,-1.0039,-1.013,-1.074,-1.1592,-1.2389,-1.2781,-1.3477,-1.4194,-1.453,-1.4887,-1.5525,-1.6655,-1.6932,-1.7148,-1.7862,-1.8008,-1.8008,-1.8008,-1.8269,-1.8654,-1.8977,-2.0293,-2.1585,-2.2604,-2.3642,-2.4874,-2.6344,-2.6779,-2.7272,-2.8065,-2.8366,-2.851,-2.851,-2.851,-2.851,-2.851,-2.851,-2.8669,-2.8961,-2.8961,-2.9419,-3.0317,-3.062,-3.1084,-3.1703,-3.2023,-3.2182,-3.2169,-3.1468,-3.0996,-3.0696,-3.0101,-2.9639,-2.9341,-2.904,-2.8961,-2.8895,-2.859,-2.851,-2.851,0.0,0.0,0.0,0.0,0.0,0.0,0.0,-0.9484,-0.9484,-0.9484,-0.9484,-0.9484,-0.9484,-0.9484,-0.9484,0.0,0.0,0.0,0.0,0.0,0.0,0.0,0.0,0.0,-0.9784,0.0,0.0,-1.0621,-1.0682,0.0,0.0,0.0,0.0,0.0,-0.638,-0.6235,-0.6154,-0.6154,-0.6079,0.0,0.0,-0.6798,-0.7312,0.0,0.0,0.0,0.0,-1.0595,-1.0571,-1.0615,-1.0698,-1.0437,-0.8201,-0.9035,-1.088,-1.1135,-1.1009,-1.0956,-1.1533,-1.2462,-1.3286,-1.3621,-1.4258,-1.4887,-1.5021,-1.5525,-1.6167,-1.6941,-1.7148,-1.7295,-1.7872,-1.8008,-1.8076,-1.8202,-1.8654,-1.911,-1.9431,-2.083,-2.2131,-2.2852,-2.3854,-2.5155,-2.6779,-2.6935,-2.7368,-2.8426,-2.851,-2.851,-2.851,-2.851,-2.851,-2.851,-2.851,-2.8736,-2.9197,-2.8736,-2.9118,-3.0317,-3.0317,-3.062,-3.1233,-3.1776,-3.1936,-3.179,-3.1084,-3.0545,-3.0088,-2.9496,-2.8961,-2.851,-2.851,-2.851,-2.851,-2.851,-2.851,-2.851,0.0,0.0,0.0,0.0,0.0,0.0,0.0,-0.9484,-0.9484,-0.9484,-0.9484,-0.9484,-0.9484,-0.9484,-0.9484,0.0,0.0,0.0,0.0,0.0,0.0,0.0,0.0,0.0,0.0,0.0,0.0,-1.0281,-1.0523,0.0,0.0,0.0,0.0,0.0,0.0,-0.6335,-0.6172,-0.6308,0.0,0.0,0.0,0.0,0.0,0.0,0.0,0.0,0.0,-1.0624,-1.0631,-1.0604,-1.1017,-1.1437,-1.1199,-1.1304,-1.1495,-1.1563,-1.1774,-1.2087,-1.2371,-1.321,-1.4095,-1.4443,-1.5029,-1.5807,-1.6507,-1.6724,-1.701,-1.7725,-1.7872,-1.794,-1.8008,-1.8008,-1.8202,-1.8777,-1.8977,-1.9431,-2.0741,-2.1495,-2.2341,-2.3568,-2.4138,-2.5155,-2.6779,-2.6935,-2.7368,-2.8426,-2.851,-2.851,-2.851,-2.851,-2.851,-2.851,-2.851,-2.851,-2.859,-2.851,-2.9118,-3.0317,-3.0317,-3.062,-3.122,-3.1233,-3.0996,-3.0469,-2.9793,-2.9561,-2.9419,-2.8816,-2.859,-2.851,-2.851,-2.851,-2.851,-2.851,-2.851,-2.851,0.0,0.0,0.0,0.0,0.0,0.0,-0.9484,-0.9484,-0.9484,-0.9484,-0.9484,-0.9484,-0.9484,-0.9484,-0.9484,-0.9484,0.0,0.0,0.0,0.0,0.0,0.0,0.0,0.0,0.0,0.0,-0.87,-0.9449,-0.9208,0.0,0.0,0.0,0.0,0.0,0.0,-0.6348,-0.635,-0.635,0.0,0.0,0.0,0.0,0.0,0.0,0.0,0.0,0.0,0.0,-1.0877,-1.2829,-1.2672,-1.1589,-1.1626,-1.1973,-1.2352,-1.2165,-1.2798,-1.3537,-1.3468,-1.4271,-1.513,-1.5209,-1.5877,-1.6515,-1.6793,-1.7217,-1.7647,-1.794,-1.8008,-1.8134,-1.8529,-1.8586,-1.8854,-1.9573,-2.002,-2.0473,-2.0996,-2.1637,-2.2479,-2.3664,-2.3941,-2.4819,-2.6755,-2.6935,-2.7368,-2.8426,-2.851,-2.851,-2.851,-2.851,-2.851,-2.851,-2.851,-2.851,-2.851,-2.851,-2.8736,-2.9184,-2.9561,-2.9871,-3.0088,-3.0469,-3.0545,-3.0254,-2.9639,-2.9419,-2.9341,-2.8736,-2.851,-2.851,-2.851,-2.851,-2.851,-2.851,-2.851,-2.851,0.0,0.0,0.0,0.0,0.0,-0.9087,-0.942,-0.9484,-0.9484,-0.9484,-0.9484,-0.942,-0.9215,-0.9215,-0.9285,-0.9502,-0.949,0.0,0.0,0.0,0.0,0.0,0.0,0.0,0.0,0.0,-0.7785,-0.866,-0.8261,-0.7875,0.0,0.0,-0.7211,-0.6607,0.0,0.0,0.0,0.0,0.0,0.0,0.0,0.0,0.0,0.0,0.0,0.0,0.0,0.0,0.0,0.0,0.0,-1.2647,-1.2251,-1.2642,-1.3194,-1.2711,-1.3502,-1.4446,-1.4285,-1.5154,-1.6018,-1.6018,-1.6655,-1.7226,-1.7226,-1.7647,-1.8076,-1.8269,-1.8269,-1.8529,-1.9177,-1.9309,-1.9573,-2.0291,-2.0805,-2.1198,-2.1388,-2.1862,-2.2582,-2.364,-2.3773,-2.453,-2.6502,-2.6971,-2.7536,-2.8438,-2.851,-2.851,-2.851,-2.851,-2.851,-2.851,-2.851,-2.851,-2.851,-2.851,-2.859,-2.8736,-2.9197,-2.9419,-2.9419,-2.9871,-2.9947,-2.9716,-2.9341,-2.9118,-2.9118,-2.8657,-2.851,-2.851,-2.851,-2.851,-2.851,-2.851,-2.851,-2.851,0.0,0.0,0.0,0.0,0.0,0.0,-0.942,-0.9484,-0.9484,-0.9484,-0.9484,-0.9215,-0.8554,-0.849,-0.877,-0.9473,-0.9508,0.0,0.0,0.0,0.0,0.0,0.0,0.0,0.0,0.0,-0.7582,-0.8027,-0.8027,-0.7842,-0.7531,-0.7526,-0.7138,-0.642,0.0,0.0,0.0,0.0,0.0,0.0,0.0,0.0,0.0,0.0,0.0,0.0,0.0,0.0,0.0,0.0,0.0,0.0,0.0,-1.377,-1.3917,-1.3144,-1.3688,-1.4632,-1.4632,-1.5712,-1.6862,-1.6862,-1.7432,-1.8008,-1.8008,-1.8008,-1.8202,-1.8844,-1.8977,-1.9233,-1.9966,-2.0107,-2.0291,-2.0996,-2.1123,-2.1325,-2.2061,-2.2197,-2.2582,-2.364,-2.3773,-2.4386,-2.5961,-2.7079,-2.7933,-2.8474,-2.851,-2.851,-2.851,-2.851,-2.851,-2.851,-2.851,-2.851,-2.851,-2.851,-2.8816,-2.9419,-2.9419,-2.9419,-2.9419,-2.9419,-2.9118,-2.851,-2.851,-2.851,-2.851,-2.851,-2.851,-2.851,-2.851,-2.851,-2.851,-2.851,-2.851,-2.851,0.0,0.0,0.0,0.0,0.0,0.0,0.0,-0.8242,-0.8042,-0.8042,-0.8317,-0.8463,-0.8262,-0.7089,-0.6473,-0.6677,-0.8398,0.0,0.0,0.0,0.0,0.0,0.0,0.0,0.0,0.0,-0.6408,-0.7195,-0.6736,-0.6539,-0.6539,-0.6675,-0.6613,-0.642,-0.642,-0.642,0.0,0.0,0.0,0.0,0.0,0.0,-1.0624,0.0,0.0,0.0,0.0,0.0,0.0,0.0,0.0,0.0,0.0,0.0,0.0,-1.407,-1.4417,-1.5052,-1.559,-1.6476,-1.7302,-1.758,-1.7794,-1.8144,-1.8586,-1.8654,-1.8921,-1.9573,-1.977,-1.9966,-2.0677,-2.0805,-2.1008,-2.1726,-2.1862,-2.1925,-2.2185,-2.2498,-2.2991,-2.3688,-2.4711,-2.5709,-2.6586,-2.7308,-2.7945,-2.8474,-2.851,-2.851,-2.851,-2.851,-2.851,-2.851,-2.851,-2.851,-2.851,-2.851,-2.859,-2.8816,-2.8816,-2.8816,-2.8816,-2.8816,-2.8657,-2.851,-2.851,-2.851,-2.851,-2.851,-2.851,-2.851,-2.851,-2.851,-2.851,-2.851,-2.851,-2.851,0.0,0.0,0.0,0.0,0.0,0.0,0.0,-0.7587,-0.7386,-0.7316,-0.7596,-0.7736,-0.7475,-0.6441,-0.569,-0.5422,-0.6937,0.0,0.0,0.0,0.0,0.0,0.0,0.0,-0.5373,-0.5404,-0.5683,-0.6276,-0.6083,-0.6083,-0.6214,-0.635,-0.642,-0.642,-0.642,-0.642,0.0,0.0,0.0,0.0,0.0,0.0,-1.0624,0.0,0.0,0.0,0.0,0.0,0.0,0.0,0.0,0.0,0.0,0.0,0.0,0.0,-1.5065,-1.5523,-1.6197,-1.691,-1.7546,-1.8228,-1.8202,-1.8269,-1.9177,-1.9177,-1.9243,-2.0085,-2.042,-2.0677,-2.1198,-2.1463,-2.1663,-2.2123,-2.2197,-2.2258,-2.2462,-2.2775,-2.3244,-2.3965,-2.5083,-2.6093,-2.6863,-2.7236,-2.7729,-2.845,-2.851,-2.851,-2.851,-2.851,-2.851,-2.851,-2.851,-2.851,-2.851,-2.851,-2.851,-2.851,-2.851,-2.851,-2.851,-2.851,-2.851,-2.851,-2.851,-2.851,0.0,-2.851,-2.851,-2.851,-2.851,-2.851,-2.851,-2.851,-2.851,-2.851,0.0,0.0,0.0,0.0,0.0,0.0,0.0,-0.7381,-0.719,-0.7116,-0.7186,-0.6994,-0.64,-0.6334,-0.6059,-0.5446,0.0,0.0,0.0,0.0,0.0,0.0,0.0,0.0,-0.5428,-0.5415,-0.5411,-0.5411,-0.5877,-0.621,-0.642,-0.642,-0.6424,-0.6436,-0.6424,-0.6416,0.0,0.0,0.0,0.0,0.0,0.0,0.0,0.0,0.0,0.0,0.0,0.0,0.0,0.0,0.0,0.0,0.0,0.0,0.0,0.0,0.0,0.0,0.0,-1.7051,-1.7668,-1.8731,-1.8529,-1.8462,-1.9835,-1.9639,0.0,-2.0462,-2.0921,-2.1262,-2.1651,-2.1987,-2.2197,-2.2197,-2.2197,-2.2378,-2.2907,-2.3039,-2.346,-2.4458,-2.5011,-2.5733,-2.6827,-2.6935,-2.7368,-2.8426,-2.851,-2.851,-2.851,-2.851,-2.851,-2.851,-2.851,-2.851,-2.851,-2.851,-2.851,-2.851,-2.851,-2.851,-2.851,-2.851,-2.851,-2.851,-2.851,-2.851,-2.851,-2.851,-2.851,-2.851,-2.851,-2.851,-2.851,-2.851,-2.851,-2.851,0.0,0.0,0.0,0.0,0.0,0.0,0.0,0.0,0.0,0.0,-0.5818,-0.5818,-0.5624,-0.562,-0.5554,0.0,0.0,0.0,0.0,0.0,0.0,0.0,0.0,0.0,-0.5428,-0.5415,-0.5411,-0.5411,-0.5741,-0.6075,-0.642,-0.642,-0.6497,-0.6695,-0.6485,-0.6793,0.0,0.0,0.0,0.0,0.0,0.0,0.0,0.0,0.0,0.0,-1.3604,-1.3735,0.0,0.0,0.0,0.0,0.0,0.0,0.0,0.0,-1.5504,-1.6049,-1.7225,0.0,-1.7668,-1.8731,-1.8911,-1.911,0.0,-2.0741,-2.0805,-2.1325,-2.1714,-2.1925,-2.1714,-2.1987,-2.2197,-2.2197,-2.2197,-2.2378,-2.2907,-2.3652,-2.4398,-2.5047,-2.5228,-2.5733,-2.6827,-2.6935,-2.7368,-2.8426,-2.851,-2.851,-2.851,-2.851,-2.851,-2.851,-2.851,-2.851,-2.851,-2.851,-2.851,-2.851,-2.851,-2.851,-2.851,-2.851,-2.851,-2.851,-2.851,-2.851,-2.851,-2.851,-2.851,-2.851,-2.851,-2.851,-2.851,-2.851,-2.851,-2.851,0.0,0.0,0.0,0.0,0.0,0.0,0.0,0.0,0.0,0.0,0.0,0.0,0.0,0.0,0.0,0.0,0.0,0.0,0.0,0.0,0.0,0.0,0.0,-0.5428,-0.5428,-0.5415,-0.5547,-0.5888,-0.6013,-0.6214,-0.642,-0.642,-0.6451,-0.6623,-0.6458,-0.6668,0.0,0.0,0.0,0.0,-1.0826,0.0,0.0,0.0,0.0,0.0,-1.3857,-1.3985,0.0,-1.4784,-1.4911,-1.4784,0.0,0.0,0.0,0.0,-1.5749,-1.6282,-1.7564,-1.7787,-1.7976,-1.938,-1.9507,-1.9649,-2.1071,-2.1123,-2.0996,-2.14,-2.1726,-2.18,-2.1273,-2.1926,-2.2495,-2.2369,-2.2699,-2.3099,-2.3616,-2.4374,-2.4987,-2.5276,-2.5528,-2.5997,-2.6851,-2.7152,-2.7633,-2.845,-2.851,-2.851,-2.851,-2.851,-2.851,-2.851,-2.851,-2.851,-2.851,-2.851,-2.851,-2.851,-2.851,-2.851,-2.851,-2.851,-2.851,-2.851,-2.851,-2.851,-2.851,-2.851,-2.851,-2.851,-2.851,-2.851,-2.851,-2.851,-2.851,-2.851,0.0,0.0,0.0,0.0,0.0,0.0,0.0,0.0,0.0,0.0,0.0,0.0,0.0,0.0,0.0,0.0,0.0,0.0,0.0,0.0,0.0,0.0,-0.5362,-0.5428,-0.5428,-0.5415,-0.5683,-0.6234,-0.6358,-0.642,-0.642,-0.642,-0.6447,-0.6486,-0.6533,-0.6476,0.0,0.0,0.0,0.0,-1.1219,0.0,0.0,0.0,0.0,0.0,0.0,0.0,0.0,-1.5029,-1.5088,-1.5029,-1.5029,0.0,0.0,0.0,0.0,0.0,-1.7852,-1.8197,-1.8568,-2.0105,-2.0096,-1.9987,-2.1336,-2.1123,-2.0805,-2.1031,-2.1411,-2.1423,-2.0929,-2.1952,-2.2886,-2.2698,-2.3412,-2.4037,-2.4458,-2.4975,-2.5336,-2.542,-2.5817,-2.6346,-2.6995,-2.7464,-2.7945,-2.8474,-2.851,-2.851,-2.851,-2.851,-2.851,-2.851,-2.851,-2.851,-2.851,-2.851,-2.851,-2.851,-2.851,-2.851,-2.851,-2.851,-2.851,-2.851,-2.851,-2.851,-2.851,-2.851,-2.851,-2.851,-2.851,-2.851,-2.851,-2.851,-2.851,-2.851,0.0,0.0,0.0,0.0,0.0,0.0,0.0,0.0,0.0,0.0,0.0,0.0,0.0,0.0,0.0,0.0,0.0,0.0,0.0,0.0,0.0,-0.4486,-0.509,-0.5428,-0.5428,-0.5415,-0.5477,-0.5547,-0.6148,-0.642,-0.642,-0.642,-0.658,-0.6911,-0.7186,-0.6965,-0.665,0.0,0.0,0.0,-1.1855,0.0,0.0,0.0,0.0,0.0,0.0,0.0,0.0,-1.4775,-1.4902,-1.5029,-1.5245,0.0,0.0,0.0,0.0,0.0,-1.8301,-1.9018,-1.9444,-2.002,-2.0096,-2.0237,-2.1094,-2.1221,-2.1019,-2.0764,-2.1031,-2.1348,-2.1632,-2.2185,-2.2811,-2.3514,-2.4073,-2.4434,-2.4506,-2.4975,-2.548,-2.5925,-2.6045,-2.649,-2.75,-2.7669,-2.7945,-2.8474,-2.851,-2.851,-2.851,-2.851,-2.851,-2.851,-2.851,-2.851,-2.851,-2.851,-2.851,-2.851,-2.851,-2.851,-2.851,-2.851,-2.851,-2.851,-2.851,-2.851,-2.851,-2.851,-2.851,-2.851,-2.851,-2.851,-2.851,-2.851,-2.851,-2.851,0.0,0.0,0.0,0.0,0.0,0.0,0.0,0.0,0.0,0.0,0.0,0.0,0.0,0.0,0.0,0.0,0.0,0.0,0.0,0.0,-0.4486,-0.3751,-0.442,-0.5024,-0.5362,-0.5422,-0.5418,-0.5411,-0.609,-0.6428,-0.6424,-0.6403,-0.6696,-0.7271,-0.7465,-0.8259,-0.9623,-1.0283,0.0,0.0,0.0,0.0,0.0,0.0,0.0,0.0,0.0,0.0,0.0,0.0,-1.4951,-1.5186,-1.5059,0.0,0.0,0.0,0.0,0.0,-1.8623,-1.9265,-1.9735,-2.0379,-2.0435,-2.0431,-2.0775,-2.1118,-2.1178,-2.0702,-2.1,-2.13,-2.1232,-2.2147,-2.3266,-2.4402,-2.4795,-2.4939,-2.4939,-2.5396,-2.5817,-2.6069,-2.661,-2.7176,-2.7669,-2.7981,-2.8246,-2.8498,-2.851,-2.851,-2.851,-2.851,-2.851,-2.851,-2.851,-2.851,-2.851,-2.851,-2.851,-2.851,-2.851,-2.851,-2.851,-2.851,-2.851,-2.851,-2.851,-2.851,-2.851,-2.851,-2.851,-2.851,-2.851,-2.851,-2.851,-2.851,-2.851,-2.851,0.0,0.0,0.0,0.0,0.0,0.0,0.0,0.0,0.0,0.0,0.0,0.0,0.0,0.0,0.0,0.0,0.0,0.0,0.0,0.0,-0.3951,-0.3215,-0.3885,-0.4486,-0.4891,-0.5226,-0.5425,-0.5481,-0.6028,-0.6296,-0.6428,-0.6422,-0.68,-0.7489,-0.7298,-0.8872,-1.1417,-0.985,-1.0089,0.0,0.0,0.0,0.0,0.0,0.0,0.0,0.0,0.0,0.0,0.0,0.0,0.0,0.0,0.0,0.0,-1.6769,-1.742,-1.8133,-1.9158,-1.977,-2.0232,-2.0869,-2.0864,-2.0718,-2.0829,-2.1074,-2.1163,-2.0763,-2.0907,-2.1063,-2.0962,-2.2407,-2.3906,-2.498,-2.5241,-2.5348,-2.548,-2.5841,-2.619,-2.6442,-2.7212,-2.7765,-2.7897,-2.827,-2.851,-2.851,-2.851,-2.851,-2.851,-2.851,-2.851,-2.851,-2.851,-2.851,-2.851,-2.851,-2.851,-2.851,-2.851,-2.851,-2.851,-2.851,-2.851,-2.851,-2.851,-2.851,-2.851,-2.851,-2.851,-2.851,-2.851,-2.851,-2.851,-2.851,-2.851,-2.851,0.0,0.0,0.0,0.0,0.0,0.0,0.0,0.0,0.0,0.0,0.0,0.0,0.0,0.0,0.0,0.0,0.0,0.0,0.0,0.0,-0.3951,-0.3215,-0.3885,-0.402,-0.3349,-0.4688,-0.5498,-0.5701,-0.583,-0.609,-0.6428,-0.6422,-0.6793,-0.7464,-0.6768,-0.7516,-0.9296,-0.963,-1.0099,-1.0823,0.0,0.0,0.0,0.0,0.0,0.0,0.0,0.0,0.0,0.0,0.0,0.0,0.0,0.0,-1.6796,-1.8658,-1.9201,-1.9473,-2.0487,-2.1112,-2.1494,-2.1527,-2.1235,-2.0994,-2.1443,-2.1224,-2.0917,-2.0884,-2.0478,-2.0599,-2.1879,-2.349,-2.4707,-2.4849,-2.5123,-2.548,-2.5973,-2.6069,-2.6466,-2.7488,-2.7669,-2.7909,-2.8402,-2.8486,-2.851,-2.851,-2.851,-2.851,-2.851,-2.851,-2.851,-2.851,-2.851,-2.851,-2.851,-2.851,-2.851,-2.851,-2.851,-2.851,-2.851,-2.851,-2.851,-2.851,-2.851,-2.851,-2.851,-2.851,-2.851,-2.851,-2.851,-2.851,-2.851,-2.851,-2.851,-2.851,0.0,0.0,0.0,0.0,0.0,0.0,0.0,0.0,0.0,0.0,0.0,0.0,0.0,0.0,0.0,0.0,0.0,0.0,0.0,-0.4151,-0.3951,-0.3215,-0.3885,-0.3951,-0.3215,-0.4013,-0.4815,-0.5498,-0.5966,-0.6296,-0.6428,-0.6638,-0.6895,-0.7172,-0.7526,-0.8403,-0.9515,-0.9737,-1.0178,-1.0936,-1.1752,0.0,0.0,0.0,0.0,0.0,0.0,0.0,0.0,0.0,-1.6081,-1.6475,-1.6944,-1.7624,-1.8396,-1.8802,-1.9603,-2.0417,-2.0764,-2.1231,-2.1592,-2.1592,-2.145,-2.1286,-2.1166,-2.1059,-2.0773,-2.0478,-2.0751,-2.1448,-2.2752,-2.3746,-2.446,-2.4992,-2.5517,-2.5865,-2.6069,-2.6683,-2.726,-2.7669,-2.8017,-2.8294,-2.8498,-2.851,-2.851,-2.851,-2.851,-2.851,-2.851,-2.851,-2.851,-2.851,-2.851,-2.851,-2.851,-2.851,-2.851,-2.851,-2.851,-2.851,-2.851,-2.851,-2.851,-2.851,-2.851,-2.851,-2.851,-2.851,-2.851,-2.851,-2.851,-2.851,-2.851,-2.851,-2.851,-2.851,0.0,0.0,0.0,0.0,0.0,0.0,0.0,0.0,0.0,0.0,0.0,0.0,0.0,0.0,0.0,0.0,0.0,0.0,-0.4353,-0.4287,-0.4084,-0.3551,-0.4018,-0.4154,-0.3885,-0.4212,-0.4613,-0.516,-0.583,-0.623,-0.6424,-0.666,-0.7019,-0.7404,-0.8018,-0.8841,-0.98,-0.9655,-1.0064,-1.0835,-1.1508,-1.2027,0.0,0.0,0.0,0.0,0.0,0.0,0.0,0.0,-1.6584,-1.7169,-1.7362,-1.8433,-1.9565,-1.9567,-2.0381,-2.1348,-2.1471,-2.1743,-2.1996,-2.1854,-2.1701,-2.1461,-2.1037,-2.0928,-2.0817,-2.0642,-2.1254,-2.2121,-2.3151,-2.3699,-2.4331,-2.5195,-2.5793,-2.6226,-2.6562,-2.7248,-2.7789,-2.7945,-2.8294,-2.851,-2.851,-2.851,-2.851,-2.851,-2.851,-2.851,-2.851,-2.851,-2.851,-2.851,-2.851,-2.851,-2.851,-2.851,-2.851,-2.851,-2.851,-2.851,-2.851,-2.851,-2.851,-2.851,-2.851,-2.851,-2.851,-2.851,-2.851,-2.851,-2.851,-2.851,-2.851,-2.851,-2.851,-2.851,0.0,0.0,0.0,0.0,0.0,0.0,0.0,0.0,0.0,0.0,0.0,0.0,0.0,0.0,0.0,0.0,0.0,0.0,-0.4287,-0.4287,-0.4287,-0.4287,-0.4287,-0.4622,-0.5362,-0.5428,-0.516,-0.4625,-0.5355,-0.5951,-0.642,-0.6395,-0.7031,-0.821,-0.7923,-0.8518,-0.9777,-0.945,-0.9722,-1.0428,-1.1779,-1.2328,-1.2451,0.0,0.0,0.0,0.0,0.0,0.0,0.0,-1.71,-1.7366,-1.8833,-1.9624,-2.0244,-2.13,-2.1942,-2.2422,-2.2881,-2.3001,-2.2892,-2.2422,-2.1942,-2.1461,-2.1037,-2.0928,-2.1002,-2.1494,-2.1985,-2.2457,-2.2865,-2.364,-2.4507,-2.5374,-2.5825,-2.649,-2.7572,-2.7729,-2.7921,-2.845,-2.851,-2.851,-2.851,-2.851,-2.851,-2.851,-2.851,-2.851,-2.851,-2.851,-2.851,-2.851,-2.851,-2.851,-2.851,-2.851,-2.851,-2.851,-2.851,-2.851,-2.851,-2.851,-2.851,-2.851,-2.851,-2.851,-2.851,-2.851,-2.851,-2.851,-2.851,-2.851,-2.851,-2.851,-2.851,-2.851,0.0,0.0,0.0,0.0,0.0,0.0,0.0,0.0,0.0,0.0,0.0,0.0,0.0,0.0,0.0,0.0,0.0,0.0,-0.509,-0.5093,-0.5093,-0.5093,-0.5093,-0.516,-0.5428,-0.5428,-0.5296,-0.516,-0.5488,-0.5683,-0.5818,-0.6128,-0.6683,-0.7489,-0.8033,-0.8754,-0.945,-0.9823,-1.0238,-1.0744,-1.1608,-1.2282,-1.2911,0.0,0.0,0.0,0.0,0.0,0.0,0.0,0.0,0.0,-1.9443,-2.0403,-2.1252,-2.1882,-2.2433,-2.2826,-2.2968,-2.3001,-2.2805,-2.2007,-2.1691,-2.1461,-2.1037,-2.0928,-2.1101,-2.1931,-2.2215,-2.2739,-2.4141,-2.4625,-2.5113,-2.6312,-2.692,-2.7356,-2.7681,-2.8041,-2.833,-2.8498,-2.851,-2.851,-2.851,-2.851,-2.851,-2.851,-2.851,-2.851,-2.851,-2.851,-2.851,-2.851,-2.851,-2.851,-2.851,-2.851,-2.851,-2.851,-2.851,-2.851,-2.851,-2.851,-2.851,-2.851,-2.851,-2.851,-2.851,-2.851,-2.851,-2.851,-2.851,-2.851,-2.851,-2.851,-2.851,-2.851,0.0,0.0,0.0,0.0,0.0,0.0,0.0,0.0,0.0,0.0,-0.4439,-0.4508,0.0,0.0,0.0,0.0,0.0,0.0,0.0,-0.5463,-0.5428,-0.5428,-0.5428,-0.5428,-0.5428,-0.5428,-0.5428,-0.5428,-0.5491,-0.5554,-0.5617,-0.6123,-0.6781,-0.7577,-0.8372,-0.9017,-0.9594,-1.0168,-1.0491,-1.0737,-1.1615,-1.2367,-1.3,0.0,0.0,0.0,0.0,0.0,0.0,0.0,0.0,0.0,-1.9713,-2.0893,-2.1931,-2.2237,-2.2641,-2.3001,-2.3001,-2.3001,-2.2772,-2.1822,-2.1734,-2.1843,-2.1734,-2.157,-2.1658,-2.2433,-2.275,-2.3334,-2.4706,-2.5006,-2.5394,-2.6759,-2.7269,-2.7621,-2.8005,-2.8318,-2.851,-2.851,-2.851,-2.851,-2.851,-2.851,-2.851,-2.851,-2.851,-2.851,-2.851,-2.851,-2.851,-2.851,-2.851,-2.851,-2.851,-2.851,-2.851,-2.851,-2.851,-2.851,-2.851,-2.851,-2.851,-2.851,-2.851,-2.851,-2.851,-2.851,-2.851,-2.851,-2.851,-2.851,-2.851,-2.851,-2.851,-2.851,0.0,0.0,0.0,0.0,0.0,0.0,0.0,0.0,0.0,0.0,-0.4867,-0.4867,0.0,0.0,0.0,0.0,0.0,0.0,0.0,0.0,-0.5463,-0.5449,-0.5435,-0.5428,-0.5428,-0.5491,-0.5491,-0.5491,-0.5428,-0.5491,-0.5679,-0.6342,-0.719,-0.8091,-0.8683,-0.9402,-1.0047,-1.0358,-1.0548,-1.0737,-1.1839,-1.2531,-1.2988,-1.3763,0.0,0.0,0.0,0.0,0.0,0.0,0.0,0.0,-2.0038,-2.1161,-2.2324,-2.2368,-2.2673,-2.3001,-2.3001,-2.3001,-2.2783,-2.1887,-2.2018,-2.2488,-2.2903,-2.275,-2.263,-2.3045,-2.3493,-2.4018,-2.4949,-2.5116,-2.5599,-2.698,-2.7219,-2.7553,-2.8359,-2.851,-2.851,-2.851,-2.851,-2.851,-2.851,-2.851,-2.851,-2.851,-2.851,-2.851,-2.851,-2.851,-2.851,-2.851,-2.851,-2.851,-2.851,-2.851,-2.851,-2.851,-2.851,-2.851,-2.851,-2.851,-2.851,-2.851,-2.851,-2.851,-2.851,-2.851,-2.851,-2.851,-2.851,-2.851,-2.851,-2.851,-2.851,-2.851,0.0,0.0,0.0,0.0,0.0,0.0,0.0,0.0,0.0,0.0,0.0,0.0,0.0,0.0,0.0,0.0,0.0,0.0,0.0,0.0,-0.6143,-0.6014,-0.5624,-0.5428,-0.5428,-0.5947,-0.6203,-0.6203,-0.5686,-0.5686,-0.6203,-0.64,-0.7181,-0.8544,-0.8672,-0.9384,-1.0421,-1.0485,-1.0863,-1.1575,-1.2093,-1.2741,-1.35,-1.4272,-1.479,0.0,0.0,0.0,0.0,0.0,0.0,0.0,-2.1321,-2.1995,-2.239,-2.275,-2.2925,-2.3001,-2.3001,-2.3001,-2.2859,-2.2302,-2.251,-2.2881,-2.2979,-2.3525,-2.405,-2.4148,-2.4257,-2.4612,-2.5462,-2.5961,-2.6541,-2.7542,-2.8024,-2.8299,-2.8498,-2.851,-2.851,-2.851,-2.851,-2.851,-2.851,-2.851,-2.851,-2.851,-2.851,-2.851,-2.851,-2.851,-2.851,-2.851,-2.851,-2.851,-2.851,-2.851,-2.851,-2.851,-2.851,-2.851,-2.851,-2.851,-2.851,-2.851,-2.851,-2.851,-2.851,-2.851,-2.851,-2.851,-2.851,-2.851,-2.851,-2.851,-2.851,-2.851,0.0,0.0,0.0,0.0,0.0,0.0,0.0,0.0,0.0,0.0,0.0,0.0,0.0,0.0,0.0,0.0,0.0,0.0,0.0,0.0,-0.6758,-0.7146,-0.6911,-0.6687,-0.6534,-0.686,-0.7017,-0.6859,-0.6535,-0.6539,-0.6859,-0.7251,-0.7832,-0.8613,-0.9192,-0.9843,-1.0434,-1.1085,-1.1589,-1.2071,-1.2661,-1.3286,-1.3866,-1.4239,-1.4629,-1.5043,-1.5979,0.0,0.0,0.0,0.0,0.0,0.0,0.0,-2.2695,-2.2936,-2.3001,-2.3001,-2.3001,-2.3001,-2.2947,-2.2706,-2.2826,-2.3121,-2.3602,-2.429,-2.488,-2.5109,-2.4978,-2.5037,-2.5743,-2.624,-2.6725,-2.7487,-2.795,-2.8271,-2.851,-2.851,-2.851,-2.851,-2.851,-2.851,-2.851,-2.851,-2.851,-2.851,-2.851,-2.851,-2.851,-2.851,-2.851,-2.851,-2.851,-2.851,-2.851,-2.851,-2.851,-2.851,-2.851,-2.851,-2.851,-2.851,-2.851,-2.851,-2.851,-2.851,-2.851,-2.851,-2.851,-2.851,-2.851,-2.851,-2.851,-2.851,-2.851,-2.851,0.0,0.0,0.0,0.0,0.0,0.0,0.0,0.0,0.0,0.0,0.0,0.0,0.0,0.0,0.0,0.0,0.0,0.0,0.0,0.0,0.0,-0.8122,-0.815,-0.8125,-0.7879,-0.8015,-0.7933,-0.7758,-0.7824,-0.789,-0.7885,-0.8333,-0.8619,-0.8877,-0.9899,-1.05,-1.0719,-1.1978,-1.254,-1.2702,-1.3561,-1.4037,-1.4307,-1.4363,-1.4561,-1.4855,-1.5667,-1.6487,-1.7406,-1.8689,0.0,0.0,0.0,0.0,-2.2927,-2.2927,-2.2927,-2.2927,-2.3001,-2.3001,-2.3001,-2.3001,-2.3067,-2.334,-2.417,-2.4716,-2.5185,-2.5677,-2.5524,-2.5426,-2.583,-2.629,-2.6775,-2.7103,-2.7615,-2.8122,-2.8431,-2.851,-2.851,-2.851,-2.851,-2.851,-2.851,-2.851,-2.851,-2.851,-2.851,-2.851,-2.851,-2.851,-2.851,-2.851,-2.851,-2.851,-2.851,-2.851,-2.851,-2.851,-2.851,-2.851,-2.851,-2.851,-2.851,-2.851,-2.851,-2.851,-2.851,-2.851,-2.851,-2.851,-2.851,-2.851,-2.851,-2.851,-2.851,-2.851,0.0,0.0,0.0,0.0,0.0,0.0,0.0,0.0,0.0,0.0,-0.847,-0.847,0.0,0.0,0.0,0.0,0.0,0.0,0.0,0.0,0.0,-0.7915,-0.8093,-0.8192,-0.8163,-0.8803,-0.9077,-0.9045,-0.9599,-0.9943,-0.9863,-0.8948,-0.9075,-1.0053,-1.0549,-1.1249,-1.2079,-1.2886,-1.3493,-1.396,-1.4704,-1.4998,-1.507,-1.5364,-1.5499,-1.5623,-1.6355,-1.6749,-1.7168,-1.9286,-2.0302,0.0,0.0,0.0,-2.2777,-2.2777,-2.2777,-2.2777,-2.2927,-2.3001,-2.3001,-2.3001,-2.3318,-2.3667,-2.3798,-2.4213,-2.4716,-2.5175,-2.5557,-2.5819,-2.5884,-2.6539,-2.7103,-2.7185,-2.7846,-2.8431,-2.851,-2.851,-2.851,-2.851,-2.851,-2.851,-2.851,-2.851,-2.851,-2.851,-2.851,-2.851,-2.851,-2.851,-2.851,-2.851,-2.851,-2.851,-2.851,-2.851,-2.851,-2.851,-2.851,-2.851,-2.851,-2.851,-2.851,-2.851,-2.851,-2.851,-2.851,-2.851,-2.851,-2.851,-2.851,-2.851,-2.851,-2.851,-2.851,-2.851,0.0,0.0,0.0,0.0,0.0,0.0,0.0,0.0,0.0,0.0,0.0,-0.8703,0.0,0.0,0.0,0.0,0.0,0.0,0.0,0.0,0.0,-0.9383,-0.9647,-0.9741,-0.9608,-0.9899,-0.9978,-0.984,-1.0188,-1.0465,-1.0811,-1.043,-1.051,-1.0863,-1.1472,-1.2215,-1.2953,-1.3986,-1.4496,-1.4752,-1.5261,-1.5459,-1.5475,-1.5626,-1.5674,-1.5782,-1.6285,-1.6824,-1.7569,-1.918,-2.0168,-2.0969,-2.1952,0.0,0.0,0.0,-2.2703,-2.2777,-2.2927,-2.3001,-2.3001,-2.3001,-2.3165,-2.3394,-2.3667,-2.3897,-2.4203,-2.4683,-2.5164,-2.5579,-2.5852,-2.6373,-2.6857,-2.7185,-2.7777,-2.8271,-2.8431,-2.851,-2.851,-2.851,-2.851,-2.851,-2.851,-2.851,-2.851,-2.851,-2.851,-2.851,-2.851,-2.851,-2.851,-2.851,-2.851,-2.851,-2.851,-2.851,-2.851,-2.851,-2.851,-2.851,-2.851,-2.851,-2.851,-2.851,-2.851,-2.851,-2.851,-2.851,-2.851,-2.851,-2.851,-2.851,-2.851,-2.851,-2.851,-2.851,0.0,0.0,0.0,0.0,0.0,0.0,0.0,0.0,0.0,0.0,0.0,0.0,0.0,0.0,0.0,0.0,0.0,0.0,0.0,0.0,0.0,-1.0218,-1.0588,-1.0724,-1.0676,-1.0676,-1.0653,-1.0738,-1.0738,-1.1057,-1.1764,-1.2042,-1.2141,-1.2168,-1.2735,-1.3307,-1.3938,-1.4993,-1.5443,-1.5475,-1.5809,-1.5944,-1.5944,-1.5944,-1.5944,-1.5983,-1.6246,-1.6962,-1.8022,-1.9006,-2.0041,-2.1145,-2.1787,-2.2187,0.0,0.0,0.0,-2.2777,-2.2927,-2.3001,-2.3001,-2.3001,-2.3001,-2.3088,-2.346,-2.3547,-2.3722,-2.4355,-2.476,-2.5185,-2.5786,-2.6218,-2.6693,-2.7092,-2.7615,-2.8042,-2.8431,-2.851,-2.851,-2.851,-2.851,-2.851,-2.851,-2.851,-2.851,-2.851,-2.851,-2.851,-2.851,-2.851,-2.851,-2.851,-2.851,-2.851,-2.851,-2.851,-2.851,-2.851,-2.851,-2.851,-2.851,-2.851,-2.851,-2.851,-2.851,-2.851,-2.851,-2.851,-2.851,-2.851,-2.851,-2.851,-2.851,-2.851,-2.851,-2.851,0.0,0.0,0.0,0.0,0.0,0.0,0.0,0.0,0.0,0.0,0.0,0.0,-0.8703,-0.8703,-0.8703,-0.8703,-0.8703,-0.8627,-0.8699,-0.9089,-0.9397,-0.9397,-0.9771,0.0,-1.0496,-1.0496,-1.0932,-1.1883,-1.1883,-1.2392,-1.3257,-1.3271,-1.3744,-1.4635,-1.4426,-1.4597,-1.5173,-1.5864,-1.615,-1.6182,-1.6532,-1.6683,-1.6683,-1.6683,-1.6683,-1.6683,-1.6698,-1.7261,-1.8132,-1.9018,-1.9972,-2.0914,-2.1568,-2.2101,-2.2402,0.0,0.0,0.0,-2.3001,-2.3001,-2.3001,-2.3001,-2.3001,-2.3012,-2.3034,-2.3045,-2.3307,-2.429,-2.4508,-2.4803,-2.5732,-2.6218,-2.6693,-2.7092,-2.7615,-2.8042,-2.8431,-2.851,-2.851,-2.851,-2.851,-2.851,-2.851,-2.851,-2.851,-2.851,-2.851,-2.851,-2.851,-2.851,-2.851,-2.851,-2.851,-2.851,-2.851,-2.851,-2.851,-2.851,-2.851,-2.851,-2.851,-2.851,-2.851,-2.851,-2.851,-2.851,-2.851,-2.851,-2.851,-2.851,-2.851,-2.851,-2.851,-2.851,-2.851,-2.851,0.0,0.0,0.0,0.0,0.0,0.0,0.0,0.0,0.0,0.0,0.0,0.0,0.0,-0.91,-0.91,-0.91,-0.91,-0.9048,-0.8916,-0.9296,-0.9694,-1.0073,-1.0438,-1.0962,-1.1632,-1.1781,-1.2094,-1.2736,-1.2804,-1.341,-1.4267,-1.455,-1.5027,-1.5701,-1.5184,-1.5288,-1.5872,-1.6349,-1.6547,-1.6555,-1.6683,-1.673,-1.673,-1.673,-1.673,-1.673,-1.673,-1.6894,-1.7286,-1.8158,-1.9107,-1.9972,-2.0692,-2.1558,-2.2252,-2.2553,-2.2777,-2.3001,-2.3001,-2.3001,-2.3001,-2.3001,-2.3001,-2.3078,-2.3394,-2.3471,-2.3667,-2.4344,-2.4727,-2.5033,-2.5371,-2.5843,-2.6207,-2.6693,-2.7103,-2.7615,-2.8042,-2.8363,-2.851,-2.851,-2.851,-2.851,-2.851,-2.851,-2.851,-2.851,-2.851,-2.851,-2.851,-2.851,-2.851,-2.851,-2.851,-2.851,-2.851,-2.851,-2.851,-2.851,-2.851,-2.851,-2.851,-2.851,-2.851,-2.851,-2.851,-2.851,-2.851,-2.851,-2.851,-2.851,-2.851,-2.851,-2.851,-2.851,-2.851,-2.851,0.0,0.0,0.0,0.0,0.0,0.0,0.0,0.0,0.0,-0.9006,0.0,0.0,0.0,0.0,-0.9322,-0.9322,-0.9322,-0.9266,-0.9133,-0.9358,-0.9685,-1.0076,-1.0374,-1.0988,-1.1904,-1.2041,-1.2585,-1.3586,-1.3625,-1.4241,-1.524,-1.5469,-1.587,-1.6381,-1.5978,-1.5978,-1.6397,-1.6635,-1.673,-1.673,-1.673,-1.673,-1.673,-1.673,-1.673,-1.673,-1.673,-1.6894,-1.7204,-1.7764,-1.855,-1.9423,-2.006,-2.0934,-2.1797,-2.2327,-2.2628,-2.2777,-2.2927,-2.3121,-2.3241,-2.3241,-2.3372,-2.3591,-2.3908,-2.3984,-2.4126,-2.4618,-2.4956,-2.5229,-2.5382,-2.5843,-2.6218,-2.6445,-2.7021,-2.7534,-2.7893,-2.8283,-2.851,-2.851,-2.851,-2.851,-2.851,-2.851,-2.851,-2.851,-2.851,-2.851,-2.851,-2.851,-2.851,-2.851,-2.851,-2.851,-2.851,-2.851,-2.851,-2.851,-2.851,-2.851,-2.851,-2.851,-2.851,-2.851,-2.851,-2.851,-2.851,-2.851,-2.851,-2.851,-2.851,-2.851,-2.851,-2.851,-2.851,-2.851,0.0,0.0,0.0,0.0,0.0,0.0,0.0,0.0,-0.9025,-0.903,0.0,0.0,0.0,0.0,0.0,-0.9341,-0.9341,-0.9337,-0.9332,-0.9332,-0.9327,-0.9322,-0.9322,-0.9969,-1.1335,-1.1245,-1.2253,-1.4528,-1.4364,-1.5004,-1.6222,-1.6222,-1.6404,-1.6648,-1.673,-1.673,-1.673,-1.673,-1.673,-1.673,-1.673,-1.673,-1.673,-1.673,-1.673,-1.673,-1.673,-1.7204,-1.7997,-1.7997,-1.855,-1.9335,-1.9737,-2.0304,-2.1021,-2.1797,-2.2035,-2.2197,0.0,0.0,0.0,-2.3678,-2.4048,-2.4497,-2.4508,-2.4508,-2.4639,-2.5098,-2.5196,-2.5338,-2.5819,-2.6218,-2.6528,-2.6528,-2.729,-2.7893,-2.7893,-2.8283,-2.851,-2.851,-2.851,-2.851,-2.851,-2.851,-2.851,-2.851,-2.851,-2.851,-2.851,-2.851,-2.851,-2.851,-2.851,-2.851,-2.851,-2.851,-2.851,-2.851,-2.851,-2.851,-2.851,-2.851,-2.851,-2.851,-2.851,-2.851,-2.851,-2.851,-2.851,-2.851,-2.851,-2.851,-2.851,-2.851,-2.851,-2.851,0.0,0.0,0.0,0.0,0.0,-0.8703,-0.8703,-0.8883,-0.9077,0.0,0.0,0.0,-0.9762,-0.9776,-0.9776,-0.9776,-0.9776,-0.9715,-0.9568,-0.9559,-0.9732,-1.0131,-1.0201,-1.0922,-1.2533,-1.2693,-1.3588,-1.528,-1.526,-1.5594,-1.6335,-1.6335,-1.639,-1.6476,-1.6648,-1.673,-1.673,-1.673,-1.673,-1.673,-1.673,-1.673,-1.673,-1.673,-1.673,-1.673,-1.673,-1.6812,-1.7049,-1.7049,-1.7602,-1.847,-1.9432,-1.9835,-2.007,-2.075,-2.1133,-2.148,-2.1961,0.0,0.0,0.0,0.0,0.0,-2.4821,-2.4978,-2.512,-2.56,-2.5699,-2.5742,-2.5874,-2.6218,-2.6528,-2.6528,-2.729,-2.7893,-2.7893,-2.8283,-2.851,-2.851,-2.851,-2.851,-2.851,-2.851,-2.851,-2.851,-2.851,-2.851,-2.851,-2.851,-2.851,-2.851,-2.851,-2.851,-2.851,-2.851,-2.851,-2.851,-2.851,-2.851,-2.851,-2.851,-2.851,-2.851,-2.851,-2.851,-2.851,-2.851,-2.851,-2.851,-2.851,-2.851,-2.851,-2.851,-2.851,-2.851,0.0,0.0,0.0,0.0,0.0,-0.8703,-0.8703,-0.8954,-0.919,0.0,0.0,0.0,-1.0024,-1.0038,-1.0038,-1.0038,-1.0038,-0.9899,-0.9781,-0.9771,-0.988,-1.0247,-1.0653,-1.1475,-1.2876,-1.3414,-1.4313,-1.5619,-1.5644,-1.5832,-1.6237,-1.6237,-1.6319,-1.6394,-1.6484,-1.6648,-1.673,-1.673,-1.673,-1.673,-1.673,-1.673,-1.673,-1.673,-1.673,-1.673,-1.673,-1.673,-1.673,-1.673,-1.7131,-1.7853,-1.8496,-1.8816,-1.9082,-2.0093,-2.056,-2.0889,-2.1819,-2.2361,-2.2774,-2.3197,0.0,0.0,-2.4461,-2.4868,-2.5131,-2.5411,-2.5728,-2.5895,-2.5895,-2.6218,-2.6528,-2.6528,-2.729,-2.7893,-2.7893,-2.8283,-2.851,-2.851,-2.851,-2.851,-2.851,-2.851,-2.851,-2.851,-2.851,-2.851,-2.851,-2.851,-2.851,-2.851,-2.851,-2.851,-2.851,-2.851,-2.851,-2.851,-2.851,-2.851,-2.851,-2.851,-2.851,-2.851,-2.851,-2.851,-2.851,-2.851,-2.851,-2.851,-2.851,-2.851,-2.851,-2.851,-2.851,-2.851,0.0,0.0,-0.8394,-0.7936,-0.8241,-0.8627,-0.8627,-0.8974,-0.9241,0.0,-0.9691,-1.0038,-1.0038,-1.0038,-1.0038,-1.0038,-1.0038,-1.0038,-1.0038,-1.0038,-1.0038,-1.0038,-1.0809,-1.1746,-1.2674,-1.3539,-1.4536,-1.5733,-1.5619,-1.5708,-1.6087,-1.6087,-1.6162,-1.6394,-1.6394,-1.6476,-1.673,-1.673,-1.673,-1.673,-1.673,-1.673,-1.673,-1.673,-1.673,-1.673,-1.673,-1.673,-1.673,-1.673,-1.6984,-1.7318,-1.736,-1.7588,-1.8189,-1.9652,-2.0107,-2.0445,-2.1869,-2.2562,-2.2983,-2.3078,-2.3358,0.0,-2.379,-2.4327,-2.4775,-2.4775,-2.5295,-2.5812,-2.5812,-2.6135,-2.6445,-2.6351,-2.7126,-2.78,-2.7893,-2.8283,-2.851,-2.851,-2.851,-2.851,-2.851,-2.851,-2.851,-2.851,-2.851,-2.851,-2.851,-2.851,-2.851,-2.851,-2.851,-2.851,-2.851,-2.851,-2.851,-2.851,-2.851,-2.851,-2.851,-2.851,-2.851,-2.851,-2.851,-2.851,-2.851,-2.851,-2.851,-2.851,-2.851,-2.851,-2.851,-2.851,-2.851,-2.851,0.0,-0.67,-0.7403,-0.7944,-0.8102,-0.825,-0.8403,-0.882,-0.9082,-0.9241,-0.9691,-1.0038,-1.0038,-1.0038,-1.0038,-1.0038,-1.0038,-1.0038,-1.0038,-1.0038,-1.0038,-1.0038,-1.0809,-1.1746,-1.2674,-1.3568,-1.458,-1.5733,-1.5523,-1.5523,-1.5741,-1.5741,-1.5906,-1.617,-1.6319,-1.6476,-1.673,-1.673,-1.673,-1.673,-1.673,-1.673,-1.673,-1.673,-1.673,-1.673,-1.673,-1.673,-1.673,-1.673,-1.673,-1.6868,-1.7247,-1.7135,-1.7269,-1.8929,-1.9373,-1.9697,-2.0955,-2.164,-2.2142,-2.2669,-2.2911,0.0,-2.3714,-2.3887,-2.3973,-2.3973,-2.4594,-2.5115,-2.5115,-2.5633,-2.5968,-2.5746,-2.6268,-2.7033,-2.78,-2.8283,-2.851,-2.851,-2.851,-2.851,-2.851,-2.851,-2.851,-2.851,-2.851,-2.851,-2.851,-2.851,-2.851,-2.851,-2.851,-2.851,-2.851,-2.851,-2.851,-2.851,-2.851,-2.851,-2.851,-2.851,-2.851,-2.851,-2.851,-2.851,-2.851,-2.851,-2.851,-2.851,-2.851,-2.851,-2.851,-2.851,-2.851,-2.851,-0.4921,-0.5931,-0.6938,-0.7011,-0.7633,-0.8102,-0.8255,-0.8501,-0.8806,-0.8991,-0.9436,-0.9864,-0.9951,-1.0038,-1.0038,-1.0038,-1.0038,-1.0038,-1.0038,-1.0038,-1.0038,-1.0038,-1.0809,-1.1494,-1.1997,-1.2936,-1.3698,-1.4203,-1.4559,-1.4824,-1.4894,-1.5325,-1.5756,-1.6087,-1.6245,-1.6409,-1.673,-1.673,-1.673,-1.673,-1.673,-1.673,-1.673,-1.673,-1.673,-1.673,-1.673,-1.673,-1.673,-1.673,-1.6857,-1.7008,-1.7008,-1.7287,-1.7826,-1.8871,-1.9548,-2.0043,-2.1134,-2.1575,-2.182,-2.2176,-2.2264,0.0,0.0,-2.3028,-2.3299,-2.3299,-2.3897,-2.4327,-2.4327,-2.4669,-2.484,-2.4638,-2.5168,-2.5757,-2.6599,-2.7603,-2.8203,-2.8203,-2.8351,-2.851,-2.851,-2.851,-2.851,-2.851,-2.851,-2.851,-2.851,-2.851,-2.851,-2.851,-2.851,-2.851,-2.851,-2.851,-2.851,-2.851,-2.851,-2.851,-2.851,-2.851,-2.851,-2.851,-2.851,-2.851,-2.851,-2.851,-2.851,-2.851,-2.851,-2.851,-2.851,-2.851,-2.851,-2.851,-0.3839,-0.5157,-0.616,-0.577,-0.6703,-0.7557,-0.7791,-0.7943,-0.8306,-0.879,-0.9294,-0.9777,-0.9951,-1.0038,-1.0038,-1.0038,-1.0038,-1.0038,-1.0038,-1.0038,-1.0038,-1.0038,-1.0809,-1.1408,-1.158,-1.251,-1.3021,-1.319,-1.3964,-1.4314,-1.4398,-1.5082,-1.5673,-1.6087,-1.6087,-1.6335,-1.673,-1.673,-1.673,-1.673,-1.673,-1.673,-1.673,-1.673,-1.673,-1.673,-1.673,-1.673,-1.6746,-1.6818,-1.7032,-1.7254,-1.7088,-1.7714,-1.8584,-1.9229,-1.9887,-2.0712,-2.1453,-2.1741,-2.1741,-2.1741,-2.1741,-2.1741,0.0,0.0,0.0,-2.2627,-2.3125,-2.3627,-2.3627,-2.3714,-2.377,-2.3507,-2.4008,-2.4457,-2.4777,-2.6202,-2.7383,-2.7881,-2.8283,-2.851,-2.851,-2.851,-2.851,-2.851,-2.851,-2.851,-2.851,-2.851,-2.851,-2.851,-2.851,-2.851,-2.851,-2.851,-2.851,-2.851,-2.851,-2.851,-2.851,-2.851,-2.851,-2.851,-2.851,-2.851,-2.851,-2.851,-2.851,-2.851,-2.8431,-2.8351,-2.8351,-2.8259,-2.8259,-2.8179,-0.3677,-0.3986,-0.4375,-0.5002,-0.5234,-0.5619,-0.6542,-0.6917,-0.7623,-0.9061,-0.9637,-0.9951,-1.0038,-1.0038,-1.0038,-1.0038,-1.0038,-1.0038,-1.0038,-1.0038,-1.0038,-1.0038,-1.0809,-1.166,-1.2504,-1.3451,-1.4314,-1.5082,-1.5173,-1.5257,-1.5257,-1.534,-1.5673,-1.6087,-1.6087,-1.6335,-1.673,-1.673,-1.673,-1.673,-1.673,-1.673,-1.673,-1.673,-1.673,-1.673,-1.673,-1.673,-1.6786,-1.7104,-1.7247,-1.7374,-1.7946,-1.8313,-1.8684,-1.9877,-2.0314,-2.0712,-2.1453,-2.1741,-2.1741,-2.1741,-2.1741,-2.1741,-2.1741,0.0,-2.182,-2.182,0.0,-2.2882,-2.2882,0.0,0.0,-2.2532,-2.3206,-2.3574,-2.2683,-2.389,-2.5684,-2.7638,-2.8283,-2.851,-2.851,-2.851,-2.851,-2.851,-2.851,-2.851,-2.851,-2.851,-2.851,-2.851,-2.851,-2.851,-2.851,-2.851,-2.851,-2.851,-2.851,-2.851,-2.851,-2.851,-2.851,-2.851,-2.851,-2.851,-2.851,-2.851,-2.851,-2.8431,-2.8122,-2.7962,-2.7881,-2.7522,-2.7348,-2.7348,-0.2978,-0.3443,-0.3908,-0.4222,-0.4744,-0.5398,-0.6402,-0.723,-0.8041,-0.886,-0.9326,-0.9605,-0.9776,-0.988,-1.0038,-1.0038,-1.0038,-1.0038,-1.0038,-1.0038,-1.0038,-1.0038,-1.0381,-1.0722,-1.1144,-1.2003,-1.2693,-1.3033,-1.4139,-1.4657,-1.4657,-1.5173,-1.559,-1.5824,-1.5582,-1.5665,-1.5899,-1.565,-1.5567,-1.5567,-1.5982,-1.6147,-1.6154,-1.6566,-1.673,-1.673,-1.673,-1.673,-1.6754,-1.6913,-1.7231,-1.758,-1.7676,-1.837,-1.9206,-1.9485,-1.992,-2.0543,-2.1141,-2.1275,-2.1365,-2.1642,-2.1741,-2.1741,-2.1741,-2.1741,-2.1741,-2.1741,0.0,0.0,0.0,0.0,0.0,0.0,-2.2309,-2.2532,-2.2544,-2.3441,-2.4573,-2.5935,-2.6505,-2.6835,-2.6917,-2.6905,-2.7174,-2.7684,-2.7255,-2.7418,-2.8431,-2.8007,-2.8007,-2.851,-2.851,-2.851,-2.851,-2.851,-2.851,-2.851,-2.8007,-2.8007,-2.851,-2.8007,-2.8007,-2.851,-2.7926,-2.7938,-2.8122,-2.7522,-2.7267,-2.7185,-2.7115,-2.7464,-2.78,-2.736,-2.7185,-2.7185,-0.2511,-0.2976,-0.3443,-0.3443,-0.3991,-0.4751,-0.5683,-0.7021,-0.8066,-0.8229,-0.8846,-0.9335,-0.9555,-0.9776,-0.9889,-1.0033,-1.0038,-1.0038,-1.0038,-1.0038,-1.0038,-1.0038,-1.0038,-1.0125,-1.0381,-1.0982,-1.1408,-1.166,-1.3027,-1.3711,-1.3711,-1.4391,-1.4734,-1.497,-1.4643,-1.4727,-1.497,-1.4643,-1.4559,-1.4734,-1.5235,-1.5567,-1.5733,-1.6402,-1.673,-1.673,-1.673,-1.673,-1.6762,-1.6953,-1.735,-1.7763,-1.7715,-1.8572,-1.9497,-1.9241,-1.9718,-2.0382,-2.0736,-2.0907,-2.1087,-2.1454,-2.1642,-2.1741,-2.1741,-2.1741,-2.1741,-2.1741,-2.1741,0.0,0.0,0.0,-2.1695,-2.1585,0.0,-2.1872,-2.228,-2.2872,-2.3627,-2.4659,-2.5242,-2.5652,-2.583,-2.5819,-2.608,-2.6764,-2.6163,-2.6412,-2.7672,-2.7174,-2.7092,-2.7753,-2.8007,-2.8179,-2.8179,-2.8179,-2.8179,-2.8179,-2.751,-2.751,-2.8099,-2.751,-2.7684,-2.8431,-2.7429,-2.736,-2.78,-2.6869,-2.6351,-2.6185,-2.6019,-2.6445,-2.7196,-2.6951,-2.6857,-2.6775,-0.2511,-0.2511,-0.251,-0.251,-0.264,-0.2924,-0.3804,-0.5654,-0.7027,-0.7259,-0.8312,-0.917,-0.9541,-0.9569,-0.9734,-1.0019,-1.0038,-1.0038,-1.0038,-1.0038,-1.0038,-1.0038,-1.0038,-1.0381,-1.1241,-1.1322,-1.1746,-1.2674,-1.276,-1.276,-1.276,-1.276,-1.293,-1.3099,-1.3099,-1.3444,-1.4041,-1.4041,-1.43,-1.4734,-1.4734,-1.5151,-1.5733,-1.6402,-1.673,-1.673,-1.673,-1.673,-1.6841,-1.7509,-1.7755,-1.789,-1.8565,-1.9163,-1.9637,-1.9629,-1.9911,-2.0292,-2.0292,-2.0645,-2.0997,-2.0997,-2.1365,-2.1741,-2.1741,-2.1741,-2.1741,-2.1741,-2.1741,-2.1741,-2.1741,-2.1741,-2.1603,-2.12,-2.1475,0.0,0.0,-2.1475,-2.2511,-2.4573,-2.5411,-2.5819,-2.5819,-2.5819,-2.5819,-2.5819,-2.583,-2.5819,-2.5902,-2.5819,-2.5819,-2.5902,-2.6764,-2.7267,-2.7267,-2.7267,-2.7267,-2.7267,-2.7185,-2.7185,-2.7267,-2.7185,-2.7684,-2.8431,-2.7103,-2.7033,-2.78,-2.6693,-2.6196,-2.6102,-2.4999,-2.4999,-2.5579,-2.5884,-2.5895,-2.5895,-0.2511,-0.2542,-0.2571,-0.2571,-0.2621,-0.2991,-0.3892,-0.5154,-0.6308,-0.6939,-0.7482,-0.8141,-0.9082,-0.9312,-0.9558,-0.9932,-1.0038,-1.0038,-1.0038,-1.0038,-1.0038,-1.0038,-1.0038,-1.0125,-1.0467,-1.0982,-1.1494,-1.1746,-1.2425,-1.2674,-1.2674,-1.2674,-1.276,-1.276,-1.2772,-1.2948,-1.3124,-1.3124,-1.3209,-1.3464,-1.4314,-1.5068,-1.5733,-1.6402,-1.673,-1.673,-1.673,-1.6889,-1.7127,-1.7366,-1.7747,-1.816,-1.8398,-1.8728,-1.9096,-1.9096,-1.9196,-1.9371,-1.9737,-1.9911,-2.0184,-2.0817,-2.1087,-2.1365,-2.1642,-2.1741,-2.1741,-2.1741,-2.1741,-2.1741,-2.1741,-2.1741,-2.1695,-2.1548,-2.164,-2.1686,0.0,-2.1738,-2.2353,-2.3396,-2.381,-2.3973,-2.3973,-2.3973,-2.4231,-2.4914,-2.4317,-2.4563,-2.5735,-2.5242,-2.5242,-2.5819,-2.608,-2.6246,-2.6246,-2.6928,-2.6928,-2.6246,-2.6246,-2.6588,-2.7174,-2.5746,-2.5986,-2.7244,-2.5484,-2.5084,-2.56,-2.4584,-2.4069,-2.3993,-2.3973,-2.3887,-2.381,-2.4327,-2.485,-2.5211,-0.2538,-0.2574,-0.2601,-0.2601,-0.2634,-0.2914,-0.3601,-0.4426,-0.53,-0.6237,-0.6763,-0.7564,-0.8896,-0.9192,-0.9478,-0.9937,-1.0038,-1.0071,-1.006,-1.0081,-1.0071,-1.0064,-1.0081,-1.0038,-1.0038,-1.0554,-1.0809,-1.0809,-1.1402,-1.174,-1.174,-1.174,-1.174,-1.174,-1.1752,-1.1929,-1.2186,-1.2186,-1.2357,-1.279,-1.3893,-1.4566,-1.5068,-1.5733,-1.6319,-1.6754,-1.6881,-1.708,-1.7318,-1.7556,-1.7938,-1.8319,-1.8446,-1.8645,-1.8827,-1.8827,-1.8827,-1.892,-1.9188,-1.9554,-2.0011,-2.0645,-2.1006,-2.1365,-2.1642,-2.1741,-2.1741,-2.1741,-2.1741,-2.1741,-2.1741,-2.1741,-2.1741,-2.1741,-2.1741,-2.1741,0.0,-2.1919,-2.2185,-2.2539,-2.2794,-2.3057,-2.3047,-2.3135,-2.3309,-2.3993,-2.3474,-2.3647,-2.4819,-2.4317,-2.4231,-2.4819,-2.5158,-2.5326,-2.5326,-2.5913,-2.5913,-2.5231,-2.5231,-2.5484,-2.5913,-2.4638,-2.4798,-2.6141,-2.4307,-2.3897,-2.4413,-2.3396,-2.2882,-2.2794,-2.3028,-2.295,-2.2882,-2.3541,-2.4059,-2.4413,-0.259,-0.2604,-0.2606,-0.2609,-0.2608,-0.2624,-0.268,-0.3308,-0.4142,-0.516,-0.6133,-0.7327,-0.8828,-0.9192,-0.9478,-0.9937,-1.0038,-1.0036,-1.0244,-1.0152,-1.0133,-1.0249,-1.006,-1.0038,-1.0038,-1.0047,-1.0047,-1.0038,-1.0047,-1.0047,-1.0038,-1.0038,-1.0038,-1.0038,-1.0038,-1.0467,-1.1327,-1.1322,-1.1843,-1.279,-1.3392,-1.3737,-1.3737,-1.4398,-1.5492,-1.6637,-1.7067,-1.7302,-1.7429,-1.8081,-1.8311,-1.8383,-1.8724,-1.8827,-1.8827,-1.8827,-1.8827,-1.8827,-1.8827,-1.9463,-2.0201,-2.0292,-2.0925,-2.1642,-2.1651,-2.1651,-2.1741,-2.1741,-2.1741,-2.1741,-2.1741,-2.1741,-2.1741,-2.1741,-2.1741,-2.1741,-2.1741,-2.19,-2.2069,-2.2069,-2.2482,-2.2833,-2.3018,-2.3038,-2.3038,-2.3105,-2.3105,-2.3115,-2.3135,-2.3125,-2.3028,-2.3047,-2.3993,-2.4413,-2.4413,-2.4498,-2.4317,-2.4049,-2.4049,-2.3963,-2.38,-2.3714,-2.4211,-2.4957,-2.3637,-2.356,-2.4241,-2.3222,-2.2715,-2.2715,-2.1998,-2.2097,-2.2794,-2.3464,-2.3714,-2.3714,-0.2598,-0.2638,-0.2683,-0.2729,-0.2699,-0.2658,-0.2629,-0.2718,-0.3467,-0.5116,-0.5556,-0.6556,-0.8765,-0.9017,-0.9298,-0.9932,-1.0038,-1.0062,-1.0031,-1.0067,-1.0062,-1.0031,-1.0067,-1.0038,-1.0038,-1.0107,-1.0112,-1.0038,-1.0112,-1.0107,-1.0038,-1.0038,-1.0038,-1.0038,-1.0294,-1.0722,-1.1322,-1.1666,-1.2186,-1.279,-1.3392,-1.3737,-1.3737,-1.4398,-1.5043,-1.5597,-1.629,-1.6824,-1.7362,-1.8061,-1.8478,-1.8708,-1.8796,-1.8827,-1.8827,-1.8827,-1.8827,-1.8827,-1.8827,-1.9012,-1.9279,-1.9646,-2.0192,-2.0744,-2.1096,-2.1463,-2.1741,-2.1741,-2.1741,-2.1741,-2.1741,-2.1741,-2.1741,-2.1741,-2.1741,-2.1741,-2.1741,-2.1465,-2.1447,-2.1621,-2.1532,-2.1636,-2.2389,-2.2708,-2.2843,-2.2695,-2.2676,-2.2812,-2.3125,-2.2842,-2.2736,-2.2872,-2.3222,-2.3396,-2.3222,-2.4069,-2.4069,-2.3135,-2.38,-2.3963,-2.38,-2.295,-2.3028,-2.377,-2.2589,-2.2176,-2.2432,-2.2087,-2.2008,-2.2008,-2.1731,-2.183,-2.2087,-2.2784,-2.2696,-2.2255,-0.2172,-0.2538,-0.2726,-0.2707,-0.2676,-0.2642,-0.2606,-0.2572,-0.3039,-0.4442,-0.4777,-0.5716,-0.7993,-0.8345,-0.8867,-0.9767,-0.9951,-1.0027,-1.0211,-1.014,-1.0173,-1.0357,-1.0272,-1.022,-1.022,-1.0258,-1.0258,-1.022,-1.0258,-1.0258,-1.022,-1.022,-1.0178,-1.0181,-1.0353,-1.0644,-1.1063,-1.1671,-1.2272,-1.2705,-1.3137,-1.3222,0.0,-1.3782,-1.4182,-1.4533,-1.5376,-1.6371,-1.7251,-1.7834,-1.8378,-1.8827,-1.8827,-1.8827,-1.8827,-1.8827,-1.8827,-1.8827,-1.8827,-1.9004,-1.9279,-1.9737,-2.0283,-2.0736,-2.1186,-2.1553,-2.1741,-2.1741,-2.1741,-2.1741,-2.1741,-2.1741,-2.1741,-2.1741,-2.1741,-2.1676,-2.1484,-2.1255,-2.113,-2.104,-2.0828,-2.0885,-2.1277,-2.1826,-2.2054,-2.1899,-2.2049,-2.2146,-2.2388,-2.2279,-2.2347,-2.2515,-2.2611,-2.2698,-2.2618,-2.3299,-2.3222,-2.2539,-2.295,-2.3115,-2.2853,-2.2264,-2.2167,-2.258,-2.1989,-2.1741,-2.1741,-2.1741,-2.1741,-2.1741,-2.1741,-2.1741,-2.1731,-2.2185,-2.2097,-2.1741,-0.1651,-0.226,-0.274,-0.2643,-0.2612,-0.2604,-0.2612,-0.2606,-0.2927,-0.3743,-0.4057,-0.494,-0.7015,-0.7574,-0.8285,-0.9551,-0.9906,-1.0159,-1.0546,-1.0409,-1.0461,-1.0801,-1.066,-1.056,-1.0537,-1.0414,-1.0428,-1.0575,-1.0428,-1.0433,-1.0575,-1.0575,-1.048,-1.031,-1.0286,-1.0416,-1.0636,-1.158,-1.2272,-1.2613,-1.2705,-1.2705,-1.2735,-1.3019,-1.329,-1.3641,-1.4549,-1.5773,-1.7051,-1.7502,-1.8164,-1.8643,-1.8735,-1.8827,-1.8827,-1.8827,-1.8827,-1.8827,-1.8827,-1.9096,-1.9554,-2.0019,-2.0555,-2.1006,-2.1463,-2.1642,-2.1741,-2.1741,-2.1741,-2.1741,-2.1741,-2.1741,-2.1741,-2.1741,-2.1695,-2.153,-2.1163,-2.1016,-2.0824,-2.0484,-2.0393,0.0,-2.0114,-2.0743,-2.1163,-2.1106,-2.1263,-2.1447,-2.1495,-2.1642,-2.1826,-2.1997,-2.2101,-2.2093,-2.2183,-2.224,-2.2189,-2.2013,-2.2069,-2.1919,-2.1741,-2.1741,-2.1741,-2.1741,-2.1741,-2.1741,-2.1741,-2.1741,-2.1741,-2.1741,-2.1741,-2.1741,-2.1741,-2.1741,-2.1741,-2.1741,-0.1688,-0.2256,-0.2718,-0.2747,-0.2669,-0.2619,-0.2669,-0.2634,-0.2944,-0.391,-0.4095,-0.5055,-0.7169,-0.7643,-0.8336,-0.9754,-1.0126,-1.0319,-1.0556,-1.0542,-1.048,-1.0386,-1.0504,-1.0494,-1.0329,-1.0631,-1.0716,-1.0575,-1.0716,-1.0716,-1.0575,-1.0575,-1.0551,-1.0513,-1.0348,-1.0416,-1.0636,-1.158,-1.2015,-1.2186,-1.2528,-1.2705,-1.2735,-1.3019,-1.329,-1.355,-1.3994,-1.479,-1.5934,-1.7296,-1.7785,-1.7971,-1.8635,-1.8827,-1.8827,-1.8827,-1.8827,-1.8827,-1.8827,-1.8827,-1.892,-1.9012,-1.9737,-2.0464,-2.0564,-2.1105,-2.1741,-2.1741,-2.1741,-2.1741,-2.1741,-2.1741,-2.1741,-2.1741,-2.1447,-2.119,-2.1117,-2.0549,-2.0108,-2.0044,-1.9723,-1.9485,-1.9491,-2.0328,-2.0884,-2.0709,-2.0761,-2.0904,-2.1237,-2.0952,-2.0961,-2.1128,-2.1296,-2.1333,-2.1156,-2.1674,-2.1844,-2.1575,-2.1929,-2.1919,-2.1741,-2.1741,-2.1741,-2.1741,-2.1741,-2.1741,-2.1741,-2.1741,-2.1741,-2.1741,-2.1741,-2.1741,-2.1741,-2.1741,-2.1741,-2.1741,-0.15,-0.1996,-0.2309,-0.265,-0.2687,-0.2658,-0.2688,-0.2695,-0.2875,-0.333,-0.3486,-0.409,-0.5703,-0.661,-0.7479,-0.875,-0.9688,-1.0334,-1.0538,-1.0646,-1.0697,-1.0598,-1.0688,-1.0693,-1.0598,-1.0683,-1.0783,-1.0896,-1.0896,-1.0896,-1.0896,-1.0896,-1.0839,-1.0726,-1.0414,-1.0416,-1.0636,-1.1327,-1.1757,-1.2015,-1.2528,-1.2705,-1.2735,-1.3019,-1.329,-1.355,-1.3809,-1.4257,-1.5057,-1.6567,-1.7412,-1.7878,-1.8542,-1.8827,-1.8827,-1.8827,-1.8827,-1.8827,-1.8827,-1.8827,-1.8827,-1.9188,-1.9554,-2.0102,-2.0555,-2.1006,-2.1374,-2.1642,-2.1741,-2.1741,-2.1741,-2.1557,-2.141,-2.141,-2.1071,-2.0732,-2.0521,-2.0173,-1.9852,-1.9632,-1.943,-1.9301,-1.9301,-1.974,-2.0049,-1.9934,-2.0005,-2.0179,-2.0376,-2.0278,-2.0353,-2.0522,-2.0613,-2.0716,-2.0689,-2.0968,-2.107,-2.0976,-2.1392,-2.1498,-2.142,-2.164,-2.1741,-2.1741,-2.1741,-2.1741,-2.1741,-2.1741,-2.1741,-2.1741,-2.1741,-2.1741,-2.1741,-2.1741,-2.1741,-2.1741,-0.1053,-0.1482,-0.1904,-0.2394,-0.2635,-0.2721,-0.2745,-0.2789,-0.2816,-0.2804,-0.2854,-0.3276,-0.4352,-0.5371,-0.6525,-0.7795,-0.9133,-1.0068,-1.0564,-1.0765,-1.092,-1.083,-1.0872,-1.0853,-1.0768,-1.0636,-1.0759,-1.1132,-1.0972,-1.0976,-1.1132,-1.1175,-1.1061,-1.0811,-1.0442,-1.0327,-1.0463,-1.0982,-1.1413,-1.1929,-1.2357,-1.2619,-1.2735,-1.3019,-1.3373,-1.3731,-1.3994,-1.4452,-1.4962,-1.6386,-1.7138,-1.7598,-1.8542,-1.8827,-1.8827,-1.8827,-1.8827,-1.8827,-1.8827,-1.8827,-1.892,-1.9279,-1.9554,-1.982,-2.0637,-2.0907,-2.1087,-2.1463,-2.1553,-2.1553,-2.1651,-2.1392,-2.1108,-2.1108,-2.0704,-2.0283,-1.9971,-1.9852,-1.9668,-1.9347,-1.9301,-1.9301,-1.9301,-1.9301,-1.9301,-1.9301,-1.9469,-1.9557,-1.9557,-1.9706,-1.9855,-2.0021,-2.0031,-2.0098,-2.0255,-2.0347,-2.0393,-2.0402,-2.0796,-2.1025,-2.1117,-2.1456,-2.1649,-2.1741,-2.1741,-2.1741,-2.1741,-2.1741,-2.1741,-2.1741,-2.1741,-2.1741,-2.1741,-2.1741,-2.1741,-2.1651,0.0268,-0.0792,-0.1747,-0.1868,-0.2371,-0.2811,-0.2917,-0.2937,-0.2924,-0.2872,-0.2914,-0.3342,-0.435,-0.4733,-0.581,-0.7962,-0.8641,-0.9485,-1.0663,-1.1068,-1.1,-1.0622,-1.0792,-1.0721,-1.0343,-1.049,-1.0688,-1.0924,-1.0905,-1.0905,-1.0929,-1.1109,-1.0986,-1.0594,-1.0371,-1.0243,-1.0125,-1.0463,-1.0977,-1.1413,-1.1843,-1.2357,-1.2735,-1.3019,-1.364,-1.454,-1.4819,-1.5571,-1.6487,-1.7318,-1.7232,-1.6958,-1.8357,-1.8827,-1.8827,-1.8827,-1.8827,-1.8827,-1.8827,-1.8827,-1.8827,-1.8827,-1.9279,-1.9729,-2.0283,-2.0727,-2.0988,-2.1087,-2.1087,-2.1186,-2.1642,-2.1392,-2.1108,-2.1108,-2.0475,-1.9971,-1.9934,-1.9604,-1.9347,-1.9301,-1.9301,-1.9301,-1.9301,-1.9301,-1.9301,-1.9301,-1.9301,-1.9301,-1.9301,-1.9381,-1.9399,-1.9356,-1.9356,-1.9375,-1.9412,-1.9797,-1.9989,-1.9989,-2.0383,-2.0759,-2.1108,-2.1145,-2.1374,-2.1741,-2.1741,-2.1741,-2.1741,-2.1741,-2.1741,-2.1741,-2.1741,-2.1741,-2.1741,-2.1741,-2.1741,-2.1642,0.0448,-0.0089,-0.0622,-0.1075,-0.18,-0.2271,-0.2307,-0.2709,-0.3018,-0.3031,-0.3022,-0.3225,-0.3577,-0.4353,-0.5162,-0.6054,-0.7635,-0.8837,-0.96,-1.04,-1.0817,-1.0589,-1.0655,-1.057,-1.0282,-1.0353,-1.0494,-1.0702,-1.0702,-1.0768,-1.0896,-1.0976,-1.0858,-1.0565,-1.0362,-1.0154,-1.0038,-1.0467,-1.0895,-1.1327,-1.1843,-1.2272,-1.2717,-1.2831,-1.3218,-1.376,-1.4029,-1.4759,-1.5771,-1.6699,-1.7138,-1.7419,-1.845,-1.8827,-1.8827,-1.8827,-1.8827,-1.8827,-1.8827,-1.8827,-1.8827,-1.8827,-1.892,-1.9279,-1.9737,-2.0011,-2.0275,-2.0555,-2.0817,-2.1105,-2.1313,-2.1025,-2.0677,-2.0438,-1.9925,-1.9549,-1.9549,-1.9402,-1.9301,-1.9301,-1.9301,-1.9301,-1.9301,-1.9301,-1.9301,-1.9301,-1.9301,-1.9301,-1.9301,-1.9301,-1.9301,-1.9301,-1.9301,-1.9301,-1.9301,-1.9467,-1.9549,-1.9558,-1.9971,-2.0246,-2.0411,-2.0649,-2.0979,-2.1374,-2.163,-2.1741,-2.1741,-2.1741,-2.1553,-2.1275,-2.1553,-2.1553,-2.1275,-2.1642,-2.1741,-2.1642,0.0807,0.0541,0.0272,-0.0272,-0.1013,-0.159,-0.1882,-0.2382,-0.2807,-0.306,-0.3129,-0.3119,-0.3162,-0.3755,-0.4369,-0.4728,-0.6426,-0.7816,-0.8707,-0.9751,-1.0363,-1.0589,-1.0518,-1.039,-1.0182,-1.0178,-1.0277,-1.0485,-1.0485,-1.056,-1.0712,-1.0645,-1.057,-1.0475,-1.0272,-1.0093,-1.0038,-1.0294,-1.0722,-1.1322,-1.1671,-1.2186,-1.2705,-1.2705,-1.296,-1.3498,-1.3687,-1.4585,-1.5793,-1.6664,-1.7419,-1.8071,-1.8643,-1.8827,-1.8827,-1.8827,-1.8827,-1.8827,-1.8827,-1.8827,-1.8827,-1.8827,-1.8827,-1.892,-1.9463,-1.9637,-1.9729,-2.0201,-2.0464,-2.0694,-2.0833,-2.0531,-2.0225,-1.9907,-1.9577,-1.9301,-1.9301,-1.9301,-1.9301,-1.9301,-1.9301,-1.9301,-1.9301,-1.9301,-1.9301,-1.9301,-1.9301,-1.9301,-1.9301,-1.9301,-1.9301,-1.9301,-1.9301,-1.9301,-1.9301,-1.9301,-1.9301,-1.9301,-1.9604,-1.9815,-1.9943,-2.0338,-2.0732,-2.1126,-2.142,-2.1621,-2.1731,-2.1553,-2.1275,-2.0997,-2.1186,-2.1096,-2.0817,-2.1195,-2.1284,-2.1284,0.1346,0.0821,0.037,0.037,-0.0188,-0.0863,-0.1758,-0.1862,-0.227,-0.312,-0.3229,-0.3229,-0.3229,-0.3229,-0.363,-0.4734,-0.5031,-0.6224,-0.8609,-0.8851,-0.9449,-1.0584,-1.0386,-1.0178,-1.0047,-1.0043,-1.006,-1.0277,-1.0277,-1.0277,-1.0277,-1.0064,-1.0162,-1.0267,-1.005,-1.0043,-1.0038,-1.0038,-1.0554,-1.1327,-1.1327,-1.1843,-1.2705,-1.2705,-1.3293,-1.418,-1.448,-1.5763,-1.7341,-1.7579,-1.8164,-1.8827,-1.8827,-1.8827,-1.8827,-1.8827,-1.8827,-1.8827,-1.8827,-1.8827,-1.8827,-1.8827,-1.8827,-1.892,-1.9463,-1.9637,-1.9729,-2.0201,-1.992,-1.9802,-2.0316,-2.011,-1.9813,-1.9916,-1.9577,-1.9301,-1.9301,-1.9301,-1.9301,-1.9301,-1.9301,-1.9301,-1.9301,-1.9301,-1.9301,-1.9301,-1.9301,-1.9301,-1.9301,-1.9301,-1.9301,-1.9301,-1.9301,-1.9301,-1.9301,-1.9301,-1.9301,-1.9301,-1.9301,-1.9531,-1.9943,-2.0338,-2.0732,-2.1108,-2.1117,-2.1355,-2.1651,-2.1177,-2.0997,-2.0907,-2.0464,-2.0292,-2.0292,-2.0292,-2.0292,-2.0292,0.1462,0.129,0.1115,0.1131,0.0576,-0.0,-0.0294,-0.1289,-0.2104,-0.2318,-0.2826,-0.323,-0.323,-0.323,-0.3331,-0.3632,-0.4433,-0.5329,-0.6323,-0.7778,-0.8779,-0.9258,-0.9917,-1.0173,-1.0043,-1.0038,-1.0071,-1.0143,-1.0143,-1.013,-1.0272,-1.0206,-1.0206,-1.0263,-1.005,-1.0038,-1.0038,-1.0038,-1.0294,-1.0809,-1.1154,-1.1666,-1.2272,-1.2613,-1.2924,-1.3207,-1.3498,-1.4391,-1.5486,-1.5787,-1.6493,-1.7426,-1.7885,-1.8357,-1.8827,-1.8827,-1.8827,-1.8827,-1.8827,-1.8827,-1.8827,-1.8827,-1.8827,-1.8827,-1.9004,-1.9004,-1.9188,-1.9737,-1.9455,-1.9254,-1.9505,-1.9288,-1.8981,-1.9102,-1.8932,-1.9002,-1.9222,-1.9301,-1.9301,-1.9301,-1.9301,-1.9301,-1.9301,-1.9301,-1.9301,-1.9301,-1.9301,-1.9301,-1.9301,-1.9301,-1.9301,-1.9301,-1.9301,-1.9301,-1.9301,-1.9301,-1.9301,-1.9301,-1.9301,-1.9366,-1.9512,-1.9925,-2.0191,-2.0319,-2.0247,-2.0503,-2.0792,-2.0342,-2.0133,-2.0093,-2.0192,-1.9729,-1.908,-1.9438,-1.9155,-1.8688,0.1492,0.1507,0.1521,0.154,0.1176,0.0794,0.0397,-0.0701,-0.1613,-0.1917,-0.2724,-0.323,-0.323,-0.323,-0.323,-0.323,-0.3831,-0.452,-0.5077,-0.6537,-0.7645,-0.814,-0.9165,-0.973,-0.9602,-0.9864,-1.0038,-1.0038,-1.0038,-1.0022,-1.0154,-1.0154,-1.0154,-1.0149,-1.01,-1.0038,-1.0038,-1.0038,-1.0207,-1.0636,-1.1149,-1.1585,-1.2015,-1.2528,-1.2705,-1.2741,-1.3025,-1.3729,-1.463,-1.4917,-1.5671,-1.677,-1.7505,-1.7978,-1.845,-1.8735,-1.8827,-1.8827,-1.8827,-1.8827,-1.8827,-1.8827,-1.8827,-1.8827,-1.8827,-1.8827,-1.888,-1.9109,-1.8897,-1.8692,-1.8717,-1.8507,-1.8394,-1.8682,-1.8531,-1.8603,-1.9222,-1.9152,-1.9073,-1.9073,-1.9222,-1.9222,-1.9073,-1.9222,-1.9301,-1.9301,-1.9301,-1.9301,-1.9301,-1.9301,-1.9301,-1.9301,-1.9301,-1.9301,-1.9301,-1.9301,-1.9301,-1.9301,-1.9301,-1.9222,-1.9082,-1.9075,-1.9026,-1.9011,-1.8735,-1.887,-1.9138,-1.8838,-1.8677,-1.8613,-1.8848,-1.8434,-1.7785,-1.8149,-1.7956,-1.749,0.1523,0.1552,0.1572,0.1575,0.1598,0.1314,0.0606,-0.0202,-0.1109,-0.1815,-0.2623,-0.323,-0.323,-0.323,-0.323,-0.323,-0.323,-0.3701,-0.4895,-0.5279,-0.6021,-0.7177,-0.8278,-0.889,-0.889,-0.9598,-0.9951,-1.0038,-1.0038,-1.0038,-1.0038,-1.0038,-1.0038,-1.0038,-1.0038,-1.0038,-1.0038,-1.0038,-1.0207,-1.0636,-1.1068,-1.1494,-1.2015,-1.2443,-1.2705,-1.2741,-1.3,-1.3704,-1.4514,-1.4799,-1.5551,-1.6553,-1.7311,-1.7498,-1.7692,-1.8542,-1.8827,-1.8827,-1.8827,-1.8827,-1.8827,-1.8827,-1.8827,-1.8827,-1.8827,-1.8827,-1.8724,-1.8375,-1.8279,-1.8145,-1.7899,-1.7844,-1.7963,-1.8512,-1.8201,-1.8273,-1.9143,-1.8922,-1.87,-1.87,-1.8993,-1.9073,-1.87,-1.9073,-1.9301,-1.9301,-1.9301,-1.9301,-1.9222,-1.9222,-1.9222,-1.9222,-1.9222,-1.9134,-1.9134,-1.9134,-1.9222,-1.9222,-1.9222,-1.8993,-1.8531,-1.7925,-1.7606,-1.7427,-1.683,-1.676,-1.709,-1.6892,-1.6769,-1.6821,-1.6607,-1.6553,-1.6459,-1.648,-1.6487,-1.6581,0.1555,0.1566,0.1579,0.1602,0.1612,0.1516,0.1314,0.0101,-0.0907,-0.1109,-0.232,-0.323,-0.323,-0.323,-0.323,-0.323,-0.323,-0.3304,-0.3534,-0.4803,-0.5647,-0.5899,-0.7293,-0.836,-0.889,-0.9065,-0.9419,-1.0038,-1.0038,-1.0038,-1.0038,-1.0038,-1.0038,-1.0038,-1.0038,-1.0038,-1.0038,-1.0038,-1.0038,-1.0207,-1.0636,-1.1063,-1.1499,-1.2015,-1.2357,-1.2711,-1.2777,-1.3069,-1.3521,-1.3791,-1.4149,-1.4684,-1.5644,-1.5906,-1.6278,-1.8257,-1.8827,-1.8827,-1.8827,-1.8827,-1.8827,-1.8827,-1.8827,-1.8827,-1.8827,-1.8827,-1.8724,-1.8375,-1.8081,-1.7858,-1.752,-1.7215,-1.7163,-1.7652,-1.7635,-1.7878,-1.8692,-1.8442,-1.8282,-1.87,-1.8442,-1.8442,-1.87,-1.8772,-1.9002,-1.9301,-1.9301,-1.8975,-1.8318,-1.8158,-1.8069,-1.8069,-1.8069,-1.7738,-1.709,-1.7747,-1.8327,-1.8851,-1.8523,-1.8023,-1.7375,-1.7277,-1.6894,-1.6374,-1.5906,-1.5841,-1.6223,-1.5792,-1.5803,-1.6052,-1.6274,-1.5941,-1.5418,-1.5644,-1.5343,-1.4867,0.1685,0.1592,0.1597,0.1614,0.1617,0.1617,0.1617,0.0505,-0.0403,-0.0706,-0.1916,-0.2826,-0.313,-0.323,-0.3219,-0.3191,-0.3189,-0.3164,-0.3102,-0.4271,-0.4926,-0.4917,-0.6462,-0.757,-0.7921,-0.8273,-0.8715,-0.9506,-0.9864,-1.0038,-1.0038,-1.0038,-1.0038,-1.0038,-1.0038,-1.0038,-1.0038,-1.0038,-1.0038,-1.0038,-1.0463,-1.0895,-1.1327,-1.1843,-1.2272,-1.2705,-1.2705,-1.2886,-1.3163,-1.3429,-1.3872,-1.4509,-1.5158,-1.5906,-1.6655,-1.7971,-1.8257,-1.8257,-1.8257,-1.8542,-1.8827,-1.8827,-1.8827,-1.8827,-1.8827,-1.87,-1.8486,-1.8128,-1.7787,-1.7437,-1.7096,-1.6865,-1.6812,-1.731,-1.7229,-1.7392,-1.8282,-1.7959,-1.7797,-1.8049,-1.804,-1.804,-1.8129,-1.829,-1.8362,-1.8247,-1.8247,-1.7997,-1.7261,-1.7082,-1.7001,-1.709,-1.7001,-1.6667,-1.6175,-1.6667,-1.709,-1.7432,-1.7188,-1.678,-1.6296,-1.5959,-1.553,-1.4956,-1.4378,-1.4304,-1.4453,-1.4349,-1.4421,-1.4592,-1.4876,-1.4799,-1.4477,-1.4622,-1.457,-1.4394,0.1813,0.1617,0.1617,0.1617,0.1617,0.1617,0.1617,0.0909,0.0101,-0.0706,-0.1513,-0.2318,-0.3118,-0.3217,-0.3192,-0.3131,-0.3117,-0.309,-0.3038,-0.3826,-0.4302,-0.4304,-0.5716,-0.6602,-0.6779,-0.7482,-0.8185,-0.889,-0.951,-0.9864,-1.0038,-1.0038,-1.0038,-1.0038,-1.0038,-1.0038,-1.0038,-1.0038,-1.0038,-1.0038,-1.0381,-1.0809,-1.1327,-1.1752,-1.2272,-1.2705,-1.2705,-1.2862,-1.3103,-1.3363,-1.3987,-1.4817,-1.5094,-1.6055,-1.7217,-1.7217,-1.7311,-1.7412,-1.7785,-1.835,-1.8827,-1.8827,-1.8827,-1.8812,-1.8764,-1.8518,-1.8184,-1.7779,-1.7477,-1.7167,-1.6802,-1.673,-1.682,-1.7066,-1.6812,-1.6812,-1.7627,-1.7383,-1.7229,-1.7392,-1.7635,-1.7716,-1.74,-1.7635,-1.7538,-1.7041,-1.687,-1.6609,-1.6191,-1.5928,-1.5764,-1.5861,-1.5846,-1.5756,-1.5756,-1.5764,-1.5764,-1.5928,-1.5846,-1.553,-1.5144,-1.4545,-1.4048,-1.3561,-1.296,-1.2705,-1.2723,-1.2964,-1.3061,-1.3085,-1.335,-1.3592,-1.3791,-1.3833,-1.4014,-1.4333,0.1817,0.1617,0.1617,0.1617,0.1617,0.1617,0.1617,0.0909,0.0101,-0.0706,-0.1513,-0.2306,-0.306,-0.3154,-0.3129,-0.3068,-0.3016,-0.2982,-0.2973,-0.3521,-0.3939,-0.4304,-0.4921,-0.5716,-0.6776,-0.7482,-0.8185,-0.889,-0.8978,-0.9419,-1.0038,-1.0038,-1.0038,-1.0038,-1.0038,-1.0038,-1.0038,-1.0038,-1.0038,-1.0038,-1.0038,-1.0554,-1.1327,-1.1413,-1.1929,-1.2705,-1.2705,-1.2735,-1.2813,-1.3091,-1.3446,-1.3799,-1.4068,-1.4496,-1.4867,-1.4867,-1.5242,-1.619,-1.8071,-1.8735,-1.8827,-1.8827,-1.8827,-1.8748,-1.8446,-1.8343,-1.812,-1.7485,-1.7318,-1.7167,-1.6802,-1.673,-1.6566,-1.6064,-1.5899,-1.6064,-1.6558,-1.6229,-1.6312,-1.731,-1.7147,-1.7057,-1.7392,-1.6976,-1.6722,-1.6952,-1.6519,-1.5846,-1.5032,-1.4775,-1.4364,-1.3633,-1.4287,-1.4608,-1.4608,-1.4455,-1.4796,-1.547,-1.5054,-1.4559,-1.3984,-1.3899,-1.347,-1.2875,-1.279,-1.2705,-1.2705,-1.2753,-1.2771,-1.2795,-1.3079,-1.3212,-1.3272,-1.3495,-1.3743,-1.406,0.1919,0.1617,0.1617,0.1617,0.1617,0.1617,0.1617,0.1313,0.0808,-0.0,-0.08,-0.1583,-0.2355,-0.2818,-0.3067,-0.3006,-0.2974,-0.2946,-0.2914,-0.3367,-0.3803,-0.4302,-0.4743,-0.5366,-0.6169,-0.6868,-0.757,-0.8273,-0.8715,-0.9244,-1.0038,-1.0038,-1.0038,-1.0038,-1.0038,-1.0038,-1.0038,-1.0038,-1.0038,-1.0038,-1.0038,-1.0381,-1.0982,-1.1241,-1.1757,-1.2357,-1.2619,-1.2705,-1.2747,-1.3031,-1.3459,-1.3868,-1.3701,-1.4421,-1.5197,-1.4835,-1.5031,-1.5717,-1.7232,-1.7613,-1.7613,-1.7613,-1.7764,-1.7766,-1.7326,-1.7204,-1.7044,-1.638,-1.6092,-1.5836,-1.568,-1.565,-1.5484,-1.5235,-1.5151,-1.5401,-1.5982,-1.5816,-1.6064,-1.6894,-1.6484,-1.6237,-1.6484,-1.5899,-1.5394,-1.522,-1.4963,-1.4461,-1.388,-1.362,-1.3379,-1.3143,-1.3372,-1.3451,-1.3451,-1.3372,-1.3548,-1.3964,-1.3717,-1.347,-1.313,-1.313,-1.296,-1.2705,-1.2705,-1.2705,-1.2705,-1.2705,-1.2705,-1.2717,-1.285,-1.2988,-1.3139,-1.326,-1.3471,-1.3805,0.2321,0.1818,0.1617,0.1617,0.1617,0.1617,0.1617,0.1617,0.121,0.0301,-0.0396,-0.1074,-0.2033,-0.2673,-0.3004,-0.2944,-0.2939,-0.292,-0.2877,-0.323,-0.3676,-0.4297,-0.4835,-0.5371,-0.5733,-0.6432,-0.7129,-0.7834,-0.854,-0.9244,-1.0038,-1.0038,-1.0038,-1.0038,-1.0038,-1.0038,-1.0038,-1.0038,-1.0038,-1.0038,-1.0038,-1.0294,-1.0809,-1.1154,-1.1671,-1.2186,-1.2534,-1.2705,-1.2735,-1.2952,-1.3405,-1.3837,-1.3536,-1.4411,-1.5454,-1.4819,-1.4788,-1.5162,-1.6261,-1.6476,-1.6455,-1.6385,-1.6649,-1.6718,-1.6083,-1.606,-1.587,-1.5269,-1.4895,-1.4734,-1.4734,-1.4734,-1.465,-1.4482,-1.4482,-1.465,-1.5151,-1.5235,-1.5484,-1.6154,-1.5816,-1.5484,-1.5484,-1.4817,-1.4237,-1.373,-1.3561,-1.3307,-1.3052,-1.279,-1.279,-1.2966,-1.279,-1.2705,-1.2705,-1.2705,-1.2705,-1.2705,-1.2705,-1.2705,-1.2705,-1.2705,-1.2705,-1.2705,-1.2705,-1.2705,-1.2705,-1.2705,-1.2705,-1.2705,-1.2705,-1.2837,-1.3025,-1.3025,-1.3194,-1.3543,0.3324,0.2321,0.1617,0.1617,0.1617,0.1617,0.1617,0.1617,0.1104,-0.0394,-0.0686,-0.1257,-0.2796,-0.2967,-0.2941,-0.2886,-0.288,-0.2879,-0.2875,-0.2964,-0.332,-0.43,-0.5196,-0.5644,-0.5733,-0.6432,-0.7129,-0.7834,-0.854,-0.9244,-1.0038,-1.0038,-1.0038,-1.0038,-1.0038,-1.0038,-1.0038,-1.0038,-1.0038,-1.0038,-1.0038,-1.0467,-1.1235,-1.1322,-1.1843,-1.2619,-1.2705,-1.2705,-1.2705,-1.2729,-1.291,-1.3215,-1.3145,-1.3422,-1.3725,-1.3635,-1.3647,-1.3981,-1.5782,-1.6225,-1.6162,-1.5963,-1.5878,-1.5786,-1.5489,-1.5382,-1.5276,-1.4825,-1.4748,-1.4734,-1.4734,-1.4734,-1.4482,-1.3899,-1.3737,-1.3815,-1.3815,-1.3815,-1.4068,-1.4734,-1.4817,-1.4734,-1.4734,-1.4153,-1.3737,-1.3737,-1.313,-1.279,-1.2705,-1.2705,-1.2705,-1.2705,-1.2705,-1.2705,-1.2705,-1.2705,-1.2705,-1.2705,-1.2705,-1.2705,-1.2705,-1.2705,-1.2705,-1.2705,-1.2705,-1.2705,-1.2705,-1.2705,-1.2705,-1.2705,-1.2705,-1.2717,-1.2735,-1.2735,-1.291,-1.3157,0.3423,0.2321,0.1617,0.1617,0.1617,0.1617,0.1617,0.1617,0.1204,0.0197,-0.0388,-0.1049,-0.2041,-0.2654,-0.2898,-0.2876,-0.2875,-0.2875,-0.2875,-0.3409,-0.3942,-0.43,-0.5196,-0.5733,-0.5733,-0.5997,-0.6697,-0.7834,-0.8097,-0.8803,-1.0038,-1.0038,-1.0038,-1.0038,-1.0038,-1.0038,-1.0038,-1.0038,-1.0038,-1.0038,-1.0038,-1.0212,-1.0554,-1.1068,-1.1499,-1.1929,-1.2534,-1.2705,-1.2705,-1.2705,-1.2777,-1.2862,-1.2862,-1.3049,-1.3302,-1.3465,-1.3513,-1.3592,-1.4142,-1.443,-1.454,-1.443,-1.4537,-1.4636,-1.4093,-1.4104,-1.411,-1.3574,-1.3464,-1.3464,-1.3464,-1.3464,-1.3385,-1.313,-1.3052,-1.3222,-1.3652,-1.3737,-1.3984,-1.465,-1.4321,-1.4068,-1.4068,-1.347,-1.3052,-1.3052,-1.2875,-1.2705,-1.2705,-1.2705,-1.2705,-1.2705,-1.2705,-1.2705,-1.2705,-1.2705,-1.2705,-1.2705,-1.2705,-1.2705,-1.2705,-1.2705,-1.2705,-1.2705,-1.2705,-1.2705,-1.2705,-1.2705,-1.2705,-1.2705,-1.2705,-1.2705,-1.2705,-1.2705,-1.2771,-1.2799,0.3823,0.2521,0.1617,0.1617,0.1617,0.1617,0.1617,0.1609,0.1293,0.0585,-0.0191,-0.0937,-0.1654,-0.2445,-0.2875,-0.2875,-0.2875,-0.2875,-0.2875,-0.3765,-0.4389,-0.4746,-0.5374,-0.5733,-0.5733,-0.5908,-0.652,-0.7482,-0.7921,-0.8623,-0.9685,-0.9864,-1.0038,-1.0038,-1.0038,-1.0038,-1.0038,-1.0038,-1.0038,-1.0038,-1.0038,-1.0125,-1.0294,-1.0982,-1.1408,-1.1585,-1.2443,-1.2705,-1.2705,-1.2705,-1.2705,-1.2705,-1.2705,-1.2837,-1.3025,-1.3206,-1.326,-1.3218,-1.3043,-1.3121,-1.326,-1.326,-1.3467,-1.3504,-1.3076,-1.3188,-1.3222,-1.279,-1.2705,-1.2705,-1.2705,-1.2705,-1.2705,-1.2705,-1.2705,-1.2875,-1.3307,-1.3392,-1.3561,-1.4062,-1.3639,-1.3392,-1.3392,-1.296,-1.2705,-1.2705,-1.2705,-1.2705,-1.2705,-1.2705,-1.2705,-1.2705,-1.2705,-1.2705,-1.2705,-1.2705,-1.2705,-1.2705,-1.2705,-1.2705,-1.2705,-1.2705,-1.2705,-1.2705,-1.2705,-1.2705,-1.2705,-1.2705,-1.2705,-1.2705,-1.2705,-1.2705,-1.2705,-1.279,-1.279,-1.2814,0.4824,0.3024,0.1617,0.1617,0.1617,0.1617,0.1616,0.1591,0.1268,0.0478,-0.0281,-0.101,-0.1709,-0.2424,-0.2875,-0.2875,-0.2875,-0.2875,-0.2875,-0.3765,-0.4746,-0.5644,-0.5733,-0.5733,-0.5733,-0.6432,-0.6779,-0.6779,-0.8185,-0.889,-0.889,-0.9685,-0.9951,-1.0038,-1.0038,-1.0038,-1.0038,-1.0038,-1.0038,-1.0038,-1.0038,-1.0207,-1.0636,-1.1149,-1.1585,-1.21,-1.2534,-1.2705,-1.2705,-1.2705,-1.2705,-1.2705,-1.2705,-1.2705,-1.2705,-1.2705,-1.2705,-1.2705,-1.2705,-1.2705,-1.2705,-1.2705,-1.2705,-1.2705,-1.2705,-1.2705,-1.2705,-1.2705,-1.2705,-1.2705,-1.2705,-1.2705,-1.2705,-1.2705,-1.2705,-1.2705,-1.2705,-1.2705,-1.2705,-1.2705,-1.2705,-1.2705,-1.2705,-1.2705,-1.2705,-1.2705,-1.2705,-1.2705,-1.2705,-1.2705,-1.2705,-1.2705,-1.2705,-1.2705,-1.2705,-1.2705,-1.2705,-1.2705,-1.2705,-1.2705,-1.2705,-1.2705,-1.2705,-1.2705,-1.2705,-1.2705,-1.2705,-1.2705,-1.2705,-1.2705,-1.2705,-1.2705,-1.2705,-1.2966,-1.3137,-1.3137,0.4824,0.3024,0.1617,0.1617,0.1617,0.1609,0.1588,0.1577,0.1359,0.0469,-0.0279,-0.101,-0.1709,-0.2424,-0.2875,-0.2875,-0.2875,-0.3142,-0.3855,-0.4121,-0.4746,-0.5644,-0.5733,-0.5733,-0.5733,-0.5908,-0.6254,-0.6779,-0.7217,-0.7921,-0.889,-0.9157,-0.951,-1.0038,-1.0038,-1.0038,-1.0038,-1.0038,-1.0038,-1.0038,-1.0038,-1.0038,-1.0294,-1.0982,-1.1413,-1.1585,-1.2443,-1.2705,-1.2705,-1.2705,-1.2705,-1.2705,-1.2705,-1.2705,-1.2705,-1.2705,-1.2705,-1.2705,-1.2705,-1.2705,-1.2705,-1.2705,-1.2705,-1.2705,-1.2705,-1.2705,-1.2705,-1.2705,-1.2705,-1.2705,-1.2705,-1.2705,-1.2705,-1.2705,-1.2705,-1.2705,-1.2705,-1.2705,-1.2705,-1.2705,-1.2705,-1.2705,-1.2705,-1.2705,-1.2705,-1.2705,-1.2705,-1.2705,-1.2705,-1.2705,-1.2705,-1.2705,-1.2705,-1.2705,-1.2705,-1.2705,-1.2705,-1.2705,-1.2705,-1.2705,-1.2705,-1.2705,-1.2705,-1.2705,-1.2705,-1.2705,-1.2705,-1.2705,-1.2705,-1.2705,-1.2705,-1.2705,-1.2705,-1.2966,-1.3137,-1.3052,0.4824,0.3024,0.1617,0.1617,0.1607,0.1593,0.1575,0.1551,0.1427,0.0928,-0.0092,-0.091,-0.1347,-0.2244,-0.2875,-0.2875,-0.2875,-0.332,-0.421,-0.43,-0.4746,-0.5644,-0.5733,-0.5733,-0.5733,-0.5733,-0.5908,-0.6343,-0.664,-0.7162,-0.8097,-0.8297,-0.8649,-0.9157,-0.9419,-0.9598,-0.9598,-0.9864,-1.0038,-1.0038,-1.0038,-1.0038,-1.0125,-1.0982,-1.1327,-1.1408,-1.2357,-1.2705,-1.2705,-1.2705,-1.2705,-1.2705,-1.2705,-1.2705,-1.2705,-1.2705,-1.2705,-1.2705,-1.2705,-1.2705,-1.2705,-1.2705,-1.2705,-1.2705,-1.2705,-1.2705,-1.2705,-1.2705,-1.2705,-1.2705,-1.2705,-1.2705,-1.2705,-1.2705,-1.2705,-1.2705,-1.2705,-1.2705,-1.2705,-1.2705,-1.2705,-1.2705,-1.2705,-1.2705,-1.2705,-1.2705,-1.2705,-1.2705,-1.2705,-1.2705,-1.2705,-1.2705,-1.2705,-1.2705,-1.2705,-1.279,-1.279,-1.2705,-1.2705,-1.2705,-1.2705,-1.2705,-1.2705,-1.2705,-1.2705,-1.2705,-1.2705,-1.2705,-1.2705,-1.2705,-1.279,-1.2875,-1.2881,-1.3222,-1.3313,-1.3222,0.4802,0.3108,0.1609,0.1609,0.1585,0.1566,0.1564,0.1517,0.148,0.1477,0.0272,-0.0628,-0.0718,-0.1974,-0.2784,-0.2875,-0.2963,-0.332,-0.43,-0.4387,-0.4746,-0.5644,-0.5733,-0.5733,-0.5733,-0.5733,-0.5733,-0.5733,-0.6216,-0.6641,-0.6757,-0.7311,-0.7666,-0.7811,-0.8515,-0.8873,-0.8978,-0.9598,-0.9951,-1.0038,-1.0038,-1.0038,-1.012,-1.0982,-1.1322,-1.1499,-1.2357,-1.2705,-1.2705,-1.2705,-1.2705,-1.2705,-1.2705,-1.2705,-1.2705,-1.2705,-1.2705,-1.2705,-1.2705,-1.2705,-1.2705,-1.2705,-1.2705,-1.2705,-1.2705,-1.2705,-1.2705,-1.2705,-1.2705,-1.2705,-1.2705,-1.2705,-1.2705,-1.2705,-1.2705,-1.2705,-1.2705,-1.2705,-1.2705,-1.2705,-1.2705,-1.2705,-1.2705,-1.2705,-1.2705,-1.2705,-1.2705,-1.2705,-1.2705,-1.2705,-1.2705,-1.2705,-1.2705,-1.2705,-1.2705,-1.2966,-1.2966,-1.2705,-1.2705,-1.2705,-1.2705,-1.2705,-1.2705,-1.2705,-1.2705,-1.2705,-1.2705,-1.2705,-1.279,-1.279,-1.3052,-1.3143,-1.3137,-1.3476,-1.3568,-1.3476,0.4618,0.2988,0.1545,0.1545,0.154,0.1528,0.1504,0.1489,0.1472,0.1448,0.072,-0.009,-0.0628,-0.1525,-0.2244,-0.2873,-0.323,-0.3853,-0.4743,-0.4832,-0.5102,-0.5644,-0.5733,-0.5733,-0.5733,-0.5733,-0.5733,-0.5733,-0.5697,-0.6076,-0.6618,-0.6642,-0.7073,-0.7741,-0.7912,-0.8328,-0.889,-0.9065,-0.951,-1.0038,-1.0038,-1.0207,-1.0549,-1.1068,-1.1494,-1.1929,-1.2534,-1.2705,-1.2705,-1.2705,-1.2705,-1.2705,-1.2705,-1.2705,-1.2705,-1.2705,-1.2705,-1.2705,-1.2705,-1.2705,-1.2705,-1.2705,-1.2705,-1.2705,-1.2705,-1.2705,-1.2705,-1.2705,-1.2705,-1.2705,-1.2705,-1.2705,-1.2705,-1.2705,-1.2705,-1.2705,-1.2705,-1.2705,-1.2705,-1.2705,-1.2705,-1.2705,-1.2705,-1.2705,-1.2705,-1.2705,-1.2705,-1.2705,-1.2705,-1.2705,-1.2705,-1.2705,-1.2705,-1.279,-1.3052,-1.3052,-1.3052,-1.3052,-1.3052,-1.3052,-1.3052,-1.279,-1.2705,-1.2705,-1.2875,-1.3052,-1.3052,-1.3052,-1.3137,-1.3222,-1.3143,-1.3228,-1.3307,-1.2881,-1.2705,-1.2705,0.4563,0.295,0.1526,0.1526,0.1514,0.1499,0.1483,0.1468,0.1453,0.1438,0.0807,0.009,-0.0628,-0.1345,-0.2154,-0.3141,-0.323,-0.3765,-0.4921,-0.4832,-0.5013,-0.5644,-0.5733,-0.5733,-0.5733,-0.5733,-0.5733,-0.5733,-0.5553,-0.5664,-0.6061,-0.5945,-0.6086,-0.6645,-0.6979,-0.7318,-0.7808,-0.8504,-0.9074,-0.951,-0.9864,-1.0125,-1.0381,-1.1068,-1.1413,-1.1757,-1.2443,-1.2705,-1.2705,-1.2705,-1.2705,-1.2705,-1.2705,-1.2705,-1.2705,-1.2705,-1.2705,-1.2705,-1.2705,-1.2705,-1.2705,-1.2705,-1.2705,-1.2705,-1.2705,-1.2705,-1.2705,-1.2705,-1.2705,-1.2705,-1.2705,-1.2705,-1.2705,-1.2705,-1.2705,-1.2705,-1.2705,-1.2705,-1.2705,-1.2705,-1.2705,-1.2705,-1.2705,-1.2705,-1.2705,-1.2705,-1.2705,-1.2705,-1.2705,-1.279,-1.2875,-1.2875,-1.296,-1.3137,-1.3222,-1.3313,-1.3392,-1.3392,-1.3313,-1.3222,-1.3222,-1.3137,-1.3045,-1.3045,-1.3137,-1.2966,-1.2619,-1.2619,-1.2363,-1.21,-1.2106,-1.2186,-1.2186,-1.1929,-1.1585,-1.1241,0.4516,0.2921,0.151,0.151,0.149,0.1473,0.1473,0.1451,0.1436,0.1436,0.0897,0.0269,-0.0628,-0.1436,-0.2423,-0.3587,-0.332,-0.3587,-0.501,-0.4654,-0.4835,-0.5644,-0.5733,-0.5733,-0.5733,-0.5733,-0.5733,-0.5733,-0.5488,-0.542,-0.5515,-0.5271,-0.5222,-0.5421,-0.5912,-0.6322,-0.6626,-0.7812,-0.8406,-0.8715,-0.936,-0.9634,-0.9812,-1.0788,-1.1149,-1.1408,-1.2357,-1.2705,-1.2705,-1.2705,-1.2705,-1.2705,-1.2705,-1.2705,-1.2705,-1.2705,-1.2705,-1.2705,-1.2705,-1.2705,-1.2705,-1.2705,-1.2705,-1.2705,-1.2705,-1.2705,-1.2705,-1.2705,-1.2705,-1.2705,-1.2705,-1.2705,-1.2705,-1.2705,-1.2705,-1.2705,-1.2705,-1.2705,-1.2705,-1.2705,-1.2705,-1.2705,-1.2705,-1.2705,-1.2705,-1.2705,-1.2705,-1.279,-1.279,-1.3052,-1.3137,-1.3137,-1.3307,-1.3392,-1.3476,-1.3652,-1.3737,-1.3737,-1.3568,-1.3483,-1.3476,-1.3222,-1.3222,-1.3392,-1.3307,-1.279,-1.21,-1.21,-1.1585,-1.0722,-1.0895,-1.0982,-1.1068,-1.1068,-1.0463,-0.9685,0.4326,0.2798,0.1447,0.1447,0.1444,0.1442,0.1442,0.1438,0.1436,0.1436,0.1345,0.0807,-0.0538,-0.1885,-0.3141,-0.4121,-0.3765,-0.4123,-0.5552,-0.5191,-0.5102,-0.5644,-0.5733,-0.5733,-0.5733,-0.5733,-0.5733,-0.5733,-0.5488,-0.5377,-0.5388,-0.5151,-0.5102,-0.5211,-0.5292,-0.5767,-0.6472,-0.6639,-0.7065,-0.7681,-0.7916,-0.8231,-0.8751,-0.9943,-1.0702,-1.1219,-1.2272,-1.2705,-1.2705,-1.2705,-1.2705,-1.2705,-1.2705,-1.2705,-1.2705,-1.2705,-1.2705,-1.2705,-1.2705,-1.2705,-1.2705,-1.2705,-1.2705,-1.2705,-1.2705,-1.2705,-1.2705,-1.2705,-1.2705,-1.2705,-1.2705,-1.2705,-1.2705,-1.2705,-1.2705,-1.2705,-1.2705,-1.2705,-1.2705,-1.2705,-1.2705,-1.2705,-1.2705,-1.2705,-1.2705,-1.2705,-1.2881,-1.3052,-1.3052,-1.3222,-1.3392,-1.3392,-1.3392,-1.3476,-1.3652,-1.3652,-1.3822,-1.4082,-1.3997,-1.3913,-1.3652,-1.2613,-1.2619,-1.3398,-1.279,-1.2448,-1.2363,-1.2363,-1.1929,-1.1149,-1.1068,-1.1068,-1.1154,-1.0376,-0.9515,-0.8911,0.4289,0.2774,0.1436,0.1436,0.1436,0.1436,0.1436,0.1436,0.1436,0.1436,0.1436,0.0897,-0.0538,-0.1974,-0.3142,-0.3853,-0.3499,-0.3678,-0.4837,-0.4746,-0.4835,-0.528,-0.5552,-0.5733,-0.5733,-0.5733,-0.5733,-0.5733,-0.5488,-0.5368,-0.5363,-0.5127,-0.5045,-0.5091,-0.5091,-0.5317,-0.5752,-0.6159,-0.6532,-0.6947,-0.7435,-0.7879,-0.8563,-0.9766,-1.0529,-1.1139,-1.2304,-1.2705,-1.2705,-1.2705,-1.2705,-1.2705,-1.2705,-1.2705,-1.2619,-1.21,-1.2272,-1.2619,-1.21,-1.2272,-1.2705,-1.2705,-1.2705,-1.2705,-1.2705,-1.2705,-1.2705,-1.2705,-1.2705,-1.2705,-1.2705,-1.2705,-1.2705,-1.2705,-1.2705,-1.2705,-1.2705,-1.2705,-1.2705,-1.2705,-1.2705,-1.279,-1.2881,-1.2875,-1.2966,-1.3052,-1.3222,-1.3307,-1.3307,-1.3483,-1.3561,-1.3561,-1.3737,-1.3828,-1.3913,-1.3913,-1.3997,-1.4088,-1.4088,-1.4004,-1.3913,-1.3398,-1.3137,-1.3052,-1.3222,-1.2448,-1.1068,-1.1585,-1.0982,-0.9777,-0.9689,-0.9689,-0.9777,-0.9345,-0.8911,-0.8652]},{"header":{"parameterUnit":"m.s-1","parameterCategory":1,"la1":30.6,"la2":28.766,"lo1":-90.7593,"lo2":-88.6598,"dy":0.0162,"dx":0.0183,"nx":116,"ny":114,"refTime":"2023-10-09T18:00:00:Z","depth":0,"parameterNumber":3,"parameterNumberName":"V-component_of_WINDS"},"data":[0.0,0.0,0.0,0.0,0.0,0.0,0.0,0.0,0.0,0.0,0.0,0.0,0.0,0.0,0.0,0.0,0.0,0.0,0.0,0.0,0.0,0.0,0.0,0.0,0.0,0.0,0.0,0.0,0.0,0.0,0.0,0.0,0.0,0.0,0.0,0.0,0.0,0.0,0.0,0.0,0.0,0.0,0.0,0.0,0.0,0.0,0.0,0.0,0.0,0.0,0.0,0.0,0.0,0.0,0.0,0.0,0.0,0.0,0.0,0.0,0.0,0.0,0.0,0.0,0.0,0.0,0.0,0.0,0.0,0.0,0.0,0.0,0.0,0.0,0.0,0.0,0.0,0.0,0.0,0.0,0.0,0.0,0.0,0.0,0.0,0.0,0.0,0.0,0.0,0.0,0.0,0.0,0.0,0.0,0.0,0.0,0.0,0.0,0.0,0.0,0.0,0.0,0.0,0.0,0.0,0.0,0.0,0.0,0.0,0.0,0.0,0.0,0.0,0.0,0.0,0.0,0.0,0.0,0.0,0.0,0.0,0.0,0.0,0.0,0.0,0.0,0.0,0.0,0.0,0.0,0.0,0.0,0.0,0.0,0.0,0.0,0.0,0.0,0.0,0.0,0.0,0.0,0.0,0.0,0.0,0.0,0.0,0.0,0.0,0.0,0.0,0.0,0.0,0.0,0.0,0.0,0.0,0.0,0.0,0.0,0.0,0.0,0.0,0.0,0.0,0.0,0.0,0.0,0.0,0.0,0.0,0.0,0.0,0.0,0.0,0.0,0.0,0.0,0.0,0.0,0.0,0.0,0.0,0.0,0.0,0.0,0.0,0.0,0.0,0.0,0.0,0.0,0.0,0.0,0.0,0.0,0.0,0.0,0.0,0.0,0.0,0.0,0.0,0.0,0.0,0.0,0.0,0.0,0.0,0.0,0.0,0.0,0.0,0.0,0.0,0.0,0.0,0.0,0.0,0.0,0.0,0.0,0.0,0.0,0.0,0.0,0.0,0.0,0.0,0.0,0.0,0.0,0.0,0.0,0.0,0.0,0.0,0.0,0.0,0.0,0.0,0.0,0.0,0.0,0.0,0.0,0.0,0.0,0.0,0.0,0.0,0.0,0.0,0.0,0.0,0.0,0.0,0.0,0.0,0.0,0.0,0.0,0.0,0.0,0.0,0.0,0.0,0.0,0.0,0.0,0.0,0.0,0.0,0.0,0.0,0.0,0.0,0.0,0.0,0.0,0.0,0.0,0.0,0.0,0.0,0.0,0.0,0.0,0.0,0.0,0.0,0.0,0.0,0.0,0.0,0.0,0.0,0.0,0.0,0.0,0.0,0.0,0.0,0.0,0.0,0.0,0.0,0.0,0.0,0.0,0.0,0.0,0.0,0.0,0.0,0.0,0.0,0.0,0.0,0.0,0.0,0.0,0.0,0.0,0.0,0.0,0.0,0.0,0.0,0.0,0.0,0.0,0.0,0.0,0.0,0.0,0.0,0.0,0.0,0.0,0.0,0.0,0.0,0.0,0.0,0.0,0.0,0.0,0.0,0.0,0.0,0.0,0.0,0.0,0.0,0.0,0.0,0.0,0.0,0.0,0.0,0.0,0.0,0.0,0.0,0.0,0.0,0.0,0.0,0.0,0.0,0.0,0.0,0.0,0.0,0.0,0.0,0.0,0.0,0.0,0.0,0.0,0.0,0.0,0.0,0.0,0.0,0.0,0.0,0.0,0.0,0.0,0.0,0.0,0.0,0.0,0.0,0.0,0.0,0.0,0.0,0.0,0.0,0.0,0.0,0.0,0.0,0.0,0.0,0.0,0.0,0.0,0.0,0.0,0.0,0.0,0.0,0.0,0.0,0.0,0.0,0.0,0.0,0.0,0.0,0.0,0.0,0.0,0.0,0.0,0.0,0.0,0.0,0.0,0.0,0.0,0.0,0.0,0.0,0.0,0.0,0.0,0.0,0.0,0.0,0.0,0.0,0.0,0.0,0.0,0.0,0.0,0.0,0.0,0.0,0.0,0.0,0.0,0.0,0.0,0.0,0.0,0.0,0.0,0.0,0.0,0.0,0.0,0.0,0.0,0.0,0.0,0.0,0.0,0.0,0.0,0.0,0.0,0.0,0.0,0.0,0.0,0.0,0.0,0.0,0.0,0.0,0.0,0.0,0.0,0.0,0.0,0.0,0.0,0.0,0.0,0.0,0.0,0.0,0.0,0.0,0.0,0.0,0.0,0.0,0.0,0.0,0.0,0.0,0.0,0.0,0.0,0.0,0.0,0.0,0.0,0.0,0.0,0.0,0.0,0.0,0.0,0.0,0.0,0.0,0.0,0.0,0.0,0.0,0.0,0.0,0.0,0.0,0.0,0.0,0.0,0.0,0.0,0.0,0.0,0.0,0.0,0.0,0.0,0.0,0.0,0.0,0.0,0.0,0.0,0.0,0.0,0.0,0.0,0.0,0.0,0.0,0.0,0.0,0.0,0.0,0.0,0.0,0.0,0.0,0.0,0.0,0.0,0.0,0.0,0.0,0.0,0.0,0.0,0.0,0.0,0.0,0.0,0.0,0.0,0.0,0.0,0.0,0.0,0.0,0.0,0.0,0.0,0.0,0.0,0.0,0.0,0.0,0.0,0.0,0.0,0.0,0.0,0.0,0.0,0.0,0.0,0.0,0.0,0.0,0.0,0.0,0.0,0.0,0.0,0.0,0.0,0.0,0.0,0.0,0.0,0.0,0.0,0.0,0.0,0.0,0.0,0.0,0.0,0.0,0.0,0.0,0.0,0.0,0.0,0.0,0.0,0.0,0.0,0.0,0.0,0.0,0.0,0.0,0.0,0.0,0.0,0.0,0.0,0.0,0.0,0.0,0.0,0.0,0.0,0.0,0.0,0.0,0.0,0.0,0.0,0.0,0.0,0.0,0.0,0.0,0.0,0.0,0.0,0.0,0.0,0.0,0.0,0.0,0.0,0.0,0.0,0.0,0.0,0.0,0.0,0.0,0.0,0.0,0.0,0.0,0.0,0.0,0.0,0.0,0.0,0.0,0.0,0.0,0.0,0.0,0.0,0.0,0.0,0.0,0.0,0.0,0.0,0.0,0.0,0.0,0.0,0.0,0.0,0.0,0.0,0.0,0.0,0.0,0.0,0.0,0.0,0.0,0.0,0.0,0.0,0.0,0.0,0.0,0.0,0.0,0.0,0.0,0.0,0.0,0.0,0.0,0.0,0.0,0.0,0.0,0.0,0.0,0.0,0.0,0.0,0.0,0.0,0.0,0.0,0.0,0.0,0.0,0.0,0.0,0.0,0.0,0.0,0.0,0.0,0.0,0.0,0.0,0.0,0.0,0.0,0.0,0.0,0.0,0.0,0.0,0.0,0.0,0.0,0.0,0.0,0.0,0.0,0.0,0.0,0.0,0.0,0.0,0.0,0.0,0.0,0.0,0.0,0.0,0.0,0.0,0.0,0.0,0.0,0.0,0.0,0.0,0.0,0.0,0.0,0.0,0.0,0.0,0.0,0.0,0.0,0.0,0.0,0.0,0.0,0.0,0.0,0.0,0.0,0.0,0.0,0.0,0.0,0.0,0.0,0.0,0.0,0.0,0.0,0.0,0.0,0.0,0.0,0.0,0.0,0.0,0.0,0.0,0.0,0.0,0.0,0.0,0.0,0.0,0.0,0.0,0.0,0.0,0.0,0.0,0.0,0.0,0.0,0.0,0.0,0.0,0.0,0.0,0.0,0.0,0.0,0.0,0.0,0.0,0.0,0.0,0.0,0.0,0.0,0.0,0.0,0.0,0.0,0.0,0.0,0.0,0.0,0.0,0.0,0.0,0.0,0.0,0.0,0.0,0.0,0.0,0.0,0.0,0.0,0.0,0.0,0.0,0.0,0.0,0.0,0.0,0.0,0.0,0.0,0.0,0.0,0.0,0.0,0.0,0.0,0.0,0.0,0.0,0.0,0.0,0.0,0.0,0.0,0.0,0.0,0.0,0.0,0.0,0.0,0.0,0.0,0.0,0.0,0.0,0.0,0.0,0.0,0.0,0.0,0.0,0.0,0.0,0.0,0.0,0.0,0.0,0.0,0.0,0.0,0.0,0.0,0.0,0.0,0.0,0.0,0.0,0.0,0.0,0.0,0.0,0.0,0.0,0.0,0.0,0.0,0.0,0.0,0.0,0.0,0.0,0.0,0.0,0.0,0.0,0.0,0.0,0.0,0.0,0.0,0.0,0.0,0.0,0.0,0.0,0.0,0.0,0.0,0.0,0.0,0.0,0.0,0.0,0.0,0.0,0.0,0.0,0.0,0.0,0.0,0.0,0.0,0.0,0.0,0.0,0.0,0.0,0.0,0.0,0.0,0.0,0.0,0.0,0.0,0.0,0.0,0.0,0.0,0.0,0.0,0.0,0.0,0.0,0.0,0.0,0.0,0.0,0.0,0.0,0.0,0.0,0.0,0.0,0.0,0.0,0.0,0.0,0.0,0.0,0.0,0.0,0.0,0.0,0.0,0.0,0.0,0.0,0.0,0.0,0.0,0.0,0.0,0.0,0.0,0.0,0.0,0.0,0.0,0.0,0.0,0.0,0.0,0.0,0.0,0.0,0.0,0.0,0.0,0.0,0.0,0.0,0.0,0.0,0.0,0.0,0.0,0.0,0.0,0.0,0.0,0.0,0.0,0.0,0.0,0.0,0.0,0.0,0.0,0.0,0.0,0.0,0.0,0.0,0.0,0.0,0.0,0.0,0.0,0.0,0.0,0.0,0.0,0.0,0.0,0.0,0.0,0.0,0.0,0.0,0.0,0.0,0.0,0.0,0.0,0.0,0.0,0.0,0.0,0.0,0.0,0.0,0.0,0.0,0.0,0.0,0.0,0.0,0.0,0.0,0.0,0.0,0.0,0.0,0.0,0.0,0.0,0.0,0.0,0.0,0.0,0.0,0.0,0.0,0.0,0.0,0.0,0.0,0.0,0.0,0.0,0.0,0.0,0.0,0.0,0.0,0.0,0.0,0.0,0.0,0.0,0.0,0.0,0.0,0.0,0.0,0.0,0.0,0.0,0.0,0.0,0.0,0.0,0.0,0.0,0.0,0.0,0.0,0.0,0.0,0.0,0.0,0.0,0.0,0.0,0.0,0.0,0.0,0.0,0.0,0.0,0.0,0.0,0.0,0.0,0.0,0.0,0.0,0.0,0.0,0.0,0.0,0.0,0.0,0.0,0.0,0.0,0.0,0.0,0.0,0.0,0.0,0.0,0.0,0.0,0.0,0.0,0.0,0.0,0.0,0.0,0.0,0.0,0.0,0.0,0.0,0.0,0.0,0.0,0.0,0.0,0.0,0.0,0.0,0.0,0.0,0.0,0.0,0.0,0.0,0.0,0.0,0.0,0.0,0.0,0.0,0.0,0.0,0.0,0.0,0.0,0.0,0.0,0.0,0.0,0.0,0.0,0.0,0.0,0.0,0.0,0.0,0.0,0.0,0.0,0.0,0.0,0.0,0.0,0.0,0.0,0.0,0.0,0.0,0.0,0.0,0.0,0.0,0.0,0.0,0.0,0.0,0.0,0.0,0.0,0.0,0.0,0.0,0.0,0.0,0.0,0.0,0.0,0.0,0.0,0.0,0.0,0.0,0.0,0.0,0.0,0.0,0.0,0.0,0.0,0.0,0.0,0.0,0.0,0.0,0.0,0.0,0.0,0.0,0.0,0.0,0.0,0.0,0.0,0.0,0.0,0.0,0.0,0.0,0.0,0.0,0.0,0.0,0.0,0.0,0.0,0.0,0.0,0.0,0.0,0.0,0.0,0.0,0.0,0.0,0.0,0.0,0.0,0.0,0.0,0.0,0.0,0.0,0.0,0.0,0.0,0.0,0.0,0.0,0.0,0.0,0.0,0.0,0.0,0.0,0.0,0.0,0.0,0.0,0.0,0.0,0.0,0.0,0.0,0.0,0.0,0.0,0.0,0.0,0.0,0.0,0.0,0.0,0.0,0.0,0.0,0.0,0.0,0.0,0.0,0.0,0.0,0.0,0.0,0.0,0.0,0.0,0.0,0.0,0.0,0.0,0.0,0.0,0.0,0.0,0.0,0.0,0.0,0.0,0.0,0.0,0.0,-2.1861,-2.1861,0.0,0.0,0.0,0.0,0.0,0.0,0.0,0.0,0.0,0.0,0.0,0.0,0.0,0.0,0.0,0.0,0.0,0.0,0.0,0.0,0.0,0.0,0.0,0.0,0.0,0.0,0.0,0.0,0.0,0.0,0.0,0.0,0.0,0.0,0.0,0.0,0.0,-2.9132,-2.9377,-2.958,-2.9714,-3.006,-2.9677,-2.8687,0.0,0.0,0.0,0.0,0.0,0.0,0.0,0.0,0.0,0.0,0.0,0.0,0.0,0.0,0.0,0.0,0.0,0.0,0.0,0.0,0.0,0.0,0.0,0.0,0.0,0.0,0.0,0.0,0.0,0.0,0.0,0.0,0.0,0.0,0.0,0.0,0.0,0.0,0.0,0.0,0.0,0.0,0.0,0.0,0.0,0.0,0.0,0.0,0.0,0.0,0.0,0.0,0.0,0.0,0.0,0.0,0.0,0.0,0.0,0.0,0.0,0.0,0.0,0.0,0.0,0.0,0.0,0.0,0.0,0.0,-2.2197,-2.2197,0.0,0.0,0.0,0.0,0.0,0.0,0.0,0.0,0.0,0.0,0.0,0.0,0.0,0.0,0.0,0.0,0.0,0.0,0.0,0.0,0.0,0.0,0.0,-2.9888,-2.9839,-2.9662,-2.9626,-2.9533,0.0,0.0,0.0,0.0,0.0,0.0,-2.9415,-2.9734,-2.9808,-2.9603,-2.9945,-3.0434,-3.1013,-3.1689,-3.107,-2.936,-2.9265,0.0,0.0,0.0,0.0,0.0,0.0,0.0,0.0,0.0,0.0,0.0,0.0,0.0,0.0,0.0,0.0,0.0,0.0,0.0,0.0,0.0,0.0,0.0,0.0,0.0,0.0,0.0,0.0,0.0,0.0,0.0,0.0,0.0,0.0,0.0,0.0,0.0,0.0,0.0,0.0,0.0,0.0,0.0,0.0,0.0,0.0,0.0,0.0,0.0,0.0,0.0,0.0,0.0,0.0,0.0,0.0,0.0,0.0,0.0,0.0,0.0,0.0,0.0,-2.2344,-2.2392,-2.2392,-2.2426,-2.2474,-2.2462,-2.2378,-2.2282,-2.2197,-2.2197,0.0,0.0,0.0,0.0,0.0,0.0,0.0,0.0,0.0,0.0,0.0,0.0,0.0,0.0,0.0,0.0,0.0,0.0,0.0,-2.9888,-2.9888,-2.9888,-2.9888,-2.9855,-2.9698,-2.9662,-2.9822,0.0,0.0,0.0,0.0,0.0,-2.9822,-2.994,-3.0248,-3.079,-3.145,-3.1921,-3.2183,-3.2109,-3.1936,-3.165,-3.1411,-3.1246,-3.1109,0.0,0.0,0.0,0.0,0.0,0.0,0.0,0.0,0.0,0.0,0.0,0.0,0.0,0.0,0.0,0.0,0.0,0.0,0.0,0.0,0.0,0.0,0.0,0.0,0.0,0.0,0.0,0.0,0.0,0.0,0.0,0.0,0.0,0.0,0.0,0.0,0.0,0.0,0.0,0.0,0.0,-2.5448,-2.4958,0.0,0.0,0.0,0.0,0.0,0.0,0.0,0.0,0.0,0.0,0.0,0.0,0.0,-2.2418,-2.2188,-2.2457,-2.2555,-2.2359,-2.2832,-2.305,-2.3062,-2.3417,-2.3568,-2.3532,-2.3075,0.0,-2.2197,-2.2197,0.0,0.0,0.0,0.0,0.0,0.0,0.0,0.0,0.0,0.0,0.0,0.0,0.0,0.0,0.0,0.0,0.0,0.0,0.0,0.0,0.0,-2.9888,-2.9888,-2.9888,-2.9822,-2.9822,-2.9888,-2.9822,0.0,0.0,0.0,-3.0116,-3.0625,-3.0712,-3.1108,-3.1887,-3.2707,-3.3178,-3.332,-3.3671,-3.3843,-3.3825,-3.3599,-3.278,-3.1537,-3.1341,0.0,0.0,0.0,0.0,0.0,0.0,0.0,0.0,0.0,0.0,0.0,0.0,0.0,0.0,0.0,0.0,0.0,0.0,0.0,0.0,0.0,0.0,0.0,0.0,0.0,0.0,0.0,0.0,0.0,0.0,0.0,0.0,0.0,0.0,0.0,0.0,0.0,0.0,0.0,-2.5616,-2.5524,-2.5301,-2.471,-2.4357,0.0,0.0,0.0,0.0,0.0,0.0,0.0,0.0,0.0,-2.3147,-2.3513,-2.3628,-2.3344,-2.3415,-2.3384,-2.332,-2.3434,-2.3542,-2.3555,-2.373,-2.3773,-2.3827,-2.352,-2.3292,-2.3039,-2.2438,-2.2197,-2.2221,0.0,0.0,0.0,0.0,-2.2934,-2.2728,0.0,0.0,0.0,0.0,0.0,0.0,0.0,0.0,0.0,0.0,0.0,0.0,-2.9888,-2.9888,-2.9888,-2.9888,-2.9888,-2.9888,-2.9888,-2.9888,-2.9888,-2.9888,-3.0097,-3.0549,-3.1193,-3.1699,-3.2279,-3.2931,-3.3808,-3.426,-3.4312,-3.4923,-3.5209,-3.5174,-3.5037,-3.4014,-3.2381,-3.2199,-3.1893,-3.1462,0.0,0.0,0.0,0.0,0.0,0.0,0.0,0.0,0.0,0.0,0.0,0.0,0.0,0.0,0.0,0.0,0.0,0.0,0.0,0.0,0.0,0.0,0.0,0.0,0.0,0.0,0.0,0.0,0.0,0.0,0.0,0.0,0.0,0.0,0.0,0.0,0.0,-2.5778,-2.5891,-2.5891,-2.5377,-2.5206,0.0,0.0,0.0,0.0,0.0,0.0,-2.4975,-2.4832,-2.4622,-2.4432,-2.4865,-2.4874,-2.4517,-2.4325,-2.4275,-2.4329,-2.4225,-2.4165,-2.4111,-2.4232,-2.4292,-2.4225,-2.4042,-2.397,-2.3893,-2.2967,-2.2594,-2.263,-2.3027,-2.3183,-2.3155,-2.3628,-2.3773,-2.364,0.0,0.0,0.0,0.0,0.0,0.0,0.0,0.0,0.0,0.0,0.0,-2.9888,-2.9888,-2.9888,-2.9888,-2.9888,-2.9888,-2.9888,-2.9888,-2.9888,-2.9888,-2.9888,-3.0701,-3.1156,-3.1212,-3.2838,-3.3724,-3.3827,-3.4704,-3.5141,-3.5152,-3.519,-3.5209,-3.5209,-3.5198,-3.4963,-3.454,-3.4267,-3.3659,-3.2897,-3.286,0.0,0.0,0.0,0.0,0.0,0.0,0.0,0.0,0.0,0.0,0.0,0.0,0.0,0.0,0.0,0.0,0.0,0.0,0.0,0.0,0.0,0.0,0.0,0.0,0.0,0.0,0.0,0.0,0.0,0.0,0.0,0.0,0.0,0.0,0.0,0.0,0.0,0.0,-2.6636,-2.6821,0.0,0.0,0.0,0.0,-2.6497,-2.5878,-2.548,-2.5356,-2.5923,-2.5662,-2.4262,-2.5651,-2.6003,-2.5268,-2.4911,-2.4924,-2.5256,-2.5244,-2.5185,-2.5074,-2.5347,-2.5496,-2.5451,-2.4755,-2.4493,-2.4446,-2.3917,-2.3688,-2.3688,-2.3725,-2.3658,-2.3525,-2.3682,-2.3573,-2.3305,0.0,0.0,0.0,0.0,0.0,0.0,0.0,0.0,-2.9888,-2.9888,-2.9888,-2.9888,-2.9888,-2.9888,-2.9888,-2.9888,-2.9888,-2.9888,-2.9888,-3.0435,-3.0772,-3.0868,-3.1585,-3.2272,-3.2857,-3.4032,-3.4655,-3.4742,-3.5047,-3.5198,-3.5209,-3.5209,-3.5209,-3.5209,-3.5193,-3.5126,-3.5001,-3.4653,-3.4207,-3.3738,-3.3199,-3.2762,0.0,0.0,0.0,0.0,0.0,0.0,0.0,0.0,0.0,0.0,0.0,0.0,0.0,0.0,0.0,0.0,0.0,0.0,0.0,0.0,0.0,0.0,0.0,0.0,0.0,0.0,0.0,0.0,0.0,0.0,0.0,0.0,0.0,0.0,0.0,0.0,0.0,-2.7284,-2.7214,0.0,-2.7384,-2.6837,-2.6768,-2.7513,-2.7108,-2.7042,-2.7497,-2.7627,-2.7209,-2.625,-2.7074,-2.6939,-2.5729,-2.6215,-2.6332,-2.6013,-2.626,-2.6331,-2.6282,-2.6382,-2.6445,-2.6431,-2.6139,-2.5828,-2.5528,-2.5348,-2.4675,-2.3797,-2.4133,-2.4186,-2.4222,-2.4638,-2.4689,-2.4551,0.0,0.0,0.0,0.0,0.0,0.0,0.0,0.0,-2.9888,-2.9888,-2.9888,-2.9888,-2.9888,-2.9888,-2.9888,-2.9888,-2.9888,-3.0021,-3.0305,-3.089,-3.1393,-3.1787,-3.2556,-3.3396,-3.4287,-3.489,-3.5223,-3.5273,-3.5285,-3.5285,-3.527,-3.527,-3.5239,-3.5209,-3.5209,-3.5196,-3.5147,-3.487,-3.4651,-3.442,-3.3858,-3.3608,-3.3374,0.0,0.0,0.0,0.0,0.0,0.0,0.0,0.0,0.0,0.0,0.0,0.0,0.0,0.0,0.0,0.0,0.0,0.0,0.0,0.0,0.0,0.0,0.0,0.0,0.0,0.0,0.0,0.0,0.0,0.0,0.0,0.0,0.0,0.0,-2.7185,-2.7575,-2.8012,-2.8062,-2.8204,-2.8526,-2.7837,-2.7745,-2.8628,-2.8068,-2.7937,-2.8468,-2.8584,-2.8278,-2.7612,-2.8339,-2.817,-2.6985,-2.7544,-2.7619,-2.7014,-2.7066,-2.7115,-2.7127,-2.7115,-2.7077,-2.7085,-2.6995,-2.6779,-2.6382,-2.6382,-2.5769,-2.4831,-2.4795,-2.4783,-2.4831,-2.546,-2.5652,-2.5664,0.0,0.0,0.0,0.0,0.0,0.0,-2.994,-2.9905,-2.9905,-2.9888,-2.9905,-2.9905,-2.9888,-2.9888,-2.9888,-2.9888,-2.9888,-3.0267,-3.1137,-3.1231,-3.1678,-3.2645,-3.3623,-3.451,-3.5296,-3.5383,-3.5399,-3.5387,-3.5481,-3.5476,-3.5405,-3.5405,-3.534,-3.5209,-3.5209,-3.516,-3.5092,-3.5092,-3.5057,-3.5001,-3.4927,-3.4791,-3.4435,0.0,0.0,0.0,0.0,0.0,0.0,0.0,0.0,0.0,0.0,0.0,0.0,0.0,0.0,0.0,0.0,0.0,0.0,0.0,0.0,0.0,0.0,0.0,0.0,0.0,0.0,0.0,0.0,0.0,0.0,0.0,0.0,0.0,-2.7316,-2.8119,-2.8848,-2.8854,-2.9513,-3.0077,-3.0494,-2.9826,-2.9506,-2.9932,-2.889,-2.8254,-2.8355,-2.8736,-2.8703,-2.8229,-2.9403,-2.9734,-2.908,-2.8864,-2.8579,-2.8265,-2.7755,-2.757,-2.757,-2.7505,-2.7492,-2.7507,-2.7315,-2.7128,-2.6959,-2.6959,-2.6947,-2.6827,-2.5757,-2.5336,-2.5407,-2.6151,-2.6414,-2.6483,0.0,0.0,0.0,0.0,0.0,0.0,-3.0064,-3.0049,-3.0,-2.9905,-2.9984,-3.0019,-2.9905,-2.9888,-2.9888,-2.9888,-2.9888,-3.0267,-3.1137,-3.1762,-3.2779,-3.4342,-3.4913,-3.5218,-3.5296,-3.5405,-3.5451,-3.5387,-3.5512,-3.5519,-3.5405,-3.5405,-3.534,-3.5209,-3.5196,-3.5181,-3.5183,-3.5075,-3.502,-3.5001,-3.4927,-3.487,-3.4698,0.0,0.0,0.0,0.0,0.0,0.0,0.0,0.0,0.0,0.0,0.0,0.0,0.0,0.0,0.0,0.0,0.0,0.0,0.0,0.0,0.0,0.0,0.0,0.0,0.0,0.0,0.0,0.0,0.0,0.0,0.0,-3.0381,-3.0162,-2.8857,-2.8984,-2.9459,-3.0214,-3.0506,-3.0819,-3.1278,-3.0363,-3.0075,-3.0937,-2.9591,-2.9387,-3.0849,-3.0535,-3.0474,-3.0913,-3.1021,-3.0726,-2.9984,-2.9737,-2.9378,-2.895,-2.8476,-2.8288,-2.8407,-2.8258,-2.8192,-2.8234,-2.8204,-2.7909,-2.7512,-2.7512,-2.7284,-2.6863,-2.6154,-2.5877,-2.5901,-2.6288,-2.6676,-2.7056,0.0,0.0,0.0,0.0,0.0,0.0,-3.018,-3.018,-3.0138,-3.0,-3.0064,-3.0049,-2.9905,-2.9888,-2.9888,-2.9888,-3.0229,-3.0814,-3.1648,-3.2889,-3.4075,-3.5149,-3.5476,-3.5604,-3.5476,-3.5538,-3.5566,-3.5523,-3.562,-3.5629,-3.5519,-3.5519,-3.5445,-3.5326,-3.527,-3.5226,-3.5179,-3.5056,-3.4964,-3.4945,-3.4927,-3.4908,-3.4813,-3.4017,-3.3091,-3.2109,-3.1299,-3.0396,-2.9551,-2.9532,0.0,0.0,0.0,0.0,0.0,0.0,0.0,0.0,0.0,0.0,0.0,0.0,0.0,0.0,0.0,0.0,0.0,0.0,0.0,0.0,0.0,0.0,0.0,0.0,-3.1305,-3.1104,-3.0229,-3.0145,-3.0346,-3.0814,-3.1186,-3.1515,-3.1819,-3.113,-3.0991,-3.1779,-3.069,-3.06,-3.1922,-3.1425,-3.1353,-3.1838,-3.1924,-3.1431,-3.0328,-3.0748,-3.0316,-2.8889,-2.9384,-2.9394,-2.8937,-2.925,-2.9118,-2.8736,-2.8736,-2.8488,-2.8053,-2.8419,-2.8378,-2.8022,0.0,0.0,0.0,0.0,-2.7756,-2.8517,0.0,0.0,0.0,0.0,0.0,0.0,-3.0318,-3.0292,-3.0253,-3.0123,-3.0109,-3.0079,-2.9905,-2.9905,-2.9905,-2.9888,-3.0625,-3.1402,-3.2234,-3.4101,-3.5177,-3.5177,-3.5514,-3.5704,-3.5704,-3.5698,-3.5708,-3.5708,-3.5773,-3.5754,-3.5699,-3.5699,-3.5618,-3.5483,-3.5372,-3.5277,-3.5193,-3.5054,-3.4964,-3.4908,-3.4908,-3.4908,-3.4813,-3.4112,-3.324,-3.2312,-3.1574,-3.0722,-2.9891,-2.9825,0.0,0.0,0.0,0.0,0.0,0.0,0.0,0.0,0.0,0.0,0.0,0.0,0.0,0.0,0.0,0.0,0.0,0.0,0.0,0.0,0.0,0.0,0.0,0.0,-3.1671,-3.1521,-3.123,-3.1416,-3.1484,-3.1086,-3.1688,-3.2208,-3.2399,-3.2118,-3.2129,-3.2643,-3.2075,-3.184,-3.2299,-3.1834,0.0,0.0,0.0,-3.2041,-3.0559,-3.1744,-3.118,-2.8961,-3.0443,-3.0519,-2.9353,-3.0241,-3.0165,-2.9275,-2.9275,-2.9118,-2.8803,-2.9561,-2.9858,-2.9897,-2.8771,-2.7902,-2.7373,-2.8202,-2.9349,-3.0317,0.0,0.0,0.0,0.0,0.0,0.0,-3.0375,-3.0323,-3.0253,-3.0123,-3.018,-3.0166,-2.9921,-3.0003,-3.0034,-2.9905,-3.004,-3.0563,-3.1531,-3.336,-3.4404,-3.4404,-3.5241,-3.5704,-3.5704,-3.5698,-3.5708,-3.5708,-3.5773,-3.5736,-3.5629,-3.5629,-3.5543,-3.5418,-3.5402,-3.53,-3.519,-3.5105,-3.5,-3.4908,-3.4908,-3.4908,-3.4889,-3.4737,-3.3714,-3.237,-3.2146,-3.1108,-2.9808,-2.9738,-2.9645,-2.9551,-2.9512,-2.9451,0.0,0.0,0.0,0.0,0.0,0.0,0.0,0.0,0.0,0.0,0.0,0.0,0.0,0.0,0.0,0.0,0.0,0.0,0.0,-3.1593,-3.1596,-3.1521,-3.123,-3.216,-3.264,-3.2105,-3.2574,-3.3145,-3.3675,-3.3408,-3.341,-3.392,-3.3036,-3.3018,-3.4358,-3.3056,-3.2713,-3.3821,-3.3419,-3.3059,-3.2693,-3.2335,-3.2015,-3.1663,-3.1193,0.0,-3.0771,-3.0833,-3.0745,-3.0519,-3.0519,-3.0532,-3.0443,-3.0594,-3.1044,-3.1496,-3.021,-2.9731,-2.9731,-2.99,-3.0184,-3.0437,0.0,0.0,0.0,0.0,0.0,0.0,-3.0439,-3.0417,-3.0348,-3.0215,-3.0266,-3.0226,-3.0003,-3.0064,-3.0049,-2.9905,-3.0352,-3.1023,-3.1943,-3.3369,-3.4199,-3.4199,-3.5156,-3.5704,-3.5704,-3.5697,-3.5707,-3.5707,-3.5737,-3.5718,-3.5649,-3.5649,-3.5618,-3.5543,-3.547,-3.5383,-3.5239,-3.5138,-3.5018,-3.4908,-3.4908,-3.4908,-3.4851,-3.4453,-3.3505,-3.2332,-3.1826,-3.0845,-2.979,-2.9645,-2.955,-2.9492,-2.9451,-2.9429,-2.9386,0.0,0.0,0.0,0.0,0.0,0.0,0.0,0.0,0.0,0.0,0.0,0.0,0.0,0.0,-3.2144,-3.1691,0.0,-3.1614,-3.1559,-3.1504,-3.1526,-3.1834,-3.2778,-3.3246,-3.2652,-3.3348,-3.3844,-3.3917,-3.3931,-3.3989,-3.412,-3.3849,-3.4092,-3.5033,-3.3891,-3.3579,-3.4235,-3.373,-3.3241,-3.2704,-3.2775,-3.2475,-3.1649,-3.216,-3.1955,-3.122,-3.1769,-3.1696,-3.1057,-3.1132,-3.1119,-3.097,-3.1328,-3.1942,-3.2662,-3.1932,-3.1774,-3.1764,-3.1088,-3.1075,-3.1349,0.0,0.0,0.0,0.0,0.0,0.0,0.0,-3.0469,-3.0375,-3.0279,-3.0234,-3.0171,-3.0041,-3.0068,-3.0034,-2.9905,-3.0677,-3.1459,-3.2057,-3.3127,-3.38,-3.3961,-3.4925,-3.553,-3.5704,-3.5704,-3.5704,-3.5704,-3.5704,-3.5706,-3.5689,-3.5689,-3.5689,-3.5708,-3.5588,-3.547,-3.5345,-3.5187,-3.507,-3.4945,-3.4908,-3.4775,-3.4548,-3.3733,-3.2995,-3.2276,-3.1317,-3.0433,-2.97,-2.9531,-2.9491,-2.9471,-2.945,-2.9429,-2.9429,-2.9409,-2.9813,0.0,0.0,0.0,0.0,0.0,0.0,0.0,0.0,-3.3113,-3.3262,-3.2894,-3.257,-3.2214,-3.1748,-3.1559,-3.15,-3.1521,-3.1389,-3.1584,-3.24,-3.3155,-3.3524,-3.3282,-3.3947,-3.4284,-3.3848,-3.4197,-3.4357,-3.4132,-3.4683,-3.513,-3.5464,-3.4624,-3.4153,-3.4274,-3.3785,-3.3157,-3.2318,-3.3157,-3.2775,-3.1415,-3.3002,-3.3002,-3.1663,-3.2747,-3.2605,-3.1603,-3.1809,-3.1663,-3.1429,-3.2087,-3.2704,-3.3326,-3.3326,-3.3326,-3.3185,-3.2011,-3.1972,-3.226,0.0,0.0,0.0,0.0,0.0,0.0,0.0,0.0,-3.0152,-3.0118,-2.9965,-2.982,-2.9756,-2.991,-2.9972,-2.9924,-3.0233,-3.0398,-3.0376,-3.1453,-3.2383,-3.3099,-3.4047,-3.4911,-3.5684,-3.5704,-3.5704,-3.5704,-3.5704,-3.5715,-3.5695,-3.5695,-3.5695,-3.5695,-3.5684,-3.5608,-3.547,-3.5326,-3.5203,-3.507,-3.4945,-3.4415,-3.3582,-3.277,-3.2411,-3.2166,-3.1184,-3.028,-2.9512,-2.9429,-2.9427,-2.9429,-2.9532,-2.957,-2.9589,-2.9716,-2.9645,-2.969,-3.0376,-3.0974,-3.1642,-3.258,-3.2718,-3.2797,0.0,-3.3652,-3.3541,-3.3202,-3.2848,-3.242,-3.1966,-3.1671,-3.144,-3.1269,-3.1274,-3.1584,-3.24,-3.3032,-3.3702,-3.4423,-3.4319,-3.4219,-3.4234,-3.4609,-3.4815,-3.4778,-3.5554,-3.6134,-3.6352,-3.4942,-3.4341,-3.4824,-3.3839,-3.3241,-3.3171,-3.3255,-3.3241,-3.3016,-3.3241,-3.3241,-3.31,-3.3241,-3.3241,-3.31,-3.31,-3.3086,-3.3016,-3.31,-3.3241,-3.3326,-3.3326,-3.3326,-3.3312,-3.3087,-3.2793,-3.2398,0.0,0.0,0.0,0.0,0.0,0.0,0.0,0.0,0.0,-3.0,-2.9886,-2.9786,-2.9755,-2.9809,-2.9823,-2.9836,-2.995,-3.003,-3.0034,-3.1013,-3.1775,-3.222,-3.3547,-3.448,-3.493,-3.5433,-3.5704,-3.5704,-3.5704,-3.5704,-3.5704,-3.5704,-3.5704,-3.5704,-3.5704,-3.5639,-3.5502,-3.5443,-3.5345,-3.5203,-3.4999,-3.4377,-3.3506,-3.2504,-3.1842,-3.1296,-3.0393,-2.9811,0.0,-2.9409,-2.9407,-2.9388,-2.9431,-2.9511,-2.9607,-2.957,-2.9907,-3.0544,-3.1834,-3.2683,-3.3283,-3.3626,-3.3623,-3.3566,-3.3707,-3.3569,-3.3273,-3.2813,-3.2486,-3.2127,-3.1637,-3.1466,-3.1368,-3.1274,-3.1252,-3.1676,-3.288,-3.3262,-3.3889,-3.5179,-3.4885,-3.4431,-3.4152,-3.4521,-3.4754,-3.4663,-3.5353,-3.5999,-3.6461,-3.5559,-3.5154,-3.535,-3.4288,-3.377,-3.377,-3.3452,-3.3326,-3.3326,-3.3396,-3.3396,-3.3326,-3.3536,-3.3605,-3.3466,-3.3326,-3.3326,-3.3326,-3.3326,-3.3326,-3.3326,-3.3326,-3.3326,-3.3326,-3.3326,-3.3157,-3.2932,0.0,0.0,0.0,0.0,0.0,0.0,0.0,0.0,0.0,0.0,-2.9751,-2.9699,-2.9718,-2.9664,-2.9682,-2.9751,-2.9784,-2.9836,-2.991,-3.0617,-3.1169,-3.1513,-3.2763,-3.3723,-3.4295,-3.4966,-3.5452,-3.5704,-3.5704,-3.5704,-3.5704,-3.5704,-3.5704,-3.5704,-3.5673,-3.562,-3.5528,-3.5489,-3.5422,-3.5296,-3.4819,-3.4106,-3.3254,-3.2146,-3.1199,-3.0393,-2.9696,-2.9471,-2.9471,-2.9451,-2.9409,-2.9407,-2.9491,-2.9569,-2.9626,-2.9608,-3.0415,-3.1563,-3.2729,-3.3761,-3.4464,-3.4302,-3.4203,-3.4074,-3.3753,-3.3397,-3.3032,-3.2651,-3.2214,-3.1823,-3.147,-3.1334,-3.1274,-3.1274,-3.1213,-3.1715,-3.3203,-3.3406,-3.3964,-3.5542,-3.5178,-3.4577,-3.4036,-3.4338,-3.4534,-3.4472,-3.5106,-3.5768,-3.6445,-3.6022,-3.5688,-3.5688,-3.481,-3.4274,-3.407,-3.3701,-3.3452,-3.3326,-3.3466,-3.3466,-3.3326,-3.3605,-3.3675,-3.3536,-3.3396,-3.3326,-3.3326,-3.3326,-3.3326,-3.3326,-3.3326,-3.3326,-3.3326,-3.3326,-3.3326,-3.3326,0.0,0.0,0.0,0.0,0.0,0.0,0.0,0.0,0.0,0.0,0.0,0.0,0.0,-2.9512,-2.9569,-2.9683,-2.977,-2.9769,-2.9701,-2.9924,-3.0361,-3.1082,-3.1427,-3.2384,-3.407,-3.426,-3.4792,-3.5704,-3.5704,-3.5704,-3.5704,-3.5704,-3.5704,-3.5704,-3.5643,-3.5601,-3.5589,-3.5449,-3.5412,-3.5321,-3.4324,-3.3369,-3.2431,-3.1408,-3.0452,-2.9608,-2.945,-2.9407,-2.9409,-2.9551,-2.9472,-2.939,-2.9905,-2.9905,-2.9751,-3.009,-3.121,-3.2371,-3.2406,-3.343,-3.4467,-3.4401,-3.4255,-3.4023,-3.3671,-3.328,-3.3006,-3.2993,-3.2317,-3.1714,-3.1677,-3.1428,-3.119,-3.119,-3.119,-3.1715,-3.3203,-3.3406,-3.3964,-3.5453,-3.5131,-3.4577,-3.4036,-3.4133,-3.4265,-3.4472,-3.5106,-3.5768,-3.6445,-3.6022,-3.5688,-3.5688,-3.5139,-3.461,-3.407,-3.407,-3.3825,-3.3326,-3.3326,-3.3326,-3.3326,-3.3326,-3.3326,-3.3326,-3.3326,-3.3326,-3.3326,-3.3326,-3.3326,-3.3326,-3.3326,-3.3326,-3.3326,-3.3326,-3.3326,-3.3326,0.0,0.0,0.0,0.0,0.0,0.0,0.0,0.0,0.0,0.0,0.0,0.0,0.0,0.0,0.0,0.0,-2.9511,-2.9531,-2.9569,-2.9626,-2.9848,-3.0217,-3.0956,-3.1675,-3.2365,-3.3646,-3.4438,-3.4778,-3.5357,-3.5628,-3.5628,-3.5628,-3.5628,-3.5628,-3.5616,-3.5596,-3.5596,-3.5547,-3.5194,-3.4623,-3.4112,-3.3081,-3.1775,-3.1265,-3.0538,-2.9769,0.0,-2.9492,-2.953,-2.9589,-2.9608,-2.9664,-2.9787,-2.9857,-2.9945,-3.0142,-3.1325,-3.2578,-3.2542,-3.3728,-3.487,-3.4423,-3.4288,-3.4093,-3.3643,-3.3268,-3.2912,-3.2586,-3.2109,-3.162,-3.1428,-3.1291,-3.119,-3.119,-3.119,-3.1529,-3.2527,-3.3085,-3.3778,-3.4759,-3.5121,-3.4975,-3.4086,-3.4133,-3.4265,-3.4472,-3.5106,-3.5768,-3.6445,-3.6352,-3.6226,-3.6226,-3.5688,-3.535,-3.5139,-3.4476,-3.4016,-3.3825,-3.3452,-3.3326,-3.3326,-3.3326,-3.3326,-3.3326,-3.3326,-3.3326,-3.3326,-3.3326,-3.3326,-3.3326,-3.3326,-3.3326,-3.3326,-3.3326,-3.3326,-3.3326,0.0,0.0,0.0,0.0,0.0,0.0,0.0,0.0,0.0,0.0,0.0,0.0,0.0,0.0,0.0,0.0,0.0,-2.9409,-2.9451,-2.9471,-2.9512,-2.9644,-3.0593,-3.1331,-3.1749,-3.333,-3.4308,-3.4648,-3.5277,-3.5591,-3.5591,-3.5591,-3.5418,-3.5128,-3.5097,-3.4943,-3.4673,-3.4641,-3.4313,-3.3762,-3.33,-3.2478,-3.1519,-3.0937,-3.0421,0.0,-2.9696,-2.9662,-2.9737,-2.9664,-2.97,-2.9789,-2.9853,-2.9956,-3.0091,-3.0147,-3.1359,-3.2641,-3.261,-3.3781,-3.4908,-3.4379,-3.42,-3.4,-3.3559,-3.3178,-3.283,-3.2385,-3.1967,-3.1582,-3.1252,-3.119,-3.119,-3.119,-3.119,-3.1444,-3.2212,-3.2933,-3.3677,-3.4404,-3.4818,-3.4769,-3.4086,-3.4175,-3.4338,-3.4503,-3.5106,-3.5768,-3.6445,-3.6492,-3.6492,-3.6492,-3.6163,-3.5816,-3.5415,-3.4743,-3.4221,-3.3825,-3.3437,-3.3326,-3.3326,-3.3326,-3.3326,-3.3326,-3.3326,-3.3326,-3.3326,-3.3326,-3.3326,-3.3326,-3.3326,-3.3326,-3.3326,-3.3326,-3.3452,-3.3577,0.0,0.0,0.0,0.0,0.0,0.0,0.0,0.0,0.0,0.0,0.0,0.0,0.0,0.0,0.0,0.0,0.0,0.0,-2.9407,-2.9407,-2.9407,-2.9407,-3.0298,-3.1223,-3.2109,-3.3282,-3.4316,-3.5209,-3.5457,-3.5579,-3.5579,-3.5591,-3.5148,-3.4357,-3.4282,-3.3846,-3.3114,-3.3,-3.2949,-3.2833,-3.2025,-3.1679,-3.1532,-3.0502,-3.0114,-3.0075,-2.9867,-2.9886,-2.9988,-2.9784,-2.9715,-2.9769,-3.0104,-3.0213,-3.019,-3.0113,-3.1276,-3.2553,-3.2578,-3.36,-3.4555,-3.4269,-3.3981,-3.3733,-3.3462,-3.3099,-3.2731,-3.2368,-3.2003,-3.162,-3.1269,-3.119,-3.119,-3.119,-3.119,-3.1427,-3.2138,-3.2899,-3.366,-3.431,-3.4211,-3.4036,-3.3969,-3.4289,-3.4534,-3.4475,-3.5122,-3.5814,-3.6461,-3.6492,-3.6492,-3.6492,-3.6492,-3.6022,-3.5008,-3.4957,-3.4356,-3.3312,-3.3312,-3.3326,-3.3326,-3.3326,-3.3326,-3.3326,-3.3326,-3.3326,-3.3326,-3.3326,-3.3326,-3.3326,-3.3312,-3.3312,-3.3312,-3.3382,-3.3701,-3.4138,0.0,0.0,0.0,0.0,0.0,0.0,0.0,0.0,0.0,0.0,0.0,0.0,0.0,0.0,0.0,0.0,0.0,0.0,-2.9407,-2.9407,-2.9407,-2.9407,-3.0298,-3.0922,-3.1148,-3.2825,-3.3786,-3.4032,-3.4901,-3.5304,-3.5304,-3.546,-3.5418,-3.5187,-3.5174,-3.5059,-3.4828,-3.4141,-3.3487,-3.2833,-3.2025,-3.1314,-3.0706,-3.0369,-3.026,-3.0203,-2.9851,-2.9918,-3.0133,-2.9969,-3.0003,-3.0079,-3.0171,-3.0199,-3.019,-3.0117,-3.086,-3.1832,-3.2376,-3.3128,-3.3797,-3.4106,-3.4005,-3.3734,-3.3481,-3.3334,-3.3086,-3.2419,-3.2214,-3.1967,-3.1329,-3.119,-3.119,-3.119,-3.119,-3.1258,-3.1444,-3.2594,-3.333,-3.309,-3.3961,-3.4268,-3.3495,-3.4439,-3.4951,-3.4534,-3.5568,-3.6307,-3.6476,-3.6492,-3.6492,-3.6492,-3.6492,-3.6367,-3.6085,-3.5285,-3.4543,-3.3894,-3.3507,-3.3326,-3.3326,-3.3326,-3.3326,-3.3326,-3.3326,-3.3326,-3.3326,-3.3326,-3.3326,-3.3312,-3.377,-3.3894,-3.3948,-3.4356,-3.4558,-3.4743,0.0,0.0,0.0,0.0,0.0,0.0,0.0,0.0,0.0,0.0,0.0,0.0,0.0,0.0,0.0,0.0,0.0,0.0,0.0,-2.9407,-2.9407,-2.9407,-3.0236,-3.0895,-3.1211,-3.2691,-3.3656,-3.4034,-3.4717,-3.5107,-3.5209,-3.5324,-3.5206,-3.493,-3.493,-3.4526,-3.3795,-3.3314,-3.2602,0.0,0.0,-3.079,-3.0348,-3.0311,-3.0222,-3.0084,-2.9864,-2.9902,-3.0049,-2.9975,-3.0053,-3.0204,-3.0204,-3.0204,-3.019,-3.0117,-3.0646,-3.1381,-3.2127,-3.2687,-3.3204,-3.387,-3.3815,-3.3577,-3.3422,-3.3393,-3.3196,-3.2453,-3.2317,-3.2074,-3.1329,-3.119,-3.119,-3.119,-3.119,-3.119,-3.119,-3.2294,-3.2944,-3.2618,-3.3499,-3.3982,-3.3662,-3.4462,-3.4976,-3.495,-3.5891,-3.6492,-3.6492,-3.6492,-3.6492,-3.6492,-3.6492,-3.6289,-3.5816,-3.5219,-3.4491,-3.377,-3.3701,-3.3507,-3.3326,-3.3326,-3.3326,-3.3326,-3.3326,-3.3437,-3.3632,-3.3632,-3.377,-3.4031,-3.4356,-3.4476,-3.4476,-3.481,-3.5073,-3.5285,0.0,0.0,0.0,0.0,0.0,0.0,0.0,0.0,0.0,0.0,0.0,0.0,0.0,0.0,0.0,0.0,0.0,0.0,0.0,0.0,-2.9407,-2.9407,-3.0169,-3.0931,-3.1615,-3.2711,-3.362,-3.4389,-3.4695,-3.4945,-3.5157,-3.5193,-3.4845,-3.4199,-3.4199,-3.3333,-3.184,-3.1744,-3.1244,-3.054,-3.0362,-3.0304,-3.0292,0.0,-3.0095,-2.9889,-2.9869,-2.9842,-2.981,-2.9857,-3.0019,-3.0185,-3.0166,-3.0147,-3.0133,-3.0034,-3.0385,-3.0979,-3.182,-3.2242,-3.2632,-3.3568,-3.3605,-3.3411,-3.3316,-3.3334,-3.3117,-3.2385,-3.2214,-3.2003,-3.1329,-3.119,-3.119,-3.119,-3.119,-3.119,-3.1112,-3.1967,-3.2557,-3.2422,-3.285,-3.3467,-3.4053,-3.4317,-3.4752,-3.543,-3.6107,-3.6492,-3.6492,-3.6492,-3.6492,-3.6492,-3.6492,-3.6022,-3.5154,-3.5008,-3.4491,-3.3521,-3.3894,-3.3825,-3.3326,-3.3326,-3.3326,-3.3326,-3.3382,-3.3701,-3.407,-3.4206,-3.4476,-3.4876,-3.4942,-3.5023,-3.5008,-3.5088,-3.5415,-3.5816,0.0,0.0,0.0,0.0,0.0,0.0,0.0,0.0,0.0,0.0,-2.9407,-2.9407,0.0,0.0,0.0,0.0,0.0,0.0,0.0,0.0,0.0,-2.9407,-3.0169,-3.0671,-3.082,-3.2273,-3.3134,-3.3283,-3.4202,-3.4751,-3.4964,-3.5124,-3.4845,-3.4199,-3.4134,-3.3582,-3.2628,-3.1924,-3.1527,-3.1335,-3.0593,-3.0305,-3.0279,-3.0052,0.0,0.0,-2.9716,-2.9555,-2.9416,-2.9585,-2.9856,-3.0109,-2.9994,-2.9904,-2.9827,-2.9586,-2.9587,-2.9992,-3.1384,-3.1658,-3.1891,-3.3421,-3.3605,-3.3316,-3.2988,-3.2908,-3.2699,-3.1967,-3.1787,-3.1694,-3.1252,-3.119,-3.119,-3.119,-3.119,-3.1055,-3.0699,-3.1779,-3.2285,-3.1486,-3.2447,-3.3307,-3.3491,-3.4102,-3.4752,-3.543,-3.6107,-3.6492,-3.6492,-3.6492,-3.6492,-3.6492,-3.6492,-3.6429,-3.6226,-3.5752,-3.5219,-3.4624,-3.4288,-3.3825,-3.3326,-3.3326,-3.3326,-3.3312,-3.3756,-3.4016,-3.4138,-3.461,-3.481,-3.4942,-3.5415,-3.5559,-3.5623,-3.6085,-3.6289,-3.6352,0.0,0.0,0.0,0.0,0.0,0.0,0.0,-2.9407,-2.9407,-2.9407,-2.9407,-2.9407,-2.9407,-2.9407,-2.9407,0.0,0.0,0.0,0.0,0.0,0.0,-2.9407,-2.9779,-3.0169,-3.0597,-3.1377,-3.2154,-3.299,0.0,-3.4151,-3.4832,-3.4471,-3.426,-3.4126,-3.3632,-3.2966,-3.2198,-3.1782,-3.1328,-3.0887,-3.042,-3.0194,-3.0085,-2.995,0.0,0.0,-2.9354,-2.9297,-2.931,-2.936,-2.9551,-2.9738,-2.9707,-2.9658,-2.957,-2.9416,-2.9573,-3.0058,-3.1191,-3.1634,-3.2065,-3.3295,-3.3357,-3.3037,-3.2827,-3.2666,-3.2368,-3.1823,-3.1677,-3.1582,-3.1252,-3.119,-3.119,-3.119,-3.1015,-3.074,-3.0518,-3.0952,-3.126,-3.1112,-3.1804,-3.2711,-3.3871,-3.4275,-3.4906,-3.5922,-3.6307,-3.6492,-3.6492,-3.6492,-3.6492,-3.6492,-3.6492,-3.6367,-3.6085,-3.6085,-3.5688,-3.4876,-3.461,-3.4221,-3.3701,-3.3452,-3.3326,-3.3312,-3.3894,-3.4274,-3.4543,-3.5088,-3.5479,-3.5752,-3.6022,-3.6085,-3.6163,-3.6429,-3.6492,-3.6492,0.0,0.0,0.0,0.0,0.0,0.0,0.0,-2.9407,-2.9407,-2.9407,-2.9407,-2.9407,-2.9407,-2.9407,-2.9407,0.0,0.0,0.0,0.0,0.0,0.0,0.0,0.0,0.0,-3.0336,0.0,0.0,-3.2446,-3.2632,0.0,0.0,0.0,0.0,0.0,-3.2823,-3.2075,-3.1295,-3.1295,-3.0912,0.0,0.0,-3.0041,-2.988,0.0,0.0,0.0,0.0,-2.9108,-2.9242,-2.9163,-2.9195,-2.9269,-2.9324,-2.9323,-2.9295,-2.9199,-2.9643,-3.0307,-3.1052,-3.1638,-3.2275,-3.3087,-3.2988,-3.2666,-3.2583,-3.2368,-3.2074,-3.1694,-3.1582,-3.1524,-3.1269,-3.119,-3.1151,-3.1055,-3.074,-3.0435,-3.0208,-3.0167,-3.0321,-3.0882,-3.1228,-3.2198,-3.4275,-3.4475,-3.5029,-3.6384,-3.6492,-3.6492,-3.6492,-3.6492,-3.6492,-3.6492,-3.6492,-3.6289,-3.5894,-3.6289,-3.5958,-3.4876,-3.4876,-3.461,-3.4085,-3.3632,-3.3507,-3.3646,-3.4221,-3.4677,-3.5073,-3.5623,-3.6085,-3.6492,-3.6492,-3.6492,-3.6492,-3.6492,-3.6492,-3.6492,0.0,0.0,0.0,0.0,0.0,0.0,0.0,-2.9407,-2.9407,-2.9407,-2.9407,-2.9407,-2.9407,-2.9407,-2.9407,0.0,0.0,0.0,0.0,0.0,0.0,0.0,0.0,0.0,0.0,0.0,0.0,-3.0728,-3.145,0.0,0.0,0.0,0.0,0.0,0.0,-3.1139,-3.0335,-3.0327,0.0,0.0,0.0,0.0,0.0,0.0,0.0,0.0,0.0,-2.8994,-2.9012,-2.8938,-2.8888,-2.8851,-2.8798,-2.8882,-2.8996,-2.8801,-2.9326,-3.0106,-3.0812,-3.1312,-3.1844,-3.263,-3.2601,-3.2231,-3.1878,-3.1787,-3.1657,-3.1329,-3.1269,-3.123,-3.119,-3.119,-3.1055,-3.0642,-3.0518,-3.0208,-2.9348,-2.9721,-3.0192,-3.0438,-3.1034,-3.2198,-3.4275,-3.4475,-3.5029,-3.6384,-3.6492,-3.6492,-3.6492,-3.6492,-3.6492,-3.6492,-3.6492,-3.6492,-3.6429,-3.6492,-3.5958,-3.4876,-3.4876,-3.461,-3.407,-3.4085,-3.4274,-3.4743,-3.535,-3.5544,-3.5688,-3.6226,-3.6429,-3.6492,-3.6492,-3.6492,-3.6492,-3.6492,-3.6492,-3.6492,0.0,0.0,0.0,0.0,0.0,0.0,-2.9407,-2.9407,-2.9407,-2.9407,-2.9407,-2.9407,-2.9407,-2.9407,-2.9407,-2.9407,0.0,0.0,0.0,0.0,0.0,0.0,0.0,0.0,0.0,0.0,-3.034,-3.0667,-3.1087,0.0,0.0,0.0,0.0,0.0,0.0,-3.0519,-3.0199,-3.0199,0.0,0.0,0.0,0.0,0.0,0.0,0.0,0.0,0.0,0.0,-2.89,-2.8645,-2.8629,-2.8685,-2.8417,-2.8378,-2.8578,-2.9188,-2.9789,-3.0404,-3.1159,-3.168,-3.208,-3.2431,-3.2196,-3.1896,-3.175,-3.1545,-3.1351,-3.123,-3.119,-3.1095,-3.0838,-3.0781,-3.0617,-3.014,-2.9821,-2.9512,-2.9166,-2.9108,-2.9428,-3.0289,-3.0643,-3.1767,-3.4245,-3.4475,-3.5029,-3.6384,-3.6492,-3.6492,-3.6492,-3.6492,-3.6492,-3.6492,-3.6492,-3.6492,-3.6492,-3.6492,-3.6289,-3.5879,-3.5544,-3.5285,-3.5073,-3.4743,-3.4677,-3.4957,-3.5479,-3.5688,-3.5752,-3.6289,-3.6492,-3.6492,-3.6492,-3.6492,-3.6492,-3.6492,-3.6492,-3.6492,0.0,0.0,0.0,0.0,0.0,-2.9491,-2.9427,-2.9407,-2.9407,-2.9407,-2.9407,-2.9427,-2.9451,-2.9451,-2.945,-2.9463,-2.9425,0.0,0.0,0.0,0.0,0.0,0.0,0.0,0.0,0.0,-3.0103,-3.0453,-3.0563,-3.1008,0.0,0.0,-3.0928,-3.1083,0.0,0.0,0.0,0.0,0.0,0.0,0.0,0.0,0.0,0.0,0.0,0.0,0.0,0.0,0.0,0.0,0.0,-2.8405,-2.8174,-2.8065,-2.8134,-2.906,-2.9799,-3.0459,-3.0987,-3.1593,-3.2127,-3.2127,-3.1823,-3.1562,-3.1562,-3.1351,-3.1151,-3.1015,-3.1015,-3.0838,-3.0393,-3.0309,-3.014,-2.9661,-2.9303,-2.9044,-2.8904,-2.8621,-2.8904,-3.0258,-3.0428,-3.1397,-3.3921,-3.4522,-3.5245,-3.6399,-3.6492,-3.6492,-3.6492,-3.6492,-3.6492,-3.6492,-3.6492,-3.6492,-3.6492,-3.6492,-3.6429,-3.6289,-3.5894,-3.5688,-3.5688,-3.5285,-3.5219,-3.5415,-3.5752,-3.5958,-3.5958,-3.6352,-3.6492,-3.6492,-3.6492,-3.6492,-3.6492,-3.6492,-3.6492,-3.6492,0.0,0.0,0.0,0.0,0.0,0.0,-2.9427,-2.9407,-2.9407,-2.9407,-2.9407,-2.9451,-2.9589,-2.9608,-2.9607,-2.9595,-2.9481,0.0,0.0,0.0,0.0,0.0,0.0,0.0,0.0,0.0,-2.9853,-2.9696,-2.9696,-2.9786,-2.9926,-2.9907,-3.0022,-3.0204,0.0,0.0,0.0,0.0,0.0,0.0,0.0,0.0,0.0,0.0,0.0,0.0,0.0,0.0,0.0,0.0,0.0,0.0,0.0,-2.7922,-2.7762,-2.8028,-2.9024,-3.0001,-3.0001,-3.0837,-3.1714,-3.1714,-3.1449,-3.119,-3.119,-3.119,-3.1055,-3.0601,-3.0518,-3.0335,-2.9881,-2.981,-2.9661,-2.9166,-2.9074,-2.8951,-2.8493,-2.8411,-2.8904,-3.0258,-3.0428,-3.1213,-3.3229,-3.466,-3.5753,-3.6445,-3.6492,-3.6492,-3.6492,-3.6492,-3.6492,-3.6492,-3.6492,-3.6492,-3.6492,-3.6492,-3.6226,-3.5688,-3.5688,-3.5688,-3.5688,-3.5688,-3.5958,-3.6492,-3.6492,-3.6492,-3.6492,-3.6492,-3.6492,-3.6492,-3.6492,-3.6492,-3.6492,-3.6492,-3.6492,-3.6492,0.0,0.0,0.0,0.0,0.0,0.0,0.0,-2.9718,-2.9753,-2.9753,-2.9738,-2.9757,-2.9793,-2.9813,-2.9813,-2.9808,-2.9776,0.0,0.0,0.0,0.0,0.0,0.0,0.0,0.0,0.0,-3.0147,-2.9969,-3.0075,-3.0118,-3.0118,-3.0109,-3.0142,-3.0204,-3.0204,-3.0204,0.0,0.0,0.0,0.0,0.0,0.0,-2.8994,0.0,0.0,0.0,0.0,0.0,0.0,0.0,0.0,0.0,0.0,0.0,0.0,-2.7465,-2.8143,-2.9069,-3.0109,-3.0503,-3.0738,-3.1232,-3.1291,-3.1112,-3.0781,-3.074,-3.0576,-3.014,-3.0011,-2.9881,-2.9393,-2.9303,-2.9182,-2.87,-2.8621,-2.8573,-2.8396,-2.8796,-2.9427,-3.032,-3.1628,-3.2906,-3.4029,-3.4953,-3.5768,-3.6445,-3.6492,-3.6492,-3.6492,-3.6492,-3.6492,-3.6492,-3.6492,-3.6492,-3.6492,-3.6492,-3.6429,-3.6226,-3.6226,-3.6226,-3.6226,-3.6226,-3.6352,-3.6492,-3.6492,-3.6492,-3.6492,-3.6492,-3.6492,-3.6492,-3.6492,-3.6492,-3.6492,-3.6492,-3.6492,-3.6492,0.0,0.0,0.0,0.0,0.0,0.0,0.0,-2.9872,-2.9902,-2.9899,-2.991,-2.9914,-2.9981,-2.998,-2.9972,-2.9982,-3.0049,0.0,0.0,0.0,0.0,0.0,0.0,0.0,-3.009,-3.0263,-3.0292,-3.0174,-3.0234,-3.0234,-3.0207,-3.0199,-3.0204,-3.0204,-3.0204,-3.0204,0.0,0.0,0.0,0.0,0.0,0.0,-2.8994,0.0,0.0,0.0,0.0,0.0,0.0,0.0,0.0,0.0,0.0,0.0,0.0,0.0,-2.7602,-2.8442,-2.9676,-3.004,-3.0239,-3.079,-3.1055,-3.1015,-3.0393,-3.0393,-3.0351,-2.9777,-2.9572,-2.9393,-2.9044,-2.8873,-2.8748,-2.8444,-2.8411,-2.8488,-2.875,-2.915,-2.975,-3.0674,-3.2105,-3.3398,-3.4383,-3.486,-3.5491,-3.6415,-3.6492,-3.6492,-3.6492,-3.6492,-3.6492,-3.6492,-3.6492,-3.6492,-3.6492,-3.6492,-3.6492,-3.6492,-3.6492,-3.6492,-3.6492,-3.6492,-3.6492,-3.6492,-3.6492,-3.6492,0.0,-3.6492,-3.6492,-3.6492,-3.6492,-3.6492,-3.6492,-3.6492,-3.6492,-3.6492,0.0,0.0,0.0,0.0,0.0,0.0,0.0,-2.9883,-2.995,-2.9927,-2.9931,-2.9996,-3.0109,-3.0122,-3.0119,-3.0117,0.0,0.0,0.0,0.0,0.0,0.0,0.0,0.0,-3.0398,-3.0321,-3.0302,-3.0302,-3.0235,-3.0188,-3.0204,-3.0204,-3.0223,-3.028,-3.0223,-3.0185,0.0,0.0,0.0,0.0,0.0,0.0,0.0,0.0,0.0,0.0,0.0,0.0,0.0,0.0,0.0,0.0,0.0,0.0,0.0,0.0,0.0,0.0,0.0,-2.9533,-3.0145,-3.0418,-3.0838,-3.0878,-2.9968,-3.0097,0.0,-2.9496,-2.9196,-2.8997,-2.8732,-2.8525,-2.8411,-2.8411,-2.8411,-2.8642,-2.9319,-2.9489,-3.0027,-3.1305,-3.2013,-3.2936,-3.4337,-3.4475,-3.5029,-3.6384,-3.6492,-3.6492,-3.6492,-3.6492,-3.6492,-3.6492,-3.6492,-3.6492,-3.6492,-3.6492,-3.6492,-3.6492,-3.6492,-3.6492,-3.6492,-3.6492,-3.6492,-3.6492,-3.6492,-3.6492,-3.6492,-3.6492,-3.6492,-3.6492,-3.6492,-3.6492,-3.6492,-3.6492,-3.6492,-3.6492,0.0,0.0,0.0,0.0,0.0,0.0,0.0,0.0,0.0,0.0,-3.0286,-3.0286,-3.0343,-3.0323,-3.0336,0.0,0.0,0.0,0.0,0.0,0.0,0.0,0.0,0.0,-3.0398,-3.0321,-3.0302,-3.0302,-3.0241,-3.0196,-3.0204,-3.0204,-3.0567,-3.1164,-3.051,-3.0022,0.0,0.0,0.0,0.0,0.0,0.0,0.0,0.0,0.0,0.0,-2.8047,-2.7852,0.0,0.0,0.0,0.0,0.0,0.0,0.0,0.0,-2.7403,-2.8081,-2.8386,0.0,-3.0145,-3.0418,-3.0559,-3.0435,0.0,-2.9348,-2.9303,-2.8951,-2.8685,-2.8573,-2.8685,-2.8525,-2.8411,-2.8411,-2.8411,-2.8642,-2.9319,-3.0274,-3.1228,-3.2059,-3.229,-3.2936,-3.4337,-3.4475,-3.5029,-3.6384,-3.6492,-3.6492,-3.6492,-3.6492,-3.6492,-3.6492,-3.6492,-3.6492,-3.6492,-3.6492,-3.6492,-3.6492,-3.6492,-3.6492,-3.6492,-3.6492,-3.6492,-3.6492,-3.6492,-3.6492,-3.6492,-3.6492,-3.6492,-3.6492,-3.6492,-3.6492,-3.6492,-3.6492,-3.6492,-3.6492,0.0,0.0,0.0,0.0,0.0,0.0,0.0,0.0,0.0,0.0,0.0,0.0,0.0,0.0,0.0,0.0,0.0,0.0,0.0,0.0,0.0,0.0,0.0,-3.0398,-3.0398,-3.0321,-3.0297,-3.0292,-3.0228,-3.0207,-3.0204,-3.0204,-3.0677,-3.1499,-3.1393,-3.071,0.0,0.0,0.0,0.0,-2.9148,0.0,0.0,0.0,0.0,0.0,-2.7792,-2.7596,0.0,-2.7087,-2.704,-2.7087,0.0,0.0,0.0,0.0,-2.7555,-2.8488,-2.8246,-2.9026,-2.9917,-2.9985,-3.0182,-3.0113,-2.9136,-2.9074,-2.9166,-2.892,-2.87,-2.8668,-2.9013,-2.8965,-2.8922,-2.902,-2.9184,-2.9566,-3.0228,-3.1197,-3.1982,-3.2351,-3.2675,-3.3275,-3.4368,-3.4752,-3.5368,-3.6415,-3.6492,-3.6492,-3.6492,-3.6492,-3.6492,-3.6492,-3.6492,-3.6492,-3.6492,-3.6492,-3.6492,-3.6492,-3.6492,-3.6492,-3.6492,-3.6492,-3.6492,-3.6492,-3.6492,-3.6492,-3.6492,-3.6492,-3.6492,-3.6492,-3.6492,-3.6492,-3.6492,-3.6492,-3.6492,-3.6492,0.0,0.0,0.0,0.0,0.0,0.0,0.0,0.0,0.0,0.0,0.0,0.0,0.0,0.0,0.0,0.0,0.0,0.0,0.0,0.0,0.0,0.0,-3.041,-3.0398,-3.0398,-3.0321,-3.0292,-3.0303,-3.0237,-3.0204,-3.0204,-3.0204,-3.0658,-3.1527,-3.2474,-3.1828,0.0,0.0,0.0,0.0,-2.9418,0.0,0.0,0.0,0.0,0.0,0.0,0.0,0.0,-2.6975,-2.6942,-2.6975,-2.6975,0.0,0.0,0.0,0.0,0.0,-2.8157,-2.8841,-2.9715,-2.9528,-2.9793,-2.9913,-2.8967,-2.9074,-2.9303,-2.9213,-2.8936,-2.8951,-2.9478,-2.9532,-2.9558,-2.985,-3.0238,-3.0766,-3.1305,-3.1967,-3.2428,-3.2536,-3.3044,-3.3721,-3.4552,-3.5153,-3.5768,-3.6445,-3.6492,-3.6492,-3.6492,-3.6492,-3.6492,-3.6492,-3.6492,-3.6492,-3.6492,-3.6492,-3.6492,-3.6492,-3.6492,-3.6492,-3.6492,-3.6492,-3.6492,-3.6492,-3.6492,-3.6492,-3.6492,-3.6492,-3.6492,-3.6492,-3.6492,-3.6492,-3.6492,-3.6492,-3.6492,-3.6492,0.0,0.0,0.0,0.0,0.0,0.0,0.0,0.0,0.0,0.0,0.0,0.0,0.0,0.0,0.0,0.0,0.0,0.0,0.0,0.0,0.0,-3.0472,-3.0417,-3.0398,-3.0398,-3.0321,-3.029,-3.0297,-3.0221,-3.0204,-3.0204,-3.0204,-3.0629,-3.1497,-3.3096,-3.3123,-3.1972,0.0,0.0,0.0,-2.9904,0.0,0.0,0.0,0.0,0.0,0.0,0.0,0.0,-2.707,-2.7023,-2.6975,-2.6808,0.0,0.0,0.0,0.0,0.0,-2.7914,-2.8869,-3.0084,-2.9821,-2.9793,-2.9722,-2.9167,-2.9075,-2.9198,-2.938,-2.9213,-2.9249,-2.9911,-2.9845,-2.9863,-3.0233,-3.0812,-3.1274,-3.1366,-3.1967,-3.2613,-3.3183,-3.3336,-3.3906,-3.5199,-3.5414,-3.5768,-3.6445,-3.6492,-3.6492,-3.6492,-3.6492,-3.6492,-3.6492,-3.6492,-3.6492,-3.6492,-3.6492,-3.6492,-3.6492,-3.6492,-3.6492,-3.6492,-3.6492,-3.6492,-3.6492,-3.6492,-3.6492,-3.6492,-3.6492,-3.6492,-3.6492,-3.6492,-3.6492,-3.6492,-3.6492,-3.6492,-3.6492,0.0,0.0,0.0,0.0,0.0,0.0,0.0,0.0,0.0,0.0,0.0,0.0,0.0,0.0,0.0,0.0,0.0,0.0,0.0,0.0,-3.0472,-3.0552,-3.0482,-3.0428,-3.041,-3.0359,-3.034,-3.0302,-3.0272,-3.0242,-3.0223,-3.1125,-3.1503,-3.1496,-3.3675,-3.375,-3.2227,-3.2125,0.0,0.0,0.0,0.0,0.0,0.0,0.0,0.0,0.0,0.0,0.0,0.0,-2.6973,-2.6842,-2.6891,0.0,0.0,0.0,0.0,0.0,-2.8404,-2.9244,-3.0244,-3.0356,-3.0012,-2.9589,-2.9396,-2.9607,-2.9828,-2.9566,-2.9715,-2.9861,-2.9766,-3.0067,-3.0596,-3.1374,-3.1736,-3.1921,-3.1921,-3.2505,-3.3044,-3.3367,-3.406,-3.4783,-3.5414,-3.5814,-3.6153,-3.6476,-3.6492,-3.6492,-3.6492,-3.6492,-3.6492,-3.6492,-3.6492,-3.6492,-3.6492,-3.6492,-3.6492,-3.6492,-3.6492,-3.6492,-3.6492,-3.6492,-3.6492,-3.6492,-3.6492,-3.6492,-3.6492,-3.6492,-3.6492,-3.6492,-3.6492,-3.6492,-3.6492,-3.6492,-3.6492,-3.6492,0.0,0.0,0.0,0.0,0.0,0.0,0.0,0.0,0.0,0.0,0.0,0.0,0.0,0.0,0.0,0.0,0.0,0.0,0.0,0.0,-3.0527,-3.0593,-3.0535,-3.0472,-3.0449,-3.0414,-3.0379,-3.0309,-3.0305,-3.027,-3.0242,-3.1919,-3.234,-3.1806,-3.3971,-3.3998,-3.2465,-3.2219,-3.1756,0.0,0.0,0.0,0.0,0.0,0.0,0.0,0.0,0.0,0.0,0.0,0.0,0.0,0.0,0.0,0.0,-2.7771,-2.8427,-2.9019,-2.9361,-3.0011,-3.0712,-3.1086,-3.05,-2.9865,-3.0025,-3.0378,-3.0507,-2.9929,-3.0138,-3.0362,-3.0076,-3.07,-3.1581,-3.2408,-3.2453,-3.2444,-3.2613,-3.3075,-3.3521,-3.3844,-3.4829,-3.5537,-3.5707,-3.6184,-3.6492,-3.6492,-3.6492,-3.6492,-3.6492,-3.6492,-3.6492,-3.6492,-3.6492,-3.6492,-3.6492,-3.6492,-3.6492,-3.6492,-3.6492,-3.6492,-3.6492,-3.6492,-3.6492,-3.6492,-3.6492,-3.6492,-3.6492,-3.6492,-3.6492,-3.6492,-3.6492,-3.6492,-3.6492,-3.6492,-3.6492,-3.6492,0.0,0.0,0.0,0.0,0.0,0.0,0.0,0.0,0.0,0.0,0.0,0.0,0.0,0.0,0.0,0.0,0.0,0.0,0.0,0.0,-3.0527,-3.0593,-3.0535,-3.0537,-3.0579,-3.0462,-3.0405,-3.0388,-3.0343,-3.0272,-3.0242,-3.1919,-3.266,-3.2654,-3.3642,-3.3903,-3.352,-3.251,-3.1548,-3.0562,0.0,0.0,0.0,0.0,0.0,0.0,0.0,0.0,0.0,0.0,0.0,0.0,0.0,0.0,-2.88,-2.8731,-2.9426,-3.0274,-3.066,-3.1299,-3.1866,-3.1915,-3.1334,-3.0978,-3.1641,-3.1318,-3.0865,-3.0817,-3.036,-3.0254,-3.1246,-3.2183,-3.2788,-3.2827,-3.2594,-3.2613,-3.3244,-3.3367,-3.3875,-3.5183,-3.5414,-3.5722,-3.6353,-3.6461,-3.6492,-3.6492,-3.6492,-3.6492,-3.6492,-3.6492,-3.6492,-3.6492,-3.6492,-3.6492,-3.6492,-3.6492,-3.6492,-3.6492,-3.6492,-3.6492,-3.6492,-3.6492,-3.6492,-3.6492,-3.6492,-3.6492,-3.6492,-3.6492,-3.6492,-3.6492,-3.6492,-3.6492,-3.6492,-3.6492,-3.6492,-3.6492,0.0,0.0,0.0,0.0,0.0,0.0,0.0,0.0,0.0,0.0,0.0,0.0,0.0,0.0,0.0,0.0,0.0,0.0,0.0,-3.05,-3.0527,-3.0593,-3.0535,-3.0527,-3.0593,-3.0479,-3.0402,-3.0405,-3.0337,-3.027,-3.0242,-3.1915,-3.2439,-3.2019,-3.3261,-3.3392,-3.2645,-3.16,-3.0865,-3.0252,-2.9272,0.0,0.0,0.0,0.0,0.0,0.0,0.0,0.0,0.0,-2.8714,-2.8535,-2.8622,-2.876,-2.9015,-2.9799,-3.033,-3.0847,-3.1671,-3.1925,-3.2012,-3.2012,-3.1801,-3.1558,-3.138,-3.1075,-3.0797,-3.036,-3.0765,-3.1354,-3.1897,-3.2091,-3.2313,-3.2571,-3.2807,-3.3106,-3.3367,-3.4152,-3.4891,-3.5414,-3.5861,-3.6215,-3.6476,-3.6492,-3.6492,-3.6492,-3.6492,-3.6492,-3.6492,-3.6492,-3.6492,-3.6492,-3.6492,-3.6492,-3.6492,-3.6492,-3.6492,-3.6492,-3.6492,-3.6492,-3.6492,-3.6492,-3.6492,-3.6492,-3.6492,-3.6492,-3.6492,-3.6492,-3.6492,-3.6492,-3.6492,-3.6492,-3.6492,-3.6492,-3.6492,-3.6492,0.0,0.0,0.0,0.0,0.0,0.0,0.0,0.0,0.0,0.0,0.0,0.0,0.0,0.0,0.0,0.0,0.0,0.0,-3.0492,-3.0501,-3.0509,-3.0576,-3.0518,-3.0519,-3.0535,-3.0452,-3.0414,-3.0425,-3.0343,-3.0284,-3.0223,-3.1671,-3.1993,-3.1445,-3.2462,-3.243,-3.156,-3.0623,-3.008,-2.9769,-2.8844,-2.8334,0.0,0.0,0.0,0.0,0.0,0.0,0.0,0.0,-2.9462,-2.9147,-2.9328,-2.9499,-2.9842,-3.0863,-3.1385,-3.1799,-3.2749,-3.285,-3.2611,-3.24,-3.2174,-3.1817,-3.1043,-3.0881,-3.0862,-3.0603,-3.151,-3.2337,-3.2307,-3.2321,-3.2435,-3.2834,-3.3162,-3.3567,-3.3998,-3.4876,-3.5568,-3.5768,-3.6215,-3.6492,-3.6492,-3.6492,-3.6492,-3.6492,-3.6492,-3.6492,-3.6492,-3.6492,-3.6492,-3.6492,-3.6492,-3.6492,-3.6492,-3.6492,-3.6492,-3.6492,-3.6492,-3.6492,-3.6492,-3.6492,-3.6492,-3.6492,-3.6492,-3.6492,-3.6492,-3.6492,-3.6492,-3.6492,-3.6492,-3.6492,-3.6492,-3.6492,-3.6492,-3.6492,0.0,0.0,0.0,0.0,0.0,0.0,0.0,0.0,0.0,0.0,0.0,0.0,0.0,0.0,0.0,0.0,0.0,0.0,-3.0501,-3.0501,-3.0501,-3.0501,-3.0501,-3.0472,-3.041,-3.0398,-3.0425,-3.0491,-3.0371,-3.026,-3.0204,-3.1087,-3.139,-3.1183,-3.1197,-3.0979,-3.0544,-2.9746,-2.9267,-2.9044,-2.8438,-2.8183,-2.8129,0.0,0.0,0.0,0.0,0.0,0.0,0.0,-3.0224,-3.023,-3.0286,-3.0803,-3.1473,-3.1878,-3.253,-3.3242,-3.3922,-3.4101,-3.3939,-3.3242,-3.253,-3.1817,-3.1043,-3.0881,-3.1137,-3.1866,-3.2595,-3.2983,-3.2654,-3.299,-3.3423,-3.3826,-3.3655,-3.3906,-3.5291,-3.5491,-3.5737,-3.6415,-3.6492,-3.6492,-3.6492,-3.6492,-3.6492,-3.6492,-3.6492,-3.6492,-3.6492,-3.6492,-3.6492,-3.6492,-3.6492,-3.6492,-3.6492,-3.6492,-3.6492,-3.6492,-3.6492,-3.6492,-3.6492,-3.6492,-3.6492,-3.6492,-3.6492,-3.6492,-3.6492,-3.6492,-3.6492,-3.6492,-3.6492,-3.6492,-3.6492,-3.6492,-3.6492,-3.6492,0.0,0.0,0.0,0.0,0.0,0.0,0.0,0.0,0.0,0.0,0.0,0.0,0.0,0.0,0.0,0.0,0.0,0.0,-3.0417,-3.0436,-3.0436,-3.0436,-3.0436,-3.0425,-3.0398,-3.0398,-3.0421,-3.0425,-3.0348,-3.0292,-3.0286,-3.1161,-3.1107,-3.0319,-3.0785,-3.0527,-2.9746,-2.9357,-2.9112,-2.8929,-2.8551,-2.8246,-2.8007,0.0,0.0,0.0,0.0,0.0,0.0,0.0,0.0,0.0,-3.0964,-3.1417,-3.1957,-3.2594,-3.3259,-3.3841,-3.4052,-3.4101,-3.3809,-3.2627,-3.2158,-3.1817,-3.1043,-3.0881,-3.1283,-3.2514,-3.2935,-3.324,-3.3689,-3.3893,-3.4093,-3.4291,-3.4611,-3.5014,-3.543,-3.5891,-3.6261,-3.6476,-3.6492,-3.6492,-3.6492,-3.6492,-3.6492,-3.6492,-3.6492,-3.6492,-3.6492,-3.6492,-3.6492,-3.6492,-3.6492,-3.6492,-3.6492,-3.6492,-3.6492,-3.6492,-3.6492,-3.6492,-3.6492,-3.6492,-3.6492,-3.6492,-3.6492,-3.6492,-3.6492,-3.6492,-3.6492,-3.6492,-3.6492,-3.6492,-3.6492,-3.6492,-3.6492,-3.6492,0.0,0.0,0.0,0.0,0.0,0.0,0.0,0.0,0.0,0.0,-3.1584,-3.1574,0.0,0.0,0.0,0.0,0.0,0.0,0.0,-3.059,-3.0398,-3.0398,-3.0398,-3.0398,-3.0398,-3.0398,-3.0398,-3.0398,-3.0367,-3.0336,-3.0304,-3.0784,-3.0585,-2.9834,-3.0189,-2.9961,-2.931,-2.9115,-2.9021,-2.891,-2.8569,-2.8443,-2.8525,0.0,0.0,0.0,0.0,0.0,0.0,0.0,0.0,0.0,-3.1394,-3.1867,-3.2514,-3.2967,-3.3566,-3.4101,-3.4101,-3.4101,-3.3761,-3.2352,-3.2222,-3.2384,-3.2222,-3.1979,-3.2109,-3.3259,-3.3728,-3.4111,-3.4797,-3.4895,-3.4952,-3.5031,-3.5378,-3.5674,-3.5845,-3.6245,-3.6492,-3.6492,-3.6492,-3.6492,-3.6492,-3.6492,-3.6492,-3.6492,-3.6492,-3.6492,-3.6492,-3.6492,-3.6492,-3.6492,-3.6492,-3.6492,-3.6492,-3.6492,-3.6492,-3.6492,-3.6492,-3.6492,-3.6492,-3.6492,-3.6492,-3.6492,-3.6492,-3.6492,-3.6492,-3.6492,-3.6492,-3.6492,-3.6492,-3.6492,-3.6492,-3.6492,-3.6492,-3.6492,0.0,0.0,0.0,0.0,0.0,0.0,0.0,0.0,0.0,0.0,-3.3062,-3.3062,0.0,0.0,0.0,0.0,0.0,0.0,0.0,0.0,-3.059,-3.0513,-3.0436,-3.0398,-3.0398,-3.0367,-3.0367,-3.0367,-3.0398,-3.0367,-3.0273,-3.0161,-2.995,-2.9678,-2.9551,-2.9372,-2.9178,-2.9048,-2.898,-2.891,-2.8582,-2.8819,-2.9344,-2.9183,0.0,0.0,0.0,0.0,0.0,0.0,0.0,0.0,-3.1605,-3.2275,-3.3097,-3.3161,-3.3615,-3.4101,-3.4101,-3.4101,-3.3777,-3.2449,-3.2643,-3.334,-3.3955,-3.3728,-3.355,-3.4165,-3.4829,-3.5441,-3.5796,-3.587,-3.5888,-3.5966,-3.5957,-3.6071,-3.6461,-3.6492,-3.6492,-3.6492,-3.6492,-3.6492,-3.6492,-3.6492,-3.6492,-3.6492,-3.6492,-3.6492,-3.6492,-3.6492,-3.6492,-3.6492,-3.6492,-3.6492,-3.6492,-3.6492,-3.6492,-3.6492,-3.6492,-3.6492,-3.6492,-3.6492,-3.6492,-3.6492,-3.6492,-3.6492,-3.6492,-3.6492,-3.6492,-3.6492,-3.6492,-3.6492,-3.6492,-3.6492,-3.6492,-3.6492,0.0,0.0,0.0,0.0,0.0,0.0,0.0,0.0,0.0,0.0,0.0,0.0,0.0,0.0,0.0,0.0,0.0,0.0,0.0,0.0,-3.1974,-3.1302,-3.072,-3.0398,-3.0398,-3.0241,-3.015,-3.015,-3.0311,-3.0311,-3.015,-3.0109,-2.9912,-2.9551,-2.9514,-2.9316,-2.9026,-2.9003,-2.8863,-2.8648,-2.9196,-2.9303,-2.9284,-3.0433,-3.1009,0.0,0.0,0.0,0.0,0.0,0.0,0.0,-3.252,-3.2918,-3.3194,-3.3728,-3.3987,-3.4101,-3.4101,-3.4101,-3.389,-3.3064,-3.3372,-3.3922,-3.4068,-3.4878,-3.5655,-3.5801,-3.5963,-3.6147,-3.6533,-3.6397,-3.6364,-3.6716,-3.6522,-3.6384,-3.6476,-3.6492,-3.6492,-3.6492,-3.6492,-3.6492,-3.6492,-3.6492,-3.6492,-3.6492,-3.6492,-3.6492,-3.6492,-3.6492,-3.6492,-3.6492,-3.6492,-3.6492,-3.6492,-3.6492,-3.6492,-3.6492,-3.6492,-3.6492,-3.6492,-3.6492,-3.6492,-3.6492,-3.6492,-3.6492,-3.6492,-3.6492,-3.6492,-3.6492,-3.6492,-3.6492,-3.6492,-3.6492,-3.6492,-3.6492,0.0,0.0,0.0,0.0,0.0,0.0,0.0,0.0,0.0,0.0,0.0,0.0,0.0,0.0,0.0,0.0,0.0,0.0,0.0,0.0,-3.2488,-3.1905,-3.1497,-3.1126,-3.0739,-3.0628,-3.0392,-3.0007,-3.0099,-3.0118,-3.0007,-2.9915,-2.9748,-2.9551,-2.9377,-2.9206,-2.9062,-2.9259,-2.9232,-2.9142,-2.9826,-3.0194,-3.0427,-3.1244,-3.1732,-3.2077,-3.2582,0.0,0.0,0.0,0.0,0.0,0.0,0.0,-3.3647,-3.4003,-3.4101,-3.4101,-3.4101,-3.4101,-3.402,-3.3663,-3.3841,-3.4279,-3.4991,-3.6011,-3.6886,-3.7226,-3.7031,-3.6944,-3.7456,-3.7301,-3.7123,-3.7147,-3.6923,-3.6677,-3.6492,-3.6492,-3.6492,-3.6492,-3.6492,-3.6492,-3.6492,-3.6492,-3.6492,-3.6492,-3.6492,-3.6492,-3.6492,-3.6492,-3.6492,-3.6492,-3.6492,-3.6492,-3.6492,-3.6492,-3.6492,-3.6492,-3.6492,-3.6492,-3.6492,-3.6492,-3.6492,-3.6492,-3.6492,-3.6492,-3.6492,-3.6492,-3.6492,-3.6492,-3.6492,-3.6492,-3.6492,-3.6492,-3.6492,-3.6492,0.0,0.0,0.0,0.0,0.0,0.0,0.0,0.0,0.0,0.0,0.0,0.0,0.0,0.0,0.0,0.0,0.0,0.0,0.0,0.0,0.0,-3.2577,-3.2389,-3.1992,-3.1309,-3.1274,-3.0953,-3.0272,-3.0255,-3.0237,-3.0219,-2.9794,-2.957,-2.9494,-2.9373,-2.9246,-2.925,-2.9834,-3.0089,-3.0106,-3.082,-3.1528,-3.2135,-3.2259,-3.2706,-3.3366,-3.3791,-3.3616,-3.326,-3.3543,0.0,0.0,0.0,0.0,-3.4151,-3.4151,-3.4151,-3.4151,-3.4101,-3.4101,-3.4101,-3.4101,-3.4198,-3.4603,-3.5833,-3.6643,-3.7339,-3.8068,-3.7841,-3.7695,-3.8294,-3.8075,-3.7711,-3.7476,-3.715,-3.6816,-3.6554,-3.6492,-3.6492,-3.6492,-3.6492,-3.6492,-3.6492,-3.6492,-3.6492,-3.6492,-3.6492,-3.6492,-3.6492,-3.6492,-3.6492,-3.6492,-3.6492,-3.6492,-3.6492,-3.6492,-3.6492,-3.6492,-3.6492,-3.6492,-3.6492,-3.6492,-3.6492,-3.6492,-3.6492,-3.6492,-3.6492,-3.6492,-3.6492,-3.6492,-3.6492,-3.6492,-3.6492,-3.6492,-3.6492,-3.6492,0.0,0.0,0.0,0.0,0.0,0.0,0.0,0.0,0.0,0.0,-3.4945,-3.4945,0.0,0.0,0.0,0.0,0.0,0.0,0.0,0.0,0.0,-3.3612,-3.2765,-3.2257,-3.2144,-3.2015,-3.1918,-3.1805,-3.1643,-3.1536,-3.152,-3.0206,-2.9454,-2.9197,-2.9789,-2.9887,-2.9709,-3.1109,-3.1595,-3.1541,-3.3027,-3.3687,-3.3847,-3.4508,-3.4811,-3.4884,-3.4677,-3.4531,-3.4434,-3.4261,-3.4124,0.0,0.0,0.0,-3.425,-3.425,-3.425,-3.425,-3.4151,-3.4101,-3.4101,-3.4101,-3.457,-3.5088,-3.5283,-3.5898,-3.6643,-3.7323,-3.789,-3.8278,-3.8375,-3.7902,-3.7476,-3.7417,-3.6952,-3.6554,-3.6492,-3.6492,-3.6492,-3.6492,-3.6492,-3.6492,-3.6492,-3.6492,-3.6492,-3.6492,-3.6492,-3.6492,-3.6492,-3.6492,-3.6492,-3.6492,-3.6492,-3.6492,-3.6492,-3.6492,-3.6492,-3.6492,-3.6492,-3.6492,-3.6492,-3.6492,-3.6492,-3.6492,-3.6492,-3.6492,-3.6492,-3.6492,-3.6492,-3.6492,-3.6492,-3.6492,-3.6492,-3.6492,-3.6492,-3.6492,0.0,0.0,0.0,0.0,0.0,0.0,0.0,0.0,0.0,0.0,0.0,-3.4908,0.0,0.0,0.0,0.0,0.0,0.0,0.0,0.0,0.0,-3.4124,-3.3644,-3.3149,-3.2699,-3.2633,-3.2384,-3.1936,-3.1827,-3.1737,-3.1621,-3.1399,-3.096,-3.0465,-3.1096,-3.121,-3.108,-3.2552,-3.314,-3.3134,-3.4276,-3.4722,-3.4757,-3.5096,-3.5204,-3.5241,-3.5528,-3.547,-3.5238,-3.5324,-3.5108,-3.4726,-3.4624,0.0,0.0,0.0,-3.43,-3.425,-3.4151,-3.4101,-3.4101,-3.4101,-3.4343,-3.4683,-3.5088,-3.5428,-3.5882,-3.6594,-3.7307,-3.7922,-3.8327,-3.8017,-3.7653,-3.7417,-3.7029,-3.6677,-3.6554,-3.6492,-3.6492,-3.6492,-3.6492,-3.6492,-3.6492,-3.6492,-3.6492,-3.6492,-3.6492,-3.6492,-3.6492,-3.6492,-3.6492,-3.6492,-3.6492,-3.6492,-3.6492,-3.6492,-3.6492,-3.6492,-3.6492,-3.6492,-3.6492,-3.6492,-3.6492,-3.6492,-3.6492,-3.6492,-3.6492,-3.6492,-3.6492,-3.6492,-3.6492,-3.6492,-3.6492,-3.6492,-3.6492,-3.6492,0.0,0.0,0.0,0.0,0.0,0.0,0.0,0.0,0.0,0.0,0.0,0.0,0.0,0.0,0.0,0.0,0.0,0.0,0.0,0.0,0.0,-3.4495,-3.4363,-3.4013,-3.3352,-3.3352,-3.3032,-3.2326,-3.2326,-3.2342,-3.232,-3.2863,-3.291,-3.2546,-3.2748,-3.273,-3.2637,-3.4074,-3.4686,-3.4757,-3.5507,-3.581,-3.581,-3.581,-3.581,-3.5899,-3.6488,-3.6376,-3.595,-3.6125,-3.5786,-3.5191,-3.4866,-3.4659,0.0,0.0,0.0,-3.425,-3.4151,-3.4101,-3.4101,-3.4101,-3.4101,-3.423,-3.4781,-3.491,-3.5169,-3.6108,-3.6707,-3.7339,-3.823,-3.8148,-3.777,-3.746,-3.715,-3.6877,-3.6554,-3.6492,-3.6492,-3.6492,-3.6492,-3.6492,-3.6492,-3.6492,-3.6492,-3.6492,-3.6492,-3.6492,-3.6492,-3.6492,-3.6492,-3.6492,-3.6492,-3.6492,-3.6492,-3.6492,-3.6492,-3.6492,-3.6492,-3.6492,-3.6492,-3.6492,-3.6492,-3.6492,-3.6492,-3.6492,-3.6492,-3.6492,-3.6492,-3.6492,-3.6492,-3.6492,-3.6492,-3.6492,-3.6492,-3.6492,0.0,0.0,0.0,0.0,0.0,0.0,0.0,0.0,0.0,0.0,0.0,0.0,-3.4908,-3.4908,-3.4908,-3.4908,-3.4908,-3.4927,-3.4889,-3.483,-3.4768,-3.4768,-3.4645,0.0,-3.433,-3.433,-3.4152,-3.3792,-3.3792,-3.4045,-3.4535,-3.4572,-3.4891,-3.5331,-3.4614,-3.4181,-3.4079,-3.5632,-3.6274,-3.6345,-3.7131,-3.747,-3.747,-3.747,-3.747,-3.747,-3.7505,-3.7228,-3.6768,-3.634,-3.5847,-3.5328,-3.5024,-3.4691,-3.4497,0.0,0.0,0.0,-3.4101,-3.4101,-3.4101,-3.4101,-3.4101,-3.4117,-3.4149,-3.4165,-3.4554,-3.6011,-3.6335,-3.6772,-3.8149,-3.8148,-3.777,-3.746,-3.715,-3.6877,-3.6554,-3.6492,-3.6492,-3.6492,-3.6492,-3.6492,-3.6492,-3.6492,-3.6492,-3.6492,-3.6492,-3.6492,-3.6492,-3.6492,-3.6492,-3.6492,-3.6492,-3.6492,-3.6492,-3.6492,-3.6492,-3.6492,-3.6492,-3.6492,-3.6492,-3.6492,-3.6492,-3.6492,-3.6492,-3.6492,-3.6492,-3.6492,-3.6492,-3.6492,-3.6492,-3.6492,-3.6492,-3.6492,-3.6492,-3.6492,0.0,0.0,0.0,0.0,0.0,0.0,0.0,0.0,0.0,0.0,0.0,0.0,0.0,-3.65,-3.65,-3.65,-3.65,-3.6291,-3.5761,-3.5623,-3.5254,-3.4558,-3.4409,-3.4245,-3.4023,-3.3972,-3.4152,-3.4522,-3.4476,-3.4707,-3.5313,-3.5788,-3.6056,-3.6109,-3.599,-3.5798,-3.565,-3.672,-3.7166,-3.7184,-3.747,-3.7577,-3.7577,-3.7577,-3.7577,-3.7577,-3.7577,-3.7503,-3.7281,-3.6821,-3.6316,-3.5847,-3.5481,-3.5008,-3.4594,-3.4399,-3.425,-3.4101,-3.4101,-3.4101,-3.4101,-3.4101,-3.4101,-3.4214,-3.4683,-3.4797,-3.5088,-3.6092,-3.6659,-3.7112,-3.7614,-3.7955,-3.8132,-3.777,-3.7476,-3.715,-3.6877,-3.6631,-3.6492,-3.6492,-3.6492,-3.6492,-3.6492,-3.6492,-3.6492,-3.6492,-3.6492,-3.6492,-3.6492,-3.6492,-3.6492,-3.6492,-3.6492,-3.6492,-3.6492,-3.6492,-3.6492,-3.6492,-3.6492,-3.6492,-3.6492,-3.6492,-3.6492,-3.6492,-3.6492,-3.6492,-3.6492,-3.6492,-3.6492,-3.6492,-3.6492,-3.6492,-3.6492,-3.6492,-3.6492,-3.6492,0.0,0.0,0.0,0.0,0.0,0.0,0.0,0.0,0.0,-3.6121,0.0,0.0,0.0,0.0,-3.739,-3.739,-3.739,-3.7163,-3.6632,-3.6515,-3.6147,-3.5431,-3.5304,-3.5118,-3.4818,-3.4481,-3.4578,-3.5162,-3.4811,-3.5028,-3.5903,-3.6443,-3.6717,-3.6792,-3.6968,-3.6968,-3.6827,-3.7362,-3.7577,-3.7577,-3.7577,-3.7577,-3.7577,-3.7577,-3.7577,-3.7577,-3.7577,-3.7503,-3.7319,-3.7034,-3.6603,-3.6147,-3.582,-3.5362,-3.4883,-3.4546,-3.4349,-3.425,-3.4151,-3.4279,-3.4457,-3.4457,-3.4651,-3.4975,-3.5445,-3.5558,-3.5768,-3.6497,-3.6999,-3.7404,-3.763,-3.7955,-3.8148,-3.7943,-3.7535,-3.721,-3.7015,-3.6693,-3.6492,-3.6492,-3.6492,-3.6492,-3.6492,-3.6492,-3.6492,-3.6492,-3.6492,-3.6492,-3.6492,-3.6492,-3.6492,-3.6492,-3.6492,-3.6492,-3.6492,-3.6492,-3.6492,-3.6492,-3.6492,-3.6492,-3.6492,-3.6492,-3.6492,-3.6492,-3.6492,-3.6492,-3.6492,-3.6492,-3.6492,-3.6492,-3.6492,-3.6492,-3.6492,-3.6492,-3.6492,-3.6492,0.0,0.0,0.0,0.0,0.0,0.0,0.0,0.0,-3.6196,-3.6215,0.0,0.0,0.0,0.0,0.0,-3.7466,-3.7466,-3.7447,-3.7428,-3.7428,-3.7409,-3.739,-3.739,-3.7203,-3.6789,-3.5938,-3.5586,-3.5734,-3.4893,-3.5133,-3.6435,-3.6435,-3.6845,-3.7613,-3.7577,-3.7577,-3.7577,-3.7577,-3.7577,-3.7577,-3.7577,-3.7577,-3.7577,-3.7577,-3.7577,-3.7577,-3.7577,-3.7319,-3.69,-3.69,-3.6603,-3.6172,-3.5977,-3.5705,-3.5333,-3.4883,-3.4756,-3.4676,0.0,0.0,0.0,-3.527,-3.5821,-3.6319,-3.6335,-3.6335,-3.6529,-3.7209,-3.7355,-3.7566,-3.8278,-3.8148,-3.7886,-3.7886,-3.7389,-3.7015,-3.7015,-3.6693,-3.6492,-3.6492,-3.6492,-3.6492,-3.6492,-3.6492,-3.6492,-3.6492,-3.6492,-3.6492,-3.6492,-3.6492,-3.6492,-3.6492,-3.6492,-3.6492,-3.6492,-3.6492,-3.6492,-3.6492,-3.6492,-3.6492,-3.6492,-3.6492,-3.6492,-3.6492,-3.6492,-3.6492,-3.6492,-3.6492,-3.6492,-3.6492,-3.6492,-3.6492,-3.6492,-3.6492,-3.6492,-3.6492,0.0,0.0,0.0,0.0,0.0,-3.4908,-3.4908,-3.5628,-3.6405,0.0,0.0,0.0,-3.9153,-3.921,-3.921,-3.921,-3.921,-3.8963,-3.8376,-3.8338,-3.7972,-3.7159,-3.7099,-3.6873,-3.6399,-3.6095,-3.6102,-3.6438,-3.617,-3.6516,-3.7345,-3.7345,-3.7471,-3.7667,-3.7613,-3.7577,-3.7577,-3.7577,-3.7577,-3.7577,-3.7577,-3.7577,-3.7577,-3.7577,-3.7577,-3.7577,-3.7577,-3.754,-3.7411,-3.7411,-3.7111,-3.6643,-3.6165,-3.5968,-3.5837,-3.5402,-3.5698,-3.6105,-3.5837,0.0,0.0,0.0,0.0,0.0,-3.6972,-3.7031,-3.7242,-3.7954,-3.81,-3.8165,-3.8359,-3.8148,-3.7886,-3.7886,-3.7389,-3.7015,-3.7015,-3.6693,-3.6492,-3.6492,-3.6492,-3.6492,-3.6492,-3.6492,-3.6492,-3.6492,-3.6492,-3.6492,-3.6492,-3.6492,-3.6492,-3.6492,-3.6492,-3.6492,-3.6492,-3.6492,-3.6492,-3.6492,-3.6492,-3.6492,-3.6492,-3.6492,-3.6492,-3.6492,-3.6492,-3.6492,-3.6492,-3.6492,-3.6492,-3.6492,-3.6492,-3.6492,-3.6492,-3.6492,-3.6492,-3.6492,0.0,0.0,0.0,0.0,0.0,-3.4908,-3.4908,-3.5912,-3.686,0.0,0.0,0.0,-3.9832,-3.9889,-3.9889,-3.9889,-3.9889,-3.9702,-3.9229,-3.9191,-3.8902,-3.8241,-3.8089,-3.7829,-3.7396,-3.6853,-3.6807,-3.7248,-3.6856,-3.7073,-3.7792,-3.7792,-3.7757,-3.7703,-3.7685,-3.7613,-3.7577,-3.7577,-3.7577,-3.7577,-3.7577,-3.7577,-3.7577,-3.7577,-3.7577,-3.7577,-3.7577,-3.7577,-3.7577,-3.7577,-3.7374,-3.7013,-3.6696,-3.6533,-3.6461,-3.6249,-3.6525,-3.6922,-3.6858,-3.7399,-3.7903,-3.7669,0.0,0.0,-3.8212,-3.8112,-3.815,-3.8574,-3.8504,-3.8391,-3.8391,-3.8148,-3.7886,-3.7886,-3.7389,-3.7015,-3.7015,-3.6693,-3.6492,-3.6492,-3.6492,-3.6492,-3.6492,-3.6492,-3.6492,-3.6492,-3.6492,-3.6492,-3.6492,-3.6492,-3.6492,-3.6492,-3.6492,-3.6492,-3.6492,-3.6492,-3.6492,-3.6492,-3.6492,-3.6492,-3.6492,-3.6492,-3.6492,-3.6492,-3.6492,-3.6492,-3.6492,-3.6492,-3.6492,-3.6492,-3.6492,-3.6492,-3.6492,-3.6492,-3.6492,-3.6492,0.0,0.0,-3.4963,-3.507,-3.5,-3.4927,-3.4927,-3.633,-3.7411,0.0,-3.8869,-3.9889,-3.9889,-3.9889,-3.9889,-3.9889,-3.9889,-3.9889,-3.9889,-3.9889,-3.9889,-3.9889,-3.9647,-3.9338,-3.9008,-3.7971,-3.7621,-3.7984,-3.7248,-3.7232,-3.7899,-3.7899,-3.7846,-3.7703,-3.7703,-3.7667,-3.7577,-3.7577,-3.7577,-3.7577,-3.7577,-3.7577,-3.7577,-3.7577,-3.7577,-3.7577,-3.7577,-3.7577,-3.7577,-3.7577,-3.7484,-3.7352,-3.7441,-3.7291,-3.7088,-3.7353,-3.7421,-3.746,-3.7689,-3.8302,-3.8824,-3.8791,-3.9261,0.0,-3.9594,-3.9312,-3.9077,-3.9077,-3.8766,-3.8448,-3.8448,-3.8205,-3.7943,-3.7985,-3.7508,-3.706,-3.7015,-3.6693,-3.6492,-3.6492,-3.6492,-3.6492,-3.6492,-3.6492,-3.6492,-3.6492,-3.6492,-3.6492,-3.6492,-3.6492,-3.6492,-3.6492,-3.6492,-3.6492,-3.6492,-3.6492,-3.6492,-3.6492,-3.6492,-3.6492,-3.6492,-3.6492,-3.6492,-3.6492,-3.6492,-3.6492,-3.6492,-3.6492,-3.6492,-3.6492,-3.6492,-3.6492,-3.6492,-3.6492,-3.6492,-3.6492,0.0,-3.5288,-3.5207,-3.5108,-3.5092,-3.5038,-3.5001,-3.6388,-3.747,-3.7411,-3.8869,-3.9889,-3.9889,-3.9889,-3.9889,-3.9889,-3.9889,-3.9889,-3.9889,-3.9889,-3.9889,-3.9889,-3.9647,-3.9338,-3.9008,-3.8582,-3.8232,-3.7984,-3.7943,-3.7943,-3.8002,-3.8002,-3.7933,-3.7864,-3.7757,-3.7667,-3.7577,-3.7577,-3.7577,-3.7577,-3.7577,-3.7577,-3.7577,-3.7577,-3.7577,-3.7577,-3.7577,-3.7577,-3.7577,-3.7577,-3.7577,-3.7665,-3.8287,-3.8037,-3.7676,-3.8596,-3.8856,-3.8868,-3.9204,-3.9856,-4.036,-4.0067,-4.0086,0.0,-3.9662,-3.9558,-3.9506,-3.9506,-3.9169,-3.886,-3.886,-3.8544,-3.8319,-3.8351,-3.8042,-3.7551,-3.706,-3.6693,-3.6492,-3.6492,-3.6492,-3.6492,-3.6492,-3.6492,-3.6492,-3.6492,-3.6492,-3.6492,-3.6492,-3.6492,-3.6492,-3.6492,-3.6492,-3.6492,-3.6492,-3.6492,-3.6492,-3.6492,-3.6492,-3.6492,-3.6492,-3.6492,-3.6492,-3.6492,-3.6492,-3.6492,-3.6492,-3.6492,-3.6492,-3.6492,-3.6492,-3.6492,-3.6492,-3.6492,-3.6492,-3.6492,-3.5579,-3.5445,-3.5281,-3.5247,-3.5157,-3.5092,-3.5057,-3.6102,-3.7034,-3.7451,-3.8931,-3.9933,-3.9911,-3.9889,-3.9889,-3.9889,-3.9889,-3.9889,-3.9889,-3.9889,-3.9889,-3.9889,-3.9647,-3.9433,-3.9242,-3.8943,-3.8681,-3.8499,-3.8428,-3.8368,-3.83,-3.8171,-3.8038,-3.7899,-3.781,-3.7739,-3.7577,-3.7577,-3.7577,-3.7577,-3.7577,-3.7577,-3.7577,-3.7577,-3.7577,-3.7577,-3.7577,-3.7577,-3.7577,-3.7577,-3.7862,-3.8201,-3.8201,-3.8376,-3.8667,-3.9124,-3.9423,-3.9765,-4.017,-4.0578,-4.0823,-4.0631,-4.0583,0.0,0.0,-4.0087,-3.9952,-3.9952,-3.9575,-3.9312,-3.9312,-3.9098,-3.899,-3.9049,-3.8756,-3.8367,-3.7812,-3.7134,-3.6754,-3.6754,-3.6616,-3.6492,-3.6492,-3.6492,-3.6492,-3.6492,-3.6492,-3.6492,-3.6492,-3.6492,-3.6492,-3.6492,-3.6492,-3.6492,-3.6492,-3.6492,-3.6492,-3.6492,-3.6492,-3.6492,-3.6492,-3.6492,-3.6492,-3.6492,-3.6492,-3.6492,-3.6492,-3.6492,-3.6492,-3.6492,-3.6492,-3.6492,-3.6492,-3.6492,-3.6492,-3.6492,-3.5771,-3.5566,-3.5386,-3.5432,-3.5307,-3.5174,-3.5143,-3.5829,-3.6709,-3.77,-3.9086,-3.9954,-3.9911,-3.9889,-3.9889,-3.9889,-3.9889,-3.9889,-3.9889,-3.9889,-3.9889,-3.9889,-3.9647,-3.9458,-3.9408,-3.9082,-3.8915,-3.8857,-3.8628,-3.8541,-3.851,-3.8289,-3.8072,-3.7899,-3.7899,-3.7793,-3.7577,-3.7577,-3.7577,-3.7577,-3.7577,-3.7577,-3.7577,-3.7577,-3.7577,-3.7577,-3.7577,-3.7577,-3.7612,-3.7773,-3.8255,-3.8754,-3.838,-3.8869,-3.9628,-3.9645,-3.9887,-4.0214,-4.0775,-4.0888,-4.0888,-4.0888,-4.0888,-4.0888,0.0,0.0,0.0,-4.0404,-4.0054,-3.9714,-3.9714,-3.9662,-3.956,-3.9512,-3.937,-3.9139,-3.8706,-3.7946,-3.7345,-3.6999,-3.6693,-3.6492,-3.6492,-3.6492,-3.6492,-3.6492,-3.6492,-3.6492,-3.6492,-3.6492,-3.6492,-3.6492,-3.6492,-3.6492,-3.6492,-3.6492,-3.6492,-3.6492,-3.6492,-3.6492,-3.6492,-3.6492,-3.6492,-3.6492,-3.6492,-3.6492,-3.6492,-3.6492,-3.6492,-3.6492,-3.6554,-3.6616,-3.6616,-3.6662,-3.6662,-3.6723,-3.5729,-3.5676,-3.5631,-3.5588,-3.5554,-3.5476,-3.5297,-3.6002,-3.7056,-3.8479,-3.9385,-3.9911,-3.9889,-3.9889,-3.9889,-3.9889,-3.9889,-3.9889,-3.9889,-3.9889,-3.9889,-3.9889,-3.9647,-3.9364,-3.9063,-3.8789,-3.8541,-3.8289,-3.8274,-3.8241,-3.8241,-3.8207,-3.8072,-3.7899,-3.7899,-3.7793,-3.7577,-3.7577,-3.7577,-3.7577,-3.7577,-3.7577,-3.7577,-3.7577,-3.7577,-3.7577,-3.7577,-3.7577,-3.7702,-3.8415,-3.8736,-3.9022,-4.0307,-4.0184,-3.984,-4.0981,-4.0744,-4.0214,-4.0775,-4.0888,-4.0888,-4.0888,-4.0888,-4.0888,-4.0888,0.0,-4.0823,-4.0823,0.0,-4.0238,-4.0238,0.0,0.0,-3.9223,-3.9396,-3.9428,-3.9091,-3.8985,-3.8439,-3.7181,-3.6693,-3.6492,-3.6492,-3.6492,-3.6492,-3.6492,-3.6492,-3.6492,-3.6492,-3.6492,-3.6492,-3.6492,-3.6492,-3.6492,-3.6492,-3.6492,-3.6492,-3.6492,-3.6492,-3.6492,-3.6492,-3.6492,-3.6492,-3.6492,-3.6492,-3.6492,-3.6492,-3.6492,-3.6492,-3.6554,-3.6816,-3.6938,-3.6999,-3.7194,-3.7298,-3.7298,-3.5833,-3.5753,-3.5685,-3.5669,-3.6037,-3.6122,-3.5402,-3.594,-3.6648,-3.7262,-3.8476,-3.9252,-3.921,-3.9627,-3.9889,-3.9889,-3.9889,-3.9889,-3.9889,-3.9889,-3.9889,-3.9889,-3.9781,-3.967,-3.9513,-3.9261,-3.9064,-3.8952,-3.8585,-3.8433,-3.8433,-3.8274,-3.8106,-3.7967,-3.8088,-3.8054,-3.7915,-3.8018,-3.8052,-3.8052,-3.788,-3.781,-3.7828,-3.7649,-3.7577,-3.7577,-3.7577,-3.7577,-3.763,-3.7987,-3.8701,-3.9486,-3.97,-4.0308,-4.0954,-4.1082,-4.1068,-4.0979,-4.1047,-4.1088,-4.1041,-4.0918,-4.0888,-4.0888,-4.0888,-4.0888,-4.0888,-4.0888,0.0,0.0,0.0,0.0,0.0,0.0,-4.0246,-4.0234,-3.9846,-3.9597,-3.9135,-3.827,-3.7854,-3.7621,-3.7562,-3.7546,-3.7401,-3.7074,-3.7342,-3.7222,-3.6554,-3.6831,-3.6831,-3.6492,-3.6492,-3.6492,-3.6492,-3.6492,-3.6492,-3.6492,-3.6831,-3.6831,-3.6492,-3.6831,-3.6831,-3.6492,-3.6892,-3.6907,-3.6816,-3.7194,-3.7358,-3.7417,-3.7492,-3.7285,-3.706,-3.7314,-3.7417,-3.7417,-3.5908,-3.5814,-3.5753,-3.5753,-3.6442,-3.6705,-3.5881,-3.6121,-3.6382,-3.6366,-3.7566,-3.8514,-3.8681,-3.921,-3.9665,-3.987,-3.9889,-3.9889,-3.9889,-3.9889,-3.9889,-3.9889,-3.9889,-3.9867,-3.9781,-3.9599,-3.9458,-3.9364,-3.8933,-3.8718,-3.8718,-3.8491,-3.8382,-3.8249,-3.8396,-3.8364,-3.8249,-3.8396,-3.8428,-3.8382,-3.8186,-3.8052,-3.7984,-3.7721,-3.7577,-3.7577,-3.7577,-3.7577,-3.7648,-3.8076,-3.8968,-3.9896,-3.9789,-4.0753,-4.181,-4.1262,-4.1339,-4.156,-4.1363,-4.1255,-4.1163,-4.0995,-4.0918,-4.0888,-4.0888,-4.0888,-4.0888,-4.0888,-4.0888,0.0,0.0,0.0,-4.0802,-4.0595,0.0,-4.0707,-4.0195,-4.0018,-3.9714,-3.9082,-3.8684,-3.839,-3.8294,-3.8278,-3.8124,-3.7695,-3.8067,-3.7895,-3.7058,-3.7401,-3.746,-3.6997,-3.6831,-3.6723,-3.6723,-3.6723,-3.6723,-3.6723,-3.7178,-3.7178,-3.6785,-3.7178,-3.7074,-3.6554,-3.7238,-3.7314,-3.706,-3.7669,-3.7985,-3.81,-3.8214,-3.7943,-3.7433,-3.761,-3.7653,-3.7711,-3.5908,-3.5908,-3.5889,-3.5889,-3.6604,-3.7151,-3.6973,-3.6735,-3.6577,-3.6492,-3.7108,-3.783,-3.8624,-3.8738,-3.9039,-3.9813,-3.9889,-3.9889,-3.9889,-3.9889,-3.9889,-3.9889,-3.9889,-3.9781,-3.9526,-3.9483,-3.9338,-3.9008,-3.898,-3.898,-3.898,-3.898,-3.8924,-3.8868,-3.8868,-3.877,-3.8579,-3.8579,-3.8504,-3.8382,-3.8382,-3.8219,-3.7984,-3.7721,-3.7577,-3.7577,-3.7577,-3.7577,-3.7826,-3.9325,-3.9878,-4.0182,-4.1698,-4.205,-4.1874,-4.1856,-4.1744,-4.1604,-4.1604,-4.1408,-4.1209,-4.1209,-4.1041,-4.0888,-4.0888,-4.0888,-4.0888,-4.0888,-4.0888,-4.0888,-4.0888,-4.0888,-4.0629,-3.9871,-4.0388,0.0,0.0,-4.0388,-4.0402,-3.9135,-3.8574,-3.8278,-3.8278,-3.8278,-3.8278,-3.8278,-3.8294,-3.8278,-3.8222,-3.8278,-3.8278,-3.8222,-3.7695,-3.7358,-3.7358,-3.7358,-3.7358,-3.7358,-3.7417,-3.7417,-3.7358,-3.7417,-3.7074,-3.6554,-3.7476,-3.7551,-3.706,-3.777,-3.8116,-3.8157,-3.8865,-3.8865,-3.8463,-3.8375,-3.8391,-3.8391,-3.5908,-3.6356,-3.6766,-3.6766,-3.7487,-3.8007,-3.7828,-3.6671,-3.5776,-3.5699,-3.6367,-3.7106,-3.7831,-3.8419,-3.9062,-3.9835,-3.9889,-3.9889,-3.9889,-3.9889,-3.9889,-3.9889,-3.9889,-3.9867,-3.9758,-3.9599,-3.9433,-3.9338,-3.9109,-3.9008,-3.9008,-3.9008,-3.898,-3.898,-3.9017,-3.898,-3.8942,-3.8942,-3.8913,-3.8826,-3.8541,-3.8252,-3.7984,-3.7721,-3.7577,-3.7577,-3.7577,-3.7933,-3.8469,-3.9004,-3.986,-4.0788,-4.1324,-4.1818,-4.2145,-4.2145,-4.2121,-4.2019,-4.1849,-4.1744,-4.1613,-4.13,-4.1163,-4.1041,-4.0918,-4.0888,-4.0888,-4.0888,-4.0888,-4.0888,-4.0888,-4.0888,-4.0802,-4.0526,-4.0698,-4.0784,0.0,-4.0668,-4.0534,-3.9918,-3.9627,-3.9506,-3.9506,-3.9506,-3.9348,-3.892,-3.9295,-3.9119,-3.8334,-3.8684,-3.8684,-3.8278,-3.8124,-3.801,-3.801,-3.7578,-3.7578,-3.801,-3.801,-3.7796,-3.7401,-3.8351,-3.8165,-3.7326,-3.8502,-3.881,-3.8495,-3.9152,-3.947,-3.954,-3.9506,-3.9558,-3.9627,-3.9312,-3.9007,-3.8821,-3.6298,-3.6805,-3.7194,-3.7194,-3.7662,-3.8092,-3.8268,-3.6707,-3.5465,-3.5372,-3.6051,-3.6769,-3.7414,-3.8287,-3.9102,-3.9854,-3.9889,-4.0022,-4.0347,-4.006,-4.0022,-4.0366,-4.006,-3.9889,-3.9889,-3.9735,-3.9647,-3.9647,-3.9439,-3.932,-3.932,-3.932,-3.932,-3.932,-3.9357,-3.9324,-3.9245,-3.9245,-3.9192,-3.9073,-3.8695,-3.8446,-3.8252,-3.7984,-3.7757,-3.763,-3.7916,-3.8362,-3.8897,-3.9432,-4.0289,-4.1145,-4.1431,-4.1877,-4.2287,-4.2287,-4.2287,-4.2246,-4.2103,-4.1934,-4.1719,-4.1408,-4.1226,-4.1041,-4.0918,-4.0888,-4.0888,-4.0888,-4.0888,-4.0888,-4.0888,-4.0888,-4.0888,-4.0888,-4.0888,-4.0888,0.0,-4.0793,-4.0648,-4.0453,-4.0288,-4.0138,-4.0121,-4.007,-3.9969,-3.954,-3.985,-3.9747,-3.8957,-3.9295,-3.9348,-3.8957,-3.8739,-3.8629,-3.8629,-3.8238,-3.8238,-3.8668,-3.8668,-3.8502,-3.8238,-3.9049,-3.8924,-3.8035,-3.9279,-3.9575,-3.9259,-3.9918,-4.0238,-4.0288,-4.0087,-4.0154,-4.0238,-3.9765,-3.9454,-3.9259,-3.7038,-3.7233,-3.7272,-3.7311,-3.7292,-3.7525,-3.8324,-3.6883,-3.5659,-3.5585,-3.6163,-3.6837,-3.749,-3.8287,-3.9102,-3.9854,-3.9889,-4.0252,-4.1086,-4.0344,-4.0268,-4.1105,-4.0347,-3.9889,-3.9889,-3.9927,-3.9927,-3.9889,-3.9927,-3.9927,-3.9889,-3.9889,-3.9889,-3.9889,-3.9889,-3.9758,-3.9502,-3.9483,-3.935,-3.9073,-3.8892,-3.8792,-3.8792,-3.851,-3.8104,-3.781,-3.856,-3.8861,-3.9147,-4.061,-4.1127,-4.1288,-4.2055,-4.2287,-4.2287,-4.2287,-4.2287,-4.2287,-4.2287,-4.1977,-4.1648,-4.1604,-4.129,-4.0918,-4.0935,-4.0935,-4.0888,-4.0888,-4.0888,-4.0888,-4.0888,-4.0888,-4.0888,-4.0888,-4.0888,-4.0888,-4.0888,-4.0758,-4.0645,-4.0645,-4.0351,-4.0153,-4.007,-4.0104,-4.0104,-4.002,-4.002,-4.0037,-4.007,-4.0054,-4.0087,-4.0121,-3.954,-3.9259,-3.9259,-3.9206,-3.9295,-3.9437,-3.9437,-3.9489,-3.961,-3.9662,-3.9315,-3.8799,-3.9731,-3.9799,-3.9365,-4.002,-4.0355,-4.0355,-4.0728,-4.0697,-4.0288,-3.9833,-3.9662,-3.9662,-3.7155,-3.772,-3.8363,-3.9026,-3.8597,-3.8013,-3.7603,-3.6579,-3.6005,-3.64,-3.6632,-3.718,-3.8347,-3.867,-3.9105,-3.9835,-3.9889,-3.9984,-4.0233,-4.0003,-3.9984,-4.0233,-4.0003,-3.9889,-3.9889,-4.0536,-4.0555,-3.9889,-4.0555,-4.0536,-3.9889,-3.9889,-3.9889,-3.9889,-3.9804,-3.967,-3.9483,-3.9383,-3.9245,-3.9073,-3.8892,-3.8792,-3.8792,-3.851,-3.8682,-3.9093,-3.9085,-3.9877,-4.0901,-4.1046,-4.1502,-4.2019,-4.2216,-4.2287,-4.2287,-4.2287,-4.2287,-4.2287,-4.2287,-4.2205,-4.2061,-4.1892,-4.1631,-4.138,-4.118,-4.1012,-4.0888,-4.0888,-4.0888,-4.0888,-4.0888,-4.0888,-4.0888,-4.0888,-4.0888,-4.0888,-4.0888,-4.0371,-3.9915,-3.9821,-3.9247,-3.9033,-3.9372,-3.9932,-3.9968,-3.9309,-3.9276,-3.9512,-4.0054,-3.9563,-3.9579,-4.0221,-4.002,-3.9918,-4.002,-3.947,-3.947,-4.007,-3.961,-3.9489,-3.961,-4.0154,-4.0087,-3.956,-4.0336,-4.0631,-4.0468,-4.068,-4.0745,-4.0745,-4.0871,-4.084,-4.068,-4.0271,-4.032,-4.0566,-3.8259,-3.8725,-3.8987,-3.8714,-3.8266,-3.7779,-3.7272,-3.6785,-3.6573,-3.6842,-3.7549,-3.8247,-3.8854,-3.926,-3.9585,-3.9916,-3.9911,-4.0214,-4.0953,-4.0669,-4.0802,-4.1541,-4.12,-4.0991,-4.0991,-4.1143,-4.1143,-4.0991,-4.1143,-4.1143,-4.0991,-4.0991,-4.0821,-4.0457,-4.0394,-4.0075,-3.9556,-3.9401,-3.9219,-3.9101,-3.8979,-3.895,0.0,-3.919,-3.9774,-4.0478,-4.0583,-4.1034,-4.1647,-4.1761,-4.2016,-4.2287,-4.2287,-4.2287,-4.2287,-4.2287,-4.2287,-4.2287,-4.2287,-4.2187,-4.2061,-4.1849,-4.1587,-4.1363,-4.1134,-4.0965,-4.0888,-4.0888,-4.0888,-4.0888,-4.0888,-4.0888,-4.0888,-4.0888,-4.0888,-4.0767,-4.0405,-3.9974,-3.9531,-3.9158,-3.8763,-3.8465,-3.8384,-3.8973,-3.918,-3.8707,-3.8577,-3.8747,-3.9171,-3.8783,-3.8901,-3.9795,-3.9763,-3.9915,-4.0387,-3.9952,-4.002,-4.0453,-4.0154,-4.0037,-4.0187,-4.0583,-4.0614,-4.0319,-4.071,-4.0888,-4.0888,-4.0888,-4.0888,-4.0888,-4.0888,-4.0888,-4.0871,-4.0648,-4.0697,-4.0888,-3.9809,-3.9799,-3.9182,-3.7798,-3.735,-3.7233,-3.735,-3.7272,-3.719,-3.7175,-3.8596,-3.9517,-3.9281,-3.9893,-4.027,-4.0169,-4.0103,-4.0745,-4.2299,-4.1749,-4.1958,-4.3322,-4.2754,-4.2356,-4.2261,-4.1768,-4.1825,-4.2412,-4.1825,-4.1844,-4.2412,-4.2412,-4.2033,-4.1351,-4.1256,-4.064,-3.9693,-3.9408,-3.9219,-3.911,-3.9101,-3.9101,-3.9194,-4.0067,-4.0903,-4.1672,-4.2253,-4.2187,-4.194,-4.2515,-4.2534,-4.2369,-4.2328,-4.2287,-4.2287,-4.2287,-4.2287,-4.2287,-4.2287,-4.2145,-4.1934,-4.1736,-4.1453,-4.1226,-4.1012,-4.0918,-4.0888,-4.0888,-4.0888,-4.0888,-4.0888,-4.0888,-4.0888,-4.0888,-4.0802,-4.0491,-3.9802,-3.9526,-3.9163,-3.8525,-3.8353,0.0,-3.7239,-3.7809,-3.8179,-3.8077,-3.7967,-3.7908,-3.7993,-3.7865,-3.8187,-3.9078,-3.9064,-3.945,-4.0226,-4.0329,-4.0446,-4.0542,-4.0645,-4.0793,-4.0888,-4.0888,-4.0888,-4.0888,-4.0888,-4.0888,-4.0888,-4.0888,-4.0888,-4.0888,-4.0888,-4.0888,-4.0888,-4.0888,-4.0888,-4.0888,-4.0707,-3.9721,-3.887,-3.9279,-3.8168,-3.7448,-3.8168,-3.7662,-3.7404,-3.8002,-3.8965,-3.9738,-4.0146,-4.0257,-4.0519,-4.1024,-4.0994,-4.1389,-4.2337,-4.228,-4.2033,-4.1654,-4.2128,-4.209,-4.1427,-4.264,-4.2981,-4.2412,-4.2981,-4.2981,-4.2412,-4.2412,-4.2318,-4.2166,-4.1503,-4.064,-3.9693,-3.9408,-3.9298,-3.9245,-3.9137,-3.9101,-3.9194,-4.0067,-4.0903,-4.1702,-4.244,-4.2955,-4.319,-4.281,-4.2673,-4.2595,-4.2351,-4.2287,-4.2287,-4.2287,-4.2287,-4.2287,-4.2287,-4.2287,-4.2246,-4.2205,-4.1849,-4.1498,-4.1471,-4.1198,-4.0888,-4.0888,-4.0888,-4.0888,-4.0888,-4.0888,-4.0888,-4.0888,-4.0336,-3.9853,-3.9715,-3.8646,-3.7818,-3.7698,-3.7094,-3.6646,-3.6465,-3.7634,-3.8066,-3.7359,-3.7263,-3.7519,-3.8116,-3.7604,-3.7621,-3.8511,-3.8418,-3.8487,-3.8763,-3.9303,-3.9611,-3.9735,-4.0388,-4.0793,-4.0888,-4.0888,-4.0888,-4.0888,-4.0888,-4.0888,-4.0888,-4.0888,-4.0888,-4.0888,-4.0888,-4.0888,-4.0888,-4.0888,-4.0888,-4.0888,-4.0421,-3.9754,-3.9151,-3.9129,-3.8422,-3.8013,-3.8441,-3.8539,-3.8682,-3.9038,-3.9848,-4.0615,-4.1228,-4.1152,-4.136,-4.2068,-4.1963,-4.2231,-4.3065,-4.3099,-4.2905,-4.2507,-4.2867,-4.2886,-4.2507,-4.2848,-4.3246,-4.3701,-4.3701,-4.3701,-4.3701,-4.3701,-4.3474,-4.3019,-4.1768,-4.064,-3.9693,-3.9502,-3.9376,-3.9298,-3.9137,-3.9101,-3.9194,-4.0067,-4.0903,-4.1702,-4.25,-4.3237,-4.373,-4.316,-4.2826,-4.2634,-4.2391,-4.2287,-4.2287,-4.2287,-4.2287,-4.2287,-4.2287,-4.2287,-4.2287,-4.2103,-4.1934,-4.1675,-4.1453,-4.1226,-4.1059,-4.0918,-4.0888,-4.0888,-4.0888,-4.0543,-4.0267,-4.0267,-3.9629,-3.8991,-3.8594,-3.7939,-3.7335,-3.6922,-3.6542,-3.6301,-3.6301,-3.693,-3.7119,-3.6715,-3.6654,-3.6781,-3.7141,-3.6771,-3.6908,-3.7796,-3.7768,-3.7957,-3.8504,-3.882,-3.9009,-3.9038,-3.9812,-4.022,-4.0284,-4.0698,-4.0888,-4.0888,-4.0888,-4.0888,-4.0888,-4.0888,-4.0888,-4.0888,-4.0888,-4.0888,-4.0888,-4.0888,-4.0888,-4.0888,-4.0201,-3.9933,-3.9642,-3.9146,-3.8895,-3.8909,-3.926,-3.9883,-4.0273,-4.0097,-4.0818,-4.1629,-4.2296,-4.2218,-4.2391,-4.3109,-4.2966,-4.3178,-4.4003,-4.3995,-4.3796,-4.3436,-4.3606,-4.3531,-4.3189,-4.2659,-4.3152,-4.4649,-4.4004,-4.4023,-4.4649,-4.4819,-4.4364,-4.336,-4.1882,-4.0662,-3.9739,-3.9599,-3.9477,-3.9324,-3.9192,-3.9129,-3.9194,-4.0067,-4.0855,-4.1642,-4.244,-4.3193,-4.3763,-4.325,-4.2957,-4.275,-4.2391,-4.2287,-4.2287,-4.2287,-4.2287,-4.2287,-4.2287,-4.2287,-4.2246,-4.2061,-4.1934,-4.1788,-4.1391,-4.1255,-4.1163,-4.1012,-4.0965,-4.0965,-4.0935,-4.0233,-3.9698,-3.9698,-3.8939,-3.8146,-3.756,-3.7335,-3.6991,-3.6387,-3.6301,-3.6301,-3.6301,-3.6301,-3.6301,-3.6301,-3.6233,-3.6208,-3.6208,-3.6105,-3.638,-3.7067,-3.7084,-3.7403,-3.8094,-3.8267,-3.8353,-3.837,-3.9112,-3.9543,-3.9715,-4.0353,-4.0716,-4.0888,-4.0888,-4.0888,-4.0888,-4.0888,-4.0888,-4.0888,-4.0888,-4.0888,-4.0888,-4.0888,-4.0888,-4.0935,-4.0995,-4.0344,-4.002,-4.0738,-4.0203,-4.0195,-4.1714,-4.2007,-4.1812,-4.1071,-4.1675,-4.2466,-4.3199,-4.3218,-4.3402,-4.4032,-4.3943,-4.4149,-4.4843,-4.4806,-4.4118,-4.2602,-4.3284,-4.3,-4.1484,-4.2071,-4.2867,-4.3815,-4.3739,-4.3739,-4.3834,-4.4554,-4.4061,-4.2488,-4.1598,-4.0704,-3.9867,-3.9739,-3.958,-3.9477,-3.935,-3.9192,-3.9194,-4.0067,-4.0767,-4.1346,-4.2138,-4.2782,-4.3232,-4.2864,-4.292,-4.305,-4.2472,-4.2287,-4.2287,-4.2287,-4.2287,-4.2287,-4.2287,-4.2287,-4.2287,-4.2287,-4.2061,-4.1831,-4.1587,-4.1346,-4.1192,-4.1163,-4.1163,-4.1134,-4.0918,-4.0233,-3.9698,-3.9698,-3.8508,-3.756,-3.7491,-3.687,-3.6387,-3.6301,-3.6301,-3.6301,-3.6301,-3.6301,-3.6301,-3.6301,-3.6301,-3.6301,-3.6301,-3.6259,-3.6293,-3.6404,-3.6404,-3.6439,-3.6508,-3.7232,-3.7594,-3.7594,-3.8336,-3.9043,-3.9698,-3.9767,-4.0198,-4.0888,-4.0888,-4.0888,-4.0888,-4.0888,-4.0888,-4.0888,-4.0888,-4.0888,-4.0888,-4.0888,-4.0888,-4.0918,-4.1091,-4.082,-4.0698,-4.1041,-4.123,-4.1598,-4.2261,-4.2766,-4.3156,-4.3351,-4.3215,-4.3396,-4.4211,-4.42,-4.4447,-4.5221,-4.5021,-4.494,-4.5163,-4.5045,-4.4204,-4.2469,-4.2735,-4.2393,-4.1237,-4.1522,-4.209,-4.2924,-4.2924,-4.3189,-4.3701,-4.4023,-4.3549,-4.2375,-4.156,-4.0726,-3.9889,-3.9758,-3.9623,-3.9502,-3.935,-3.9219,-3.9138,-3.9491,-4.0084,-4.0829,-4.1625,-4.2263,-4.275,-4.2941,-4.2957,-4.2844,-4.2432,-4.2287,-4.2287,-4.2287,-4.2287,-4.2287,-4.2287,-4.2287,-4.2287,-4.2287,-4.2246,-4.2061,-4.1849,-4.1719,-4.1569,-4.1453,-4.13,-4.0978,-4.0296,-3.9543,-3.8888,-3.8439,-3.7473,-3.6766,-3.6766,-3.649,-3.6301,-3.6301,-3.6301,-3.6301,-3.6301,-3.6301,-3.6301,-3.6301,-3.6301,-3.6301,-3.6301,-3.6301,-3.6301,-3.6301,-3.6301,-3.6301,-3.6301,-3.6611,-3.6766,-3.6784,-3.756,-3.8077,-3.8387,-3.8836,-3.9457,-4.0198,-4.0681,-4.0888,-4.0888,-4.0888,-4.0965,-4.1088,-4.0965,-4.0965,-4.1088,-4.0918,-4.0888,-4.0918,-4.1105,-4.1305,-4.1483,-4.1483,-4.2195,-4.2861,-4.3103,-4.3626,-4.4306,-4.517,-4.4754,-4.4598,-4.5222,-4.5196,-4.5376,-4.5949,-4.5722,-4.5486,-4.5323,-4.4911,-4.4011,-4.2469,-4.2185,-4.1673,-4.084,-4.0821,-4.1219,-4.2052,-4.2052,-4.2356,-4.2962,-4.2697,-4.2393,-4.2014,-4.12,-4.0479,-3.9889,-3.9804,-3.967,-3.9483,-3.9401,-3.9245,-3.9101,-3.9101,-3.9593,-4.0341,-4.1204,-4.1765,-4.2242,-4.285,-4.2844,-4.2573,-4.2369,-4.2287,-4.2287,-4.2287,-4.2287,-4.2287,-4.2287,-4.2287,-4.2287,-4.2287,-4.2287,-4.2246,-4.1977,-4.1874,-4.1831,-4.1648,-4.1498,-4.1056,-4.0019,-3.923,-3.8442,-3.7638,-3.6818,-3.6301,-3.6301,-3.6301,-3.6301,-3.6301,-3.6301,-3.6301,-3.6301,-3.6301,-3.6301,-3.6301,-3.6301,-3.6301,-3.6301,-3.6301,-3.6301,-3.6301,-3.6301,-3.6301,-3.6301,-3.6301,-3.6301,-3.6301,-3.687,-3.7267,-3.7508,-3.8249,-3.8991,-3.9733,-4.0284,-4.0664,-4.0871,-4.0965,-4.1088,-4.1209,-4.1134,-4.118,-4.13,-4.1152,-4.1105,-4.1105,-4.1111,-4.1789,-4.2381,-4.2381,-4.3105,-4.3956,-4.4751,-4.4883,-4.5197,-4.6066,-4.6176,-4.6176,-4.6176,-4.6176,-4.6127,-4.6007,-4.5936,-4.5731,-4.5342,-4.4499,-4.3517,-4.245,-4.1654,-4.0821,-3.9927,-3.9908,-4.0347,-4.1219,-4.1219,-4.1219,-4.1219,-4.0366,-4.0382,-4.1181,-4.0309,-3.9908,-3.9889,-3.9889,-3.9735,-3.9502,-3.9502,-3.935,-3.9101,-3.9101,-3.9441,-4.0044,-4.0891,-4.1334,-4.1609,-4.2441,-4.2534,-4.2287,-4.2287,-4.2287,-4.2287,-4.2287,-4.2287,-4.2287,-4.2287,-4.2287,-4.2287,-4.2287,-4.2287,-4.2246,-4.1977,-4.1874,-4.1831,-4.1648,-4.1762,-4.1515,-4.0306,-3.9469,-3.8677,-3.7655,-3.6818,-3.6301,-3.6301,-3.6301,-3.6301,-3.6301,-3.6301,-3.6301,-3.6301,-3.6301,-3.6301,-3.6301,-3.6301,-3.6301,-3.6301,-3.6301,-3.6301,-3.6301,-3.6301,-3.6301,-3.6301,-3.6301,-3.6301,-3.6301,-3.6301,-3.6732,-3.7508,-3.8249,-3.8991,-3.9698,-3.9715,-4.0164,-4.0935,-4.1117,-4.1209,-4.1255,-4.1498,-4.1604,-4.1604,-4.1604,-4.1604,-4.1604,-4.1869,-4.2207,-4.2583,-4.3188,-4.4,-4.4668,-4.4921,-4.5431,-4.5889,-4.6153,-4.6203,-4.6196,-4.6196,-4.6196,-4.6189,-4.6146,-4.6037,-4.5883,-4.5717,-4.468,-4.3637,-4.2639,-4.1708,-4.0802,-3.9908,-3.9889,-4.0022,-4.0306,-4.0306,-4.0631,-4.12,-4.0934,-4.0934,-4.1162,-4.0309,-3.9889,-3.9889,-3.9889,-3.9804,-3.9647,-3.9551,-3.9383,-3.9219,-3.911,-3.9194,-3.947,-4.0341,-4.0922,-4.1418,-4.2223,-4.2686,-4.2862,-4.2652,-4.2472,-4.2287,-4.2287,-4.2287,-4.2287,-4.2287,-4.2287,-4.2287,-4.2287,-4.2287,-4.2287,-4.2187,-4.2187,-4.2103,-4.1849,-4.1485,-4.0824,-3.9771,-3.8898,-3.807,-3.7089,-3.6759,-3.6502,-3.6343,-3.6301,-3.6301,-3.6301,-3.6301,-3.6301,-3.6301,-3.6301,-3.6301,-3.6301,-3.6301,-3.6301,-3.6301,-3.6301,-3.6301,-3.6301,-3.6301,-3.6301,-3.6301,-3.6301,-3.6301,-3.6301,-3.6301,-3.6422,-3.6697,-3.7473,-3.7974,-3.8215,-3.8893,-3.9596,-4.037,-4.0577,-4.1051,-4.1657,-4.1631,-4.1831,-4.211,-4.1924,-4.2032,-4.2221,-4.2728,-4.3157,-4.3548,-4.4094,-4.4906,-4.5481,-4.5486,-4.5893,-4.6202,-4.621,-4.6189,-4.6196,-4.6196,-4.6196,-4.6196,-4.6196,-4.6111,-4.5891,-4.544,-4.4404,-4.3355,-4.237,-4.134,-4.0528,-3.9996,-3.9933,-3.9889,-3.9889,-3.9889,-4.0195,-4.0726,-4.0726,-4.0726,-4.0707,-4.0135,-3.9889,-3.9889,-3.9889,-3.9826,-3.9693,-3.9532,-3.9427,-3.9298,-3.9137,-3.9101,-3.9212,-4.0085,-4.0737,-4.1314,-4.2124,-4.2766,-4.3123,-4.2788,-4.2613,-4.2432,-4.2328,-4.2287,-4.2287,-4.2287,-4.2287,-4.2287,-4.2287,-4.2287,-4.2287,-4.2287,-4.2287,-4.2157,-4.1689,-4.1227,-4.0547,-3.9241,-3.8584,-3.7923,-3.6864,-3.6766,-3.6708,-3.6343,-3.6402,-3.6444,-3.6444,-3.6343,-3.6343,-3.6444,-3.6343,-3.6301,-3.6301,-3.6301,-3.6301,-3.6301,-3.6301,-3.6301,-3.6301,-3.6301,-3.6301,-3.6301,-3.6301,-3.6301,-3.6301,-3.6301,-3.6343,-3.6461,-3.7037,-3.7544,-3.7923,-3.8626,-3.9341,-4.0123,-4.063,-4.122,-4.1805,-4.2085,-4.2396,-4.2673,-4.2498,-4.2559,-4.2752,-4.3626,-4.4445,-4.5012,-4.509,-4.5753,-4.6309,-4.6305,-4.6249,-4.6198,-4.6195,-4.6195,-4.6196,-4.6196,-4.6196,-4.6196,-4.6196,-4.6196,-4.5749,-4.4694,-4.3784,-4.2841,-4.1771,-4.069,-4.0101,-4.0101,-3.9977,-3.9911,-3.9889,-3.9889,-3.9889,-3.9889,-3.9889,-3.9889,-3.9889,-3.9889,-3.9889,-3.9889,-3.9889,-3.9826,-3.9693,-3.9575,-3.9433,-3.9298,-3.9165,-3.9101,-3.9212,-4.0011,-4.0663,-4.1272,-4.2083,-4.2727,-4.3123,-4.2846,-4.277,-4.2711,-4.2391,-4.2287,-4.2287,-4.2287,-4.2287,-4.2287,-4.2287,-4.2287,-4.2287,-4.2287,-4.2287,-4.2055,-4.127,-4.1056,-4.0517,-3.8827,-3.8486,-3.8086,-3.6928,-3.6908,-3.6851,-3.6385,-3.6544,-3.6702,-3.6702,-3.6485,-3.6444,-3.6702,-3.6444,-3.6301,-3.6301,-3.6301,-3.6301,-3.6343,-3.6343,-3.6343,-3.6343,-3.6343,-3.6367,-3.6367,-3.6367,-3.6343,-3.6343,-3.6343,-3.6485,-3.6766,-3.6956,-3.7542,-3.8463,-3.8706,-3.9247,-4.0019,-4.1034,-4.1506,-4.1633,-4.2705,-4.3123,-4.3159,-4.3214,-4.3232,-4.3196,-4.4524,-4.4855,-4.5207,-4.587,-4.6163,-4.6303,-4.6309,-4.623,-4.6202,-4.6198,-4.6192,-4.6196,-4.6196,-4.6196,-4.6196,-4.6196,-4.6196,-4.5818,-4.49,-4.3859,-4.2892,-4.197,-4.0838,-4.0194,-4.0101,-4.0061,-4.0,-3.9889,-3.9889,-3.9889,-3.9889,-3.9889,-3.9889,-3.9889,-3.9889,-3.9889,-3.9889,-3.9889,-3.9889,-3.9826,-3.9693,-3.9556,-3.9452,-3.9298,-3.9192,-3.912,-3.9324,-3.9927,-4.0704,-4.1519,-4.2286,-4.295,-4.3275,-4.3408,-4.3249,-4.2494,-4.2287,-4.2287,-4.2287,-4.2287,-4.2287,-4.2287,-4.2287,-4.2287,-4.2287,-4.2287,-4.2055,-4.127,-4.061,-3.9875,-3.8892,-3.8216,-3.766,-3.7217,-3.7182,-3.7066,-3.6684,-3.6788,-3.6869,-3.6702,-3.6788,-3.6788,-3.6702,-3.6643,-3.6502,-3.6301,-3.6301,-3.6451,-3.6741,-3.6821,-3.6843,-3.6843,-3.6843,-3.6981,-3.7285,-3.6999,-3.6759,-3.6602,-3.6748,-3.6952,-3.7261,-3.7264,-3.7503,-3.7882,-3.8166,-3.8721,-3.9409,-3.9835,-4.0377,-4.1013,-4.1849,-4.2353,-4.265,-4.3275,-4.3631,-4.3795,-4.5418,-4.5597,-4.5734,-4.6222,-4.63,-4.63,-4.63,-4.6267,-4.6229,-4.6205,-4.6191,-4.6203,-4.6203,-4.6196,-4.604,-4.5631,-4.5611,-4.5241,-4.4364,-4.3364,-4.241,-4.1546,-4.08,-4.0351,-4.0283,-4.0212,-4.0139,-3.9979,-3.9933,-3.9889,-3.9889,-3.9889,-3.9889,-3.9889,-3.9889,-3.9889,-3.9889,-3.9889,-3.9889,-3.9889,-3.9739,-3.9623,-3.9502,-3.935,-3.9219,-3.9101,-3.9101,-3.9658,-4.0513,-4.133,-4.2069,-4.2741,-4.3406,-4.3408,-4.3105,-4.2595,-4.2494,-4.2494,-4.2494,-4.2391,-4.2287,-4.2287,-4.2287,-4.2287,-4.2287,-4.2002,-4.152,-4.0717,-3.995,-3.9165,-3.8397,-3.788,-3.754,-3.7334,-3.7372,-3.7297,-3.6869,-3.7027,-3.7105,-3.7005,-3.6987,-3.6987,-3.6965,-3.6886,-3.6829,-3.6799,-3.6799,-3.69,-3.7228,-3.7268,-3.7305,-3.7285,-3.7305,-3.7434,-3.7649,-3.7434,-3.7285,-3.717,-3.7283,-3.7469,-3.7703,-3.7826,-3.7962,-3.8212,-3.8455,-3.8774,-3.9177,-3.9693,-4.0165,-4.0643,-4.1434,-4.2083,-4.2649,-4.3074,-4.3545,-4.3974,-4.6136,-4.63,-4.63,-4.63,-4.63,-4.63,-4.63,-4.63,-4.6289,-4.6205,-4.6206,-4.6153,-4.6027,-4.6001,-4.565,-4.4773,-4.4579,-4.4189,-4.3448,-4.2661,-4.181,-4.0946,-4.0674,-4.054,-4.0511,-4.0367,-4.023,-4.0101,-3.9998,-3.9933,-3.9889,-3.9889,-3.9889,-3.9889,-3.9889,-3.9889,-3.9889,-3.9889,-3.9889,-3.9889,-3.9781,-3.9647,-3.9502,-3.9357,-3.9219,-3.9101,-3.9101,-3.9584,-4.0327,-4.1126,-4.1804,-4.2429,-4.3221,-4.3228,-4.2884,-4.2884,-4.2846,-4.2826,-4.2673,-4.2454,-4.2287,-4.2287,-4.2287,-4.2251,-4.2144,-4.1591,-4.0842,-3.9932,-3.9254,-3.8558,-3.7737,-3.7577,-3.7558,-3.7447,-3.754,-3.754,-3.7164,-3.7279,-3.7372,-3.7297,-3.7182,-3.7143,-3.7314,-3.7182,-3.7185,-3.7394,-3.745,-3.7524,-3.7685,-3.7754,-3.7823,-3.7825,-3.7789,-3.7805,-3.7805,-3.7823,-3.7823,-3.7754,-3.7789,-3.7962,-3.8201,-3.8392,-3.8597,-3.8833,-3.9017,-3.9101,-3.9157,-3.99,-4.0197,-4.0271,-4.1089,-4.1832,-4.2445,-4.2575,-4.3132,-4.3788,-4.6253,-4.63,-4.63,-4.63,-4.63,-4.63,-4.63,-4.63,-4.6289,-4.6205,-4.6206,-4.5919,-4.517,-4.5105,-4.4754,-4.3877,-4.3137,-4.265,-4.2513,-4.2373,-4.1866,-4.0946,-4.0818,-4.0674,-4.0492,-4.0367,-4.023,-4.0101,-4.0081,-4.0,-3.9889,-3.9889,-3.9889,-3.9889,-3.9889,-3.9889,-3.9889,-3.9889,-3.9889,-3.9889,-3.9889,-3.9735,-3.9502,-3.9477,-3.9324,-3.9101,-3.9101,-3.9194,-3.9435,-4.029,-4.1078,-4.1846,-4.2662,-4.3323,-4.3795,-4.3795,-4.3646,-4.3303,-4.2573,-4.2328,-4.2287,-4.2287,-4.2287,-4.2109,-4.1431,-4.1199,-4.0699,-3.9272,-3.8897,-3.8558,-3.7737,-3.7577,-3.7649,-3.7845,-3.7915,-3.7845,-3.7631,-3.7774,-3.7739,-3.7334,-3.741,-3.7429,-3.7297,-3.7466,-3.7559,-3.7413,-3.7542,-3.7789,-3.8162,-3.8241,-3.8418,-3.8766,-3.8468,-3.8305,-3.8305,-3.8405,-3.8296,-3.805,-3.8216,-3.8428,-3.8683,-3.8713,-3.8844,-3.9045,-3.9073,-3.9101,-3.9101,-3.925,-3.9305,-3.938,-4.0253,-4.0661,-4.0847,-4.1534,-4.2296,-4.2953,-4.6269,-4.63,-4.63,-4.63,-4.63,-4.63,-4.63,-4.629,-4.6282,-4.6269,-4.5813,-4.5343,-4.4938,-4.4481,-4.3858,-4.2981,-4.2533,-4.2124,-4.1675,-4.1622,-4.1388,-4.0927,-4.0839,-4.0761,-4.0668,-4.0496,-4.0351,-4.0212,-4.0139,-4.004,-3.9889,-3.9889,-3.9889,-3.9889,-3.9889,-3.9889,-3.9889,-3.9889,-3.9889,-3.9889,-3.9889,-3.9781,-3.9599,-3.9526,-3.9376,-3.9192,-3.9129,-3.9101,-3.9231,-4.0104,-4.0518,-4.0855,-4.1857,-4.2482,-4.2916,-4.3084,-4.3347,-4.3477,-4.292,-4.2786,-4.2786,-4.2786,-4.2364,-4.1854,-4.1573,-4.0777,-3.9911,-3.9301,-3.885,-3.8469,-3.809,-3.8018,-3.8086,-3.8186,-3.8219,-3.8119,-3.788,-3.7949,-3.7845,-3.7503,-3.7685,-3.7792,-3.7685,-3.7915,-3.8101,-3.815,-3.8231,-3.8423,-3.8658,-3.873,-3.8855,-3.8997,-3.8836,-3.8789,-3.8789,-3.8836,-3.8796,-3.8628,-3.8737,-3.8844,-3.896,-3.896,-3.9017,-3.9101,-3.9101,-3.9101,-3.9101,-3.9101,-3.9101,-3.9138,-3.9547,-3.9974,-4.0438,-4.081,-4.146,-4.2173,-4.6211,-4.6273,-4.63,-4.63,-4.63,-4.63,-4.63,-4.63,-4.6215,-4.5995,-4.535,-4.4753,-4.4348,-4.3707,-4.2961,-4.2104,-4.2026,-4.1753,-4.1149,-4.1045,-4.0988,-4.0888,-4.0848,-4.08,-4.079,-4.0607,-4.0431,-4.03,-4.0177,-4.004,-3.9889,-3.9889,-3.9889,-3.9889,-3.9889,-3.9889,-3.9889,-3.9889,-3.9889,-3.9889,-3.9889,-3.9804,-3.9647,-3.9551,-3.9401,-3.9245,-3.9156,-3.9101,-3.9194,-3.9863,-4.0063,-4.0184,-4.1048,-4.1557,-4.1889,-4.2138,-4.2645,-4.3115,-4.2921,-4.2923,-4.2868,-4.2686,-4.1996,-4.1379,-4.1358,-4.0254,-3.9278,-3.9264,-3.8802,-3.8382,-3.8382,-3.8382,-3.8415,-3.8478,-3.8478,-3.8415,-3.8219,-3.8186,-3.8086,-3.7828,-3.7949,-3.8086,-3.8086,-3.835,-3.859,-3.8773,-3.8833,-3.8921,-3.9007,-3.9073,-3.9073,-3.9036,-3.9073,-3.9101,-3.9101,-3.9101,-3.9101,-3.9101,-3.9101,-3.9101,-3.9101,-3.9101,-3.9101,-3.9101,-3.9101,-3.9101,-3.9101,-3.9101,-3.9101,-3.9101,-3.9101,-3.951,-4.0085,-4.0085,-4.0606,-4.1375,-4.6091,-4.6211,-4.63,-4.63,-4.63,-4.63,-4.63,-4.63,-4.5983,-4.5115,-4.4936,-4.4298,-4.2662,-4.2435,-4.2065,-4.1266,-4.1188,-4.1169,-4.111,-4.1104,-4.1038,-4.0907,-4.0843,-4.0803,-4.079,-4.0607,-4.0431,-4.03,-4.0177,-4.004,-3.9889,-3.9889,-3.9889,-3.9889,-3.9889,-3.9889,-3.9889,-3.9889,-3.9889,-3.9889,-3.9889,-3.9758,-3.9508,-3.9483,-3.935,-3.9129,-3.9101,-3.9101,-3.9101,-3.9175,-3.9733,-4.0372,-4.0457,-4.1004,-4.1623,-4.1653,-4.169,-4.1785,-4.1933,-4.1994,-4.183,-4.1048,-4.083,-4.0593,-3.9829,-3.9556,-3.9283,-3.862,-3.8419,-3.8382,-3.8382,-3.8382,-3.8478,-3.8713,-3.8792,-3.8743,-3.8743,-3.8743,-3.8652,-3.8382,-3.835,-3.8382,-3.8382,-3.8621,-3.8792,-3.8792,-3.896,-3.9073,-3.9101,-3.9101,-3.9101,-3.9101,-3.9101,-3.9101,-3.9101,-3.9101,-3.9101,-3.9101,-3.9101,-3.9101,-3.9101,-3.9101,-3.9101,-3.9101,-3.9101,-3.9101,-3.9101,-3.9101,-3.9101,-3.9101,-3.9101,-3.9138,-3.9194,-3.9194,-3.9733,-4.0494,-4.6064,-4.6211,-4.63,-4.63,-4.63,-4.63,-4.63,-4.63,-4.598,-4.5078,-4.449,-4.3698,-4.249,-4.1889,-4.1442,-4.113,-4.111,-4.111,-4.111,-4.103,-4.0943,-4.0907,-4.0843,-4.079,-4.079,-4.0733,-4.0564,-4.03,-4.0248,-4.012,-3.9889,-3.9889,-3.9889,-3.9889,-3.9889,-3.9889,-3.9889,-3.9889,-3.9889,-3.9889,-3.9889,-3.9845,-3.9735,-3.9575,-3.9452,-3.9324,-3.9156,-3.9101,-3.9101,-3.9101,-3.9324,-3.9584,-3.9584,-4.016,-4.094,-4.1441,-4.159,-4.1523,-4.1071,-4.1322,-4.1636,-4.1322,-4.0767,-4.0212,-4.0075,-3.9553,-3.9032,-3.887,-3.8826,-3.8826,-3.8826,-3.8826,-3.8873,-3.896,-3.9007,-3.895,-3.8822,-3.8792,-3.8683,-3.8415,-3.8559,-3.8652,-3.8652,-3.8844,-3.9007,-3.9007,-3.9045,-3.9101,-3.9101,-3.9101,-3.9101,-3.9101,-3.9101,-3.9101,-3.9101,-3.9101,-3.9101,-3.9101,-3.9101,-3.9101,-3.9101,-3.9101,-3.9101,-3.9101,-3.9101,-3.9101,-3.9101,-3.9101,-3.9101,-3.9101,-3.9101,-3.9101,-3.9101,-3.9101,-3.9305,-3.9686,-4.6013,-4.6181,-4.63,-4.63,-4.63,-4.63,-4.63,-4.6066,-4.5587,-4.4703,-4.3828,-4.2958,-4.2096,-4.1451,-4.111,-4.111,-4.111,-4.111,-4.111,-4.098,-4.0898,-4.0858,-4.082,-4.079,-4.079,-4.0746,-4.0593,-4.0367,-4.0283,-4.0139,-3.9956,-3.9933,-3.9889,-3.9889,-3.9889,-3.9889,-3.9889,-3.9889,-3.9889,-3.9889,-3.9889,-3.9867,-3.9804,-3.9599,-3.9458,-3.9427,-3.9165,-3.9101,-3.9101,-3.9101,-3.9101,-3.9101,-3.9101,-3.951,-4.0085,-4.0643,-4.081,-4.068,-4.0141,-4.0383,-4.081,-4.081,-4.0248,-3.9782,-3.9946,-3.9415,-3.895,-3.9073,-3.9101,-3.9101,-3.9101,-3.9101,-3.9101,-3.9101,-3.9101,-3.9045,-3.8921,-3.8892,-3.8833,-3.8634,-3.8785,-3.8892,-3.8892,-3.9017,-3.9101,-3.9101,-3.9101,-3.9101,-3.9101,-3.9101,-3.9101,-3.9101,-3.9101,-3.9101,-3.9101,-3.9101,-3.9101,-3.9101,-3.9101,-3.9101,-3.9101,-3.9101,-3.9101,-3.9101,-3.9101,-3.9101,-3.9101,-3.9101,-3.9101,-3.9101,-3.9101,-3.9101,-3.9101,-3.9073,-3.9073,-3.9147,-4.5899,-4.6131,-4.63,-4.63,-4.63,-4.63,-4.628,-4.5558,-4.4689,-4.3806,-4.2948,-4.2078,-4.1195,-4.11,-4.111,-4.111,-4.111,-4.111,-4.111,-4.098,-4.0858,-4.0803,-4.079,-4.079,-4.079,-4.0607,-4.0511,-4.0511,-4.023,-4.0101,-4.0101,-3.9956,-3.9911,-3.9889,-3.9889,-3.9889,-3.9889,-3.9889,-3.9889,-3.9889,-3.9889,-3.9826,-3.9693,-3.9532,-3.9427,-3.9272,-3.9156,-3.9101,-3.9101,-3.9101,-3.9101,-3.9101,-3.9101,-3.9101,-3.9101,-3.9101,-3.9101,-3.9101,-3.9101,-3.9101,-3.9101,-3.9101,-3.9101,-3.9101,-3.9101,-3.9101,-3.9101,-3.9101,-3.9101,-3.9101,-3.9101,-3.9101,-3.9101,-3.9101,-3.9101,-3.9101,-3.9101,-3.9101,-3.9101,-3.9101,-3.9101,-3.9101,-3.9101,-3.9101,-3.9101,-3.9101,-3.9101,-3.9101,-3.9101,-3.9101,-3.9101,-3.9101,-3.9101,-3.9101,-3.9101,-3.9101,-3.9101,-3.9101,-3.9101,-3.9101,-3.9101,-3.9101,-3.9101,-3.9101,-3.9101,-3.9101,-3.9101,-3.9101,-3.9101,-3.9101,-3.9101,-3.9101,-3.9101,-3.9036,-3.8979,-3.8979,-4.5899,-4.6131,-4.63,-4.63,-4.63,-4.6085,-4.548,-4.5168,-4.4471,-4.2986,-4.2558,-4.2078,-4.1195,-4.11,-4.111,-4.111,-4.111,-4.1071,-4.0971,-4.0926,-4.0858,-4.0803,-4.079,-4.079,-4.079,-4.0746,-4.0635,-4.0511,-4.0415,-4.0283,-4.0101,-4.006,-3.9998,-3.9889,-3.9889,-3.9889,-3.9889,-3.9889,-3.9889,-3.9889,-3.9889,-3.9889,-3.9804,-3.9599,-3.9477,-3.9427,-3.9165,-3.9101,-3.9101,-3.9101,-3.9101,-3.9101,-3.9101,-3.9101,-3.9101,-3.9101,-3.9101,-3.9101,-3.9101,-3.9101,-3.9101,-3.9101,-3.9101,-3.9101,-3.9101,-3.9101,-3.9101,-3.9101,-3.9101,-3.9101,-3.9101,-3.9101,-3.9101,-3.9101,-3.9101,-3.9101,-3.9101,-3.9101,-3.9101,-3.9101,-3.9101,-3.9101,-3.9101,-3.9101,-3.9101,-3.9101,-3.9101,-3.9101,-3.9101,-3.9101,-3.9101,-3.9101,-3.9101,-3.9101,-3.9101,-3.9101,-3.9101,-3.9101,-3.9101,-3.9101,-3.9101,-3.9101,-3.9101,-3.9101,-3.9101,-3.9101,-3.9101,-3.9101,-3.9101,-3.9101,-3.9101,-3.9101,-3.9101,-3.9036,-3.8979,-3.9007,-4.5899,-4.6131,-4.63,-4.63,-4.6007,-4.5617,-4.509,-4.4406,-4.359,-4.2548,-4.2109,-4.1689,-4.115,-4.1111,-4.111,-4.111,-4.111,-4.1038,-4.0917,-4.0907,-4.0858,-4.0803,-4.079,-4.079,-4.079,-4.079,-4.0746,-4.0621,-4.0217,-4.0108,-4.0248,-3.9888,-3.9834,-4.006,-4.0,-3.9977,-3.9977,-3.9933,-3.9889,-3.9889,-3.9889,-3.9889,-3.9867,-3.9599,-3.9502,-3.9458,-3.9192,-3.9101,-3.9101,-3.9101,-3.9101,-3.9101,-3.9101,-3.9101,-3.9101,-3.9101,-3.9101,-3.9101,-3.9101,-3.9101,-3.9101,-3.9101,-3.9101,-3.9101,-3.9101,-3.9101,-3.9101,-3.9101,-3.9101,-3.9101,-3.9101,-3.9101,-3.9101,-3.9101,-3.9101,-3.9101,-3.9101,-3.9101,-3.9101,-3.9101,-3.9101,-3.9101,-3.9101,-3.9101,-3.9101,-3.9101,-3.9101,-3.9101,-3.9101,-3.9101,-3.9101,-3.9101,-3.9101,-3.9101,-3.9101,-3.9073,-3.9073,-3.9101,-3.9101,-3.9101,-3.9101,-3.9101,-3.9101,-3.9101,-3.9101,-3.9101,-3.9101,-3.9101,-3.9101,-3.9101,-3.9073,-3.9045,-3.9064,-3.895,-3.8939,-3.895,-4.5686,-4.5891,-4.6066,-4.6066,-4.5402,-4.4855,-4.4777,-4.343,-4.2376,-4.2298,-4.1581,-4.1108,-4.1107,-4.1105,-4.1097,-4.111,-4.1085,-4.1038,-4.0907,-4.0878,-4.0858,-4.0803,-4.079,-4.079,-4.079,-4.079,-4.079,-4.079,-3.981,-3.9682,-4.0376,-3.9445,-3.9438,-4.0185,-4.0062,-4.0024,-4.0081,-3.9977,-3.9911,-3.9889,-3.9889,-3.9889,-3.9848,-3.9599,-3.9483,-3.9452,-3.9192,-3.9101,-3.9101,-3.9101,-3.9101,-3.9101,-3.9101,-3.9101,-3.9101,-3.9101,-3.9101,-3.9101,-3.9101,-3.9101,-3.9101,-3.9101,-3.9101,-3.9101,-3.9101,-3.9101,-3.9101,-3.9101,-3.9101,-3.9101,-3.9101,-3.9101,-3.9101,-3.9101,-3.9101,-3.9101,-3.9101,-3.9101,-3.9101,-3.9101,-3.9101,-3.9101,-3.9101,-3.9101,-3.9101,-3.9101,-3.9101,-3.9101,-3.9101,-3.9101,-3.9101,-3.9101,-3.9101,-3.9101,-3.9101,-3.9036,-3.9036,-3.9101,-3.9101,-3.9101,-3.9101,-3.9101,-3.9101,-3.9101,-3.9101,-3.9101,-3.9101,-3.9101,-3.9073,-3.9073,-3.9007,-3.8997,-3.8979,-3.8862,-3.8851,-3.8862,-4.3938,-4.4118,-4.425,-4.425,-4.4114,-4.3743,-4.3079,-4.265,-4.2142,-4.1479,-4.1224,-4.1094,-4.1108,-4.1104,-4.1111,-4.1091,-4.1045,-4.0952,-4.0839,-4.0828,-4.0815,-4.0803,-4.079,-4.079,-4.079,-4.079,-4.079,-4.079,-3.9908,-3.9476,-3.9548,-3.8652,-3.8635,-3.9363,-3.9329,-3.9603,-4.0101,-4.0061,-3.9998,-3.9889,-3.9889,-3.9826,-3.9717,-3.9575,-3.9433,-3.9324,-3.9156,-3.9101,-3.9101,-3.9101,-3.9101,-3.9101,-3.9101,-3.9101,-3.9101,-3.9101,-3.9101,-3.9101,-3.9101,-3.9101,-3.9101,-3.9101,-3.9101,-3.9101,-3.9101,-3.9101,-3.9101,-3.9101,-3.9101,-3.9101,-3.9101,-3.9101,-3.9101,-3.9101,-3.9101,-3.9101,-3.9101,-3.9101,-3.9101,-3.9101,-3.9101,-3.9101,-3.9101,-3.9101,-3.9101,-3.9101,-3.9101,-3.9101,-3.9101,-3.9101,-3.9101,-3.9101,-3.9101,-3.9073,-3.9007,-3.9007,-3.9007,-3.9007,-3.9007,-3.9007,-3.9007,-3.9073,-3.9101,-3.9101,-3.9045,-3.9007,-3.9007,-3.9007,-3.8979,-3.895,-3.8997,-3.8968,-3.8921,-3.9064,-3.9101,-3.9101,-4.3413,-4.3552,-4.3704,-4.3704,-4.3352,-4.2923,-4.2474,-4.2045,-4.1615,-4.1166,-4.1105,-4.1094,-4.1108,-4.1091,-4.1096,-4.1052,-4.1045,-4.098,-4.0818,-4.0828,-4.0826,-4.0803,-4.079,-4.079,-4.079,-4.079,-4.079,-4.079,-3.9514,-3.9064,-3.938,-3.8074,-3.7893,-3.8671,-3.8593,-3.9007,-3.9708,-3.9585,-3.9699,-3.9998,-3.9933,-3.9867,-3.9781,-3.9575,-3.9477,-3.9376,-3.9165,-3.9101,-3.9101,-3.9101,-3.9101,-3.9101,-3.9101,-3.9101,-3.9101,-3.9101,-3.9101,-3.9101,-3.9101,-3.9101,-3.9101,-3.9101,-3.9101,-3.9101,-3.9101,-3.9101,-3.9101,-3.9101,-3.9101,-3.9101,-3.9101,-3.9101,-3.9101,-3.9101,-3.9101,-3.9101,-3.9101,-3.9101,-3.9101,-3.9101,-3.9101,-3.9101,-3.9101,-3.9101,-3.9101,-3.9101,-3.9101,-3.9101,-3.9101,-3.9073,-3.9045,-3.9045,-3.9017,-3.8979,-3.895,-3.8939,-3.8892,-3.8892,-3.8939,-3.895,-3.895,-3.8979,-3.8989,-3.8989,-3.8979,-3.9036,-3.9129,-3.9129,-3.921,-3.9272,-3.929,-3.9245,-3.9245,-3.9324,-3.9427,-3.9526,-4.2966,-4.3124,-4.3255,-4.3255,-4.2669,-4.2181,-4.2181,-4.1557,-4.1108,-4.1108,-4.1103,-4.1093,-4.1108,-4.1108,-4.1081,-4.0996,-4.1038,-4.0996,-4.0807,-4.0849,-4.0848,-4.0803,-4.079,-4.079,-4.079,-4.079,-4.079,-4.079,-3.905,-3.8566,-3.9243,-3.7502,-3.7154,-3.7974,-3.7861,-3.829,-3.9071,-3.8831,-3.9127,-3.9719,-3.9753,-3.9747,-3.9724,-3.9571,-3.9532,-3.9458,-3.9192,-3.9101,-3.9101,-3.9101,-3.9101,-3.9101,-3.9101,-3.9101,-3.9101,-3.9101,-3.9101,-3.9101,-3.9101,-3.9101,-3.9101,-3.9101,-3.9101,-3.9101,-3.9101,-3.9101,-3.9101,-3.9101,-3.9101,-3.9101,-3.9101,-3.9101,-3.9101,-3.9101,-3.9101,-3.9101,-3.9101,-3.9101,-3.9101,-3.9101,-3.9101,-3.9101,-3.9101,-3.9101,-3.9101,-3.9101,-3.9101,-3.9073,-3.9073,-3.9007,-3.8979,-3.8979,-3.8921,-3.8892,-3.8862,-3.8822,-3.8792,-3.8792,-3.8851,-3.8881,-3.8862,-3.895,-3.895,-3.8892,-3.8921,-3.9073,-3.9272,-3.9272,-3.9427,-3.967,-3.9623,-3.9599,-3.9575,-3.9575,-3.9739,-3.9956,-4.116,-4.1311,-4.1439,-4.1439,-4.1342,-4.1283,-4.1283,-4.1186,-4.1108,-4.1108,-4.1091,-4.1105,-4.111,-4.1109,-4.1052,-4.0926,-4.098,-4.0945,-4.0796,-4.0804,-4.0815,-4.0803,-4.079,-4.079,-4.079,-4.079,-4.079,-4.079,-3.905,-3.8257,-3.8334,-3.6651,-3.6303,-3.7077,-3.7065,-3.7469,-3.8166,-3.8137,-3.812,-3.818,-3.891,-3.9144,-3.9071,-3.951,-3.9595,-3.9451,-3.9219,-3.9101,-3.9101,-3.9101,-3.9101,-3.9101,-3.9101,-3.9101,-3.9101,-3.9101,-3.9101,-3.9101,-3.9101,-3.9101,-3.9101,-3.9101,-3.9101,-3.9101,-3.9101,-3.9101,-3.9101,-3.9101,-3.9101,-3.9101,-3.9101,-3.9101,-3.9101,-3.9101,-3.9101,-3.9101,-3.9101,-3.9101,-3.9101,-3.9101,-3.9101,-3.9101,-3.9101,-3.9101,-3.9101,-3.9101,-3.9064,-3.9007,-3.9007,-3.895,-3.8892,-3.8892,-3.8892,-3.8862,-3.8822,-3.8822,-3.8762,-3.8689,-3.8719,-3.875,-3.8822,-3.911,-3.9129,-3.891,-3.9073,-3.9183,-3.921,-3.921,-3.9324,-3.9532,-3.9575,-3.9575,-3.9551,-3.9762,-4.0017,-4.0196,-4.081,-4.0961,-4.1108,-4.1108,-4.1108,-4.1108,-4.1108,-4.1108,-4.1108,-4.1108,-4.1108,-4.1103,-4.111,-4.1105,-4.1071,-4.0952,-4.1023,-4.1007,-4.0867,-4.0858,-4.0848,-4.0792,-4.0796,-4.079,-4.079,-4.079,-4.079,-4.079,-3.905,-3.8199,-3.816,-3.6477,-3.5897,-3.6226,-3.6226,-3.6667,-3.7372,-3.7307,-3.7522,-3.7943,-3.8249,-3.8299,-3.8232,-3.8809,-3.8954,-3.8845,-3.9024,-3.9101,-3.9101,-3.9101,-3.9101,-3.9101,-3.9101,-3.9101,-3.9129,-3.9272,-3.9219,-3.9129,-3.9272,-3.9219,-3.9101,-3.9101,-3.9101,-3.9101,-3.9101,-3.9101,-3.9101,-3.9101,-3.9101,-3.9101,-3.9101,-3.9101,-3.9101,-3.9101,-3.9101,-3.9101,-3.9101,-3.9101,-3.9101,-3.9101,-3.9101,-3.9073,-3.9064,-3.9045,-3.9036,-3.9007,-3.895,-3.8921,-3.8921,-3.8881,-3.8833,-3.8833,-3.8792,-3.878,-3.875,-3.875,-3.8719,-3.8707,-3.8707,-3.8738,-3.875,-3.891,-3.8979,-3.9007,-3.895,-3.9183,-3.9575,-3.9427,-3.9599,-3.9954,-3.9975,-3.9975,-3.9954,-4.0077,-4.0196,-4.0272]}]]